[[{"header":{"parameterUnit":"m.s-1","parameterCategory":1,"la1":30.6,"la2":29.2853,"lo1":-89.7004,"lo2":-87.6739,"dy":0.0162,"dx":0.0183,"nx":112,"ny":82,"refTime":"2026-03-12T00:00:00:Z","depth":0,"parameterNumber":2,"parameterNumberName":"U-component_of_WINDS"},"data":[0.0,0.0,0.0,0.0,0.0,0.0,0.0,0.0,0.0,0.0,0.0,0.0,0.0,0.0,0.0,0.0,0.0,0.0,0.0,0.0,0.0,0.0,0.0,0.0,0.0,0.0,0.0,0.0,0.0,0.0,0.0,0.0,0.0,0.0,0.0,0.0,0.0,0.0,0.0,0.0,0.0,0.0,0.0,0.0,0.0,0.0,0.0,0.0,0.0,0.0,0.0,0.0,0.0,0.0,0.0,0.0,0.0,0.0,0.0,0.0,0.0,0.0,0.0,0.0,0.0,0.0,0.0,0.0,0.0,0.0,0.0,0.0,0.0,0.0,0.0,0.0,0.0,0.0,0.0,0.0,0.0,0.0,0.0,0.0,0.0,0.0,0.0,0.0,0.0,0.0,-3.2867,-3.3217,-3.4237,-3.4724,-3.4241,-3.4678,-3.4744,-3.4222,0.0,0.0,0.0,0.0,0.0,0.0,0.0,0.0,0.0,0.0,0.0,0.0,0.0,0.0,0.0,0.0,0.0,0.0,0.0,0.0,0.0,0.0,0.0,0.0,0.0,0.0,0.0,0.0,0.0,0.0,0.0,0.0,0.0,0.0,0.0,0.0,0.0,0.0,0.0,0.0,0.0,0.0,0.0,0.0,0.0,0.0,0.0,0.0,0.0,0.0,0.0,0.0,0.0,0.0,0.0,0.0,0.0,0.0,0.0,0.0,0.0,0.0,0.0,0.0,0.0,0.0,0.0,0.0,0.0,0.0,0.0,0.0,0.0,0.0,0.0,0.0,0.0,0.0,0.0,0.0,0.0,0.0,0.0,0.0,0.0,0.0,0.0,0.0,0.0,0.0,0.0,0.0,0.0,0.0,0.0,0.0,0.0,0.0,0.0,0.0,0.0,0.0,0.0,0.0,-3.2301,-3.3415,-3.3858,-3.4114,-3.4185,-3.4284,-3.4303,-3.4216,0.0,0.0,0.0,0.0,0.0,0.0,0.0,0.0,0.0,0.0,0.0,0.0,0.0,0.0,0.0,0.0,0.0,0.0,0.0,0.0,0.0,0.0,0.0,0.0,0.0,0.0,0.0,0.0,0.0,0.0,0.0,0.0,0.0,0.0,0.0,0.0,0.0,0.0,0.0,0.0,0.0,0.0,0.0,0.0,0.0,0.0,0.0,0.0,0.0,0.0,0.0,0.0,0.0,0.0,0.0,0.0,0.0,0.0,0.0,0.0,0.0,0.0,0.0,0.0,0.0,0.0,0.0,0.0,0.0,0.0,0.0,0.0,0.0,0.0,0.0,0.0,0.0,0.0,0.0,0.0,0.0,0.0,0.0,0.0,0.0,0.0,0.0,0.0,0.0,0.0,0.0,0.0,0.0,0.0,0.0,0.0,0.0,0.0,0.0,0.0,0.0,0.0,0.0,-3.1801,-3.231,-3.3321,-3.3721,-3.3985,-3.4185,-3.4099,-3.4086,-3.4197,-3.2496,0.0,0.0,0.0,0.0,0.0,0.0,0.0,0.0,0.0,0.0,0.0,0.0,0.0,0.0,0.0,0.0,0.0,0.0,0.0,0.0,0.0,0.0,0.0,0.0,0.0,0.0,0.0,0.0,0.0,0.0,0.0,0.0,0.0,0.0,0.0,0.0,0.0,0.0,0.0,0.0,0.0,0.0,0.0,0.0,0.0,0.0,0.0,0.0,0.0,0.0,0.0,0.0,0.0,0.0,0.0,0.0,0.0,0.0,0.0,0.0,0.0,0.0,0.0,0.0,0.0,0.0,0.0,0.0,0.0,0.0,0.0,0.0,0.0,0.0,0.0,0.0,0.0,0.0,0.0,0.0,0.0,0.0,0.0,0.0,0.0,0.0,0.0,0.0,0.0,0.0,0.0,0.0,0.0,0.0,0.0,0.0,0.0,0.0,0.0,0.0,0.0,0.0,-3.2208,-3.2403,-3.3085,-3.3433,-3.3698,-3.3891,-3.3626,-3.3621,-3.4024,-3.2238,0.0,0.0,0.0,0.0,0.0,0.0,0.0,0.0,0.0,0.0,0.0,0.0,0.0,0.0,0.0,0.0,0.0,0.0,0.0,0.0,0.0,0.0,0.0,0.0,0.0,0.0,0.0,0.0,0.0,0.0,0.0,0.0,0.0,0.0,0.0,0.0,0.0,0.0,0.0,0.0,0.0,0.0,0.0,0.0,0.0,0.0,0.0,0.0,0.0,0.0,0.0,0.0,0.0,0.0,0.0,0.0,0.0,0.0,0.0,0.0,0.0,0.0,0.0,0.0,0.0,0.0,0.0,0.0,0.0,0.0,0.0,0.0,0.0,0.0,0.0,0.0,0.0,0.0,0.0,0.0,0.0,0.0,0.0,0.0,0.0,0.0,0.0,0.0,0.0,0.0,0.0,0.0,0.0,0.0,0.0,0.0,0.0,0.0,0.0,0.0,0.0,0.0,-3.1895,-3.2401,-3.27,-3.2782,-3.2858,-3.3069,-3.2447,-3.2502,-3.3584,-3.1474,0.0,0.0,0.0,0.0,0.0,0.0,0.0,0.0,0.0,0.0,0.0,0.0,0.0,0.0,0.0,0.0,0.0,0.0,0.0,0.0,0.0,0.0,0.0,0.0,0.0,0.0,0.0,0.0,0.0,0.0,0.0,0.0,0.0,0.0,0.0,0.0,0.0,0.0,0.0,0.0,0.0,0.0,0.0,0.0,0.0,0.0,0.0,0.0,0.0,0.0,0.0,0.0,0.0,0.0,0.0,0.0,0.0,0.0,0.0,0.0,0.0,0.0,0.0,0.0,0.0,0.0,0.0,0.0,0.0,0.0,0.0,0.0,0.0,0.0,0.0,0.0,0.0,0.0,0.0,0.0,0.0,0.0,0.0,0.0,0.0,0.0,0.0,0.0,0.0,0.0,0.0,0.0,0.0,0.0,0.0,0.0,0.0,0.0,0.0,0.0,0.0,0.0,-3.1356,-3.1843,0.0,-3.2636,-3.2781,-3.2975,-3.2754,-3.2665,-3.2835,0.0,0.0,0.0,0.0,0.0,0.0,0.0,0.0,0.0,0.0,0.0,0.0,0.0,0.0,0.0,0.0,0.0,0.0,0.0,0.0,0.0,0.0,0.0,0.0,0.0,0.0,0.0,0.0,0.0,0.0,0.0,0.0,0.0,0.0,0.0,0.0,0.0,0.0,0.0,0.0,0.0,0.0,0.0,0.0,0.0,0.0,0.0,0.0,0.0,0.0,0.0,0.0,0.0,0.0,0.0,0.0,0.0,0.0,0.0,0.0,0.0,0.0,0.0,0.0,0.0,0.0,0.0,0.0,0.0,0.0,0.0,0.0,0.0,0.0,0.0,0.0,0.0,0.0,0.0,0.0,0.0,0.0,0.0,0.0,0.0,0.0,0.0,0.0,0.0,0.0,0.0,0.0,0.0,0.0,0.0,0.0,0.0,0.0,0.0,0.0,0.0,0.0,-3.0317,-3.0907,-3.1481,0.0,-3.2335,-3.2469,-3.2616,-3.2401,-3.2201,-3.2068,0.0,0.0,0.0,0.0,0.0,0.0,0.0,0.0,0.0,0.0,0.0,0.0,0.0,0.0,0.0,0.0,0.0,0.0,0.0,0.0,0.0,0.0,0.0,0.0,0.0,0.0,0.0,0.0,0.0,0.0,0.0,0.0,0.0,0.0,0.0,0.0,0.0,0.0,0.0,0.0,0.0,0.0,0.0,0.0,0.0,0.0,0.0,0.0,0.0,0.0,0.0,0.0,0.0,0.0,0.0,0.0,0.0,0.0,0.0,0.0,0.0,0.0,0.0,0.0,0.0,0.0,0.0,0.0,0.0,0.0,0.0,0.0,0.0,0.0,0.0,0.0,0.0,0.0,0.0,0.0,0.0,0.0,0.0,0.0,0.0,0.0,0.0,0.0,0.0,0.0,0.0,0.0,0.0,0.0,0.0,0.0,0.0,0.0,0.0,0.0,0.0,0.0,-2.9472,-3.0545,-3.1411,-3.1763,-3.18,-3.18,-3.18,-3.1127,-3.0872,0.0,0.0,0.0,0.0,0.0,0.0,0.0,0.0,0.0,0.0,0.0,0.0,0.0,0.0,0.0,0.0,0.0,0.0,0.0,0.0,0.0,0.0,0.0,0.0,0.0,0.0,0.0,0.0,0.0,0.0,0.0,0.0,0.0,0.0,0.0,0.0,0.0,0.0,0.0,0.0,0.0,0.0,0.0,0.0,0.0,0.0,0.0,0.0,0.0,0.0,0.0,0.0,0.0,0.0,0.0,0.0,0.0,0.0,0.0,0.0,0.0,0.0,0.0,0.0,0.0,0.0,0.0,0.0,0.0,0.0,0.0,0.0,0.0,0.0,0.0,0.0,0.0,0.0,0.0,0.0,0.0,0.0,0.0,0.0,0.0,0.0,0.0,0.0,0.0,0.0,0.0,0.0,0.0,0.0,0.0,0.0,0.0,0.0,0.0,0.0,0.0,0.0,0.0,-2.8649,-2.9709,-3.0489,-3.0592,-3.0908,-3.1083,-3.1083,-3.1202,-3.0989,-3.0353,0.0,0.0,0.0,0.0,0.0,0.0,0.0,0.0,0.0,0.0,0.0,0.0,0.0,0.0,0.0,0.0,0.0,0.0,0.0,0.0,0.0,0.0,0.0,0.0,0.0,0.0,0.0,0.0,0.0,0.0,0.0,0.0,0.0,0.0,0.0,0.0,0.0,0.0,0.0,0.0,0.0,0.0,0.0,0.0,0.0,0.0,0.0,0.0,0.0,0.0,0.0,0.0,0.0,0.0,0.0,0.0,0.0,0.0,0.0,0.0,0.0,0.0,0.0,0.0,0.0,0.0,0.0,0.0,0.0,0.0,0.0,0.0,0.0,0.0,0.0,0.0,0.0,0.0,0.0,0.0,0.0,0.0,0.0,0.0,0.0,0.0,0.0,0.0,0.0,0.0,0.0,0.0,0.0,0.0,0.0,0.0,0.0,0.0,0.0,0.0,0.0,0.0,-2.8138,-2.9185,-2.9962,-3.0074,-3.0344,-3.0526,-3.0526,-3.0767,-3.0425,-2.9194,0.0,0.0,0.0,0.0,0.0,0.0,0.0,0.0,0.0,0.0,0.0,0.0,0.0,0.0,0.0,0.0,0.0,0.0,0.0,0.0,0.0,0.0,0.0,0.0,0.0,0.0,0.0,0.0,0.0,0.0,0.0,0.0,0.0,0.0,0.0,0.0,0.0,0.0,0.0,0.0,0.0,0.0,0.0,0.0,0.0,0.0,0.0,0.0,0.0,0.0,0.0,0.0,0.0,0.0,0.0,0.0,0.0,0.0,0.0,0.0,0.0,0.0,0.0,0.0,0.0,0.0,0.0,0.0,0.0,0.0,0.0,0.0,0.0,0.0,0.0,0.0,0.0,0.0,0.0,0.0,0.0,0.0,0.0,0.0,0.0,0.0,0.0,0.0,0.0,0.0,0.0,0.0,0.0,0.0,0.0,0.0,0.0,0.0,0.0,0.0,0.0,0.0,-2.7753,-2.879,-2.9607,-2.9919,-2.9967,-3.0026,-3.0026,-3.0048,-2.9447,-2.7994,0.0,0.0,0.0,0.0,0.0,0.0,0.0,0.0,0.0,0.0,0.0,0.0,0.0,0.0,0.0,0.0,0.0,0.0,0.0,0.0,0.0,0.0,0.0,0.0,0.0,0.0,0.0,0.0,0.0,0.0,0.0,0.0,0.0,0.0,0.0,0.0,0.0,0.0,0.0,0.0,0.0,0.0,0.0,0.0,0.0,0.0,0.0,0.0,0.0,0.0,0.0,0.0,0.0,0.0,0.0,0.0,0.0,0.0,0.0,0.0,-2.9594,-2.9534,0.0,0.0,0.0,0.0,0.0,0.0,0.0,0.0,0.0,0.0,0.0,0.0,0.0,0.0,0.0,0.0,0.0,0.0,0.0,0.0,0.0,0.0,0.0,0.0,0.0,0.0,0.0,0.0,0.0,0.0,0.0,0.0,0.0,0.0,0.0,0.0,0.0,0.0,0.0,0.0,-2.695,-2.7936,-2.8677,-2.8771,-2.9097,-2.9309,-2.9309,-2.9645,-2.9269,-2.7903,-2.7738,0.0,0.0,0.0,0.0,0.0,0.0,0.0,0.0,0.0,0.0,0.0,0.0,0.0,0.0,0.0,0.0,0.0,0.0,0.0,0.0,0.0,0.0,0.0,0.0,0.0,0.0,0.0,0.0,0.0,0.0,0.0,0.0,0.0,0.0,0.0,0.0,0.0,0.0,0.0,0.0,0.0,0.0,0.0,0.0,0.0,0.0,0.0,0.0,0.0,0.0,0.0,0.0,0.0,0.0,0.0,0.0,0.0,0.0,0.0,-2.9875,-2.9798,0.0,0.0,0.0,0.0,0.0,0.0,0.0,0.0,0.0,0.0,0.0,0.0,0.0,0.0,0.0,0.0,0.0,0.0,0.0,0.0,0.0,0.0,0.0,0.0,0.0,0.0,0.0,0.0,0.0,0.0,0.0,0.0,0.0,0.0,0.0,0.0,0.0,0.0,0.0,0.0,-2.579,-2.6692,-2.7415,-2.7625,-2.8126,-2.855,-2.8748,-2.899,-2.8693,-2.766,-2.7115,0.0,0.0,0.0,0.0,0.0,0.0,0.0,0.0,0.0,0.0,0.0,0.0,0.0,0.0,0.0,0.0,0.0,0.0,0.0,0.0,0.0,0.0,0.0,0.0,0.0,0.0,0.0,0.0,0.0,0.0,0.0,0.0,0.0,0.0,0.0,0.0,0.0,0.0,0.0,0.0,0.0,0.0,0.0,0.0,0.0,0.0,0.0,0.0,0.0,0.0,0.0,0.0,0.0,-3.0807,-3.0784,-3.0091,-3.0815,-3.0503,-2.9431,-3.0003,-3.0004,-2.9629,-2.9505,0.0,0.0,0.0,0.0,0.0,0.0,0.0,0.0,0.0,0.0,0.0,0.0,0.0,0.0,0.0,0.0,0.0,0.0,0.0,0.0,0.0,0.0,-2.3998,-2.3456,-2.3258,-2.3549,-2.5011,0.0,0.0,0.0,0.0,0.0,0.0,0.0,0.0,0.0,0.0,0.0,-2.456,-2.5346,-2.6081,-2.6503,-2.7091,-2.763,-2.8073,-2.8137,-2.7887,-2.7215,-2.6339,-2.5575,0.0,0.0,0.0,0.0,0.0,0.0,0.0,0.0,0.0,0.0,0.0,0.0,0.0,0.0,0.0,0.0,0.0,0.0,0.0,0.0,0.0,0.0,0.0,0.0,0.0,0.0,0.0,0.0,0.0,0.0,0.0,0.0,-3.0133,-3.0725,0.0,0.0,0.0,0.0,0.0,0.0,0.0,0.0,0.0,0.0,0.0,0.0,0.0,-2.9761,-2.9183,-2.9087,-2.8741,-2.8197,-2.868,-2.8609,-2.8022,-2.865,-2.8809,-2.866,-2.874,0.0,-2.9013,-2.8865,0.0,0.0,0.0,0.0,0.0,0.0,0.0,0.0,0.0,0.0,0.0,0.0,0.0,0.0,0.0,0.0,0.0,0.0,0.0,0.0,0.0,0.0,-2.38,-2.3541,-2.3453,-2.3515,-2.3731,-2.3608,-2.3521,-2.3783,-2.3645,-2.3597,0.0,0.0,0.0,0.0,0.0,0.0,-2.3654,-2.4288,-2.4937,-2.5535,-2.5857,-2.6301,-2.6868,-2.7148,-2.6984,-2.6293,-2.6135,-2.5758,-2.5082,-2.3606,0.0,0.0,0.0,0.0,0.0,0.0,0.0,0.0,0.0,0.0,0.0,0.0,0.0,0.0,0.0,0.0,0.0,0.0,0.0,0.0,0.0,0.0,0.0,0.0,0.0,0.0,0.0,0.0,0.0,-2.9244,-2.9466,-3.0123,-2.995,-2.9642,0.0,0.0,0.0,0.0,0.0,0.0,0.0,0.0,0.0,-2.7735,-2.8047,-2.8282,-2.8358,-2.837,-2.8197,-2.7906,-2.812,-2.808,-2.782,-2.8093,-2.8214,-2.8214,-2.8214,-2.8302,-2.8371,-2.8044,-2.7782,-2.7513,0.0,0.0,0.0,0.0,-2.5631,-2.5315,-2.4922,-2.4794,-2.4724,-2.4339,0.0,0.0,0.0,0.0,0.0,0.0,0.0,-2.3888,-2.3284,-2.3135,-2.3027,-2.2586,-2.2476,-2.2476,-2.2476,-2.2652,-2.2889,-2.3065,-2.3205,-2.3181,-2.2799,-2.2488,0.0,0.0,0.0,-2.2658,-2.2658,-2.3038,-2.3504,-2.4006,-2.4472,-2.508,-2.5902,-2.6089,-2.6158,-2.6153,-2.5795,-2.5477,-2.5178,-2.4138,-2.325,0.0,0.0,0.0,0.0,0.0,0.0,0.0,0.0,0.0,0.0,0.0,0.0,0.0,0.0,0.0,0.0,0.0,0.0,0.0,0.0,0.0,0.0,0.0,0.0,0.0,0.0,0.0,0.0,-2.8826,-2.8976,-2.9489,-2.948,-2.9233,0.0,0.0,0.0,0.0,0.0,0.0,-2.6585,-2.6863,-2.7112,-2.7261,-2.7504,-2.7781,-2.804,-2.7967,-2.7835,-2.7723,-2.7524,-2.7471,-2.7471,-2.7471,-2.7471,-2.7471,-2.7471,-2.7471,-2.7452,-2.7282,-2.6979,-2.6528,-2.5655,-2.5066,-2.4682,-2.4507,-2.4454,-2.4425,-2.4092,-2.3989,-2.393,-2.3623,-2.3312,-2.3129,-2.3511,0.0,0.0,0.0,0.0,-2.3118,-2.2451,-2.2298,-2.2187,-2.1675,-2.1572,-2.1572,-2.1572,-2.2025,-2.2451,-2.2594,-2.2837,-2.2734,-2.1838,-2.1629,0.0,-2.1453,0.0,-2.1492,-2.1492,-2.1767,-2.2131,-2.2567,-2.308,-2.3826,-2.4866,-2.5027,-2.5307,-2.5862,-2.5414,-2.5161,-2.5161,-2.4467,-2.3635,-2.2675,0.0,0.0,0.0,0.0,0.0,0.0,0.0,0.0,0.0,0.0,0.0,0.0,0.0,0.0,0.0,0.0,0.0,0.0,0.0,0.0,0.0,0.0,0.0,0.0,0.0,0.0,0.0,0.0,0.0,-2.8575,-2.8349,0.0,0.0,0.0,0.0,-2.6069,-2.6493,-2.6778,-2.6773,-2.7875,-2.8509,-2.8501,-2.9072,-2.9167,-2.8744,-2.8062,-2.746,-2.6968,-2.6289,-2.6002,-2.6002,-2.6002,-2.6002,-2.6002,-2.6002,-2.6002,-2.6057,-2.6733,-2.699,-2.6857,-2.5758,-2.5276,-2.518,-2.4548,-2.4308,-2.4192,-2.3416,-2.3148,-2.3058,-2.2482,-2.2567,-2.2882,-2.2713,-2.2652,0.0,0.0,-2.2242,-2.1749,-2.1526,-2.1451,-2.142,-2.1253,-2.1221,-2.1221,-2.1221,-2.162,-2.2082,-2.2494,-2.2417,-2.2169,-2.1924,0.0,-2.0211,-1.9964,-2.0016,-2.0093,-2.0093,-2.0511,-2.0986,-2.1524,-2.1888,-2.2549,-2.37,-2.4001,-2.4422,-2.5021,-2.5021,-2.5007,-2.5007,-2.4173,-2.37,-2.3633,-2.1316,0.0,0.0,0.0,0.0,0.0,0.0,0.0,0.0,0.0,0.0,0.0,0.0,0.0,0.0,0.0,0.0,0.0,0.0,0.0,0.0,0.0,0.0,0.0,0.0,0.0,0.0,0.0,0.0,-2.8652,-2.8786,0.0,-2.8166,-2.751,-2.7092,-2.7025,-2.6871,-2.6839,-2.7037,-2.7473,-2.7788,-2.799,-2.7878,-2.774,-2.7589,-2.6976,-2.6413,-2.5849,-2.5099,-2.4743,-2.4743,-2.424,-2.4022,-2.4022,-2.4022,-2.4022,-2.4036,-2.4307,-2.4873,-2.5523,-2.4991,-2.4384,-2.3804,-2.3555,-2.3256,-2.2927,-2.2622,-2.2439,-2.2211,-2.1408,-2.127,-2.131,-2.078,-2.0621,-2.0589,-2.0504,-2.0333,-2.0096,-1.9922,-1.9857,-1.9824,-1.9802,-1.977,-1.9901,-2.0399,-2.0613,-2.0921,-2.1577,-2.1889,-2.1849,-2.1404,-2.0737,-2.0205,-2.0091,-1.9814,-1.9617,-1.9617,-1.9746,-1.9937,-2.0126,-2.0255,-2.0763,-2.1878,-2.2038,-2.2492,-2.3412,-2.3475,-2.3475,-2.3475,-2.3166,-2.2824,-2.2483,-2.1231,-2.0,0.0,0.0,0.0,0.0,0.0,0.0,0.0,0.0,0.0,0.0,0.0,0.0,0.0,0.0,0.0,0.0,0.0,0.0,0.0,0.0,0.0,0.0,0.0,0.0,0.0,0.0,-2.7927,-2.8317,-2.8677,-2.8646,-2.8187,-2.7446,-2.6978,-2.6942,-2.6428,-2.6203,-2.6467,-2.6616,-2.6835,-2.7067,-2.6589,-2.624,-2.6065,-2.548,-2.492,-2.4373,-2.3781,-2.3478,-2.3489,-2.2973,-2.275,-2.275,-2.275,-2.275,-2.275,-2.275,-2.3162,-2.3746,-2.3653,-2.312,-2.2366,-2.2103,-2.1721,-2.1293,-2.1293,-2.1187,-2.0996,-2.0365,-2.0171,-2.0074,-1.9519,-1.9344,-1.9311,-1.9233,-1.921,-1.9177,-1.9044,-1.9011,-1.9011,-1.9011,-1.9011,-1.911,-1.9562,-1.9661,-1.9802,-2.0204,-2.1028,-2.1444,-2.0745,-2.0372,-1.9995,-1.9514,-1.9262,-1.9111,-1.9037,-1.9172,-1.9289,-1.9394,-1.9394,-1.9777,-2.0686,-2.076,-2.1129,-2.2044,-2.2093,-2.2093,-2.2093,-2.2093,-2.1945,-2.1571,-2.0665,-1.9489,-1.7954,0.0,0.0,0.0,0.0,0.0,0.0,0.0,0.0,0.0,0.0,0.0,0.0,0.0,0.0,0.0,0.0,0.0,0.0,0.0,0.0,0.0,0.0,0.0,-2.6438,-2.7205,-2.7505,-2.7434,-2.7697,-2.7742,-2.7221,-2.6215,-2.5611,-2.5611,-2.5241,-2.5009,-2.5009,-2.5526,-2.5788,-2.5777,-2.5371,-2.4931,-2.4371,-2.3742,-2.3129,-2.259,-2.2366,-2.2253,-2.2253,-2.2253,-2.2215,-2.2215,-2.2215,-2.2215,-2.2215,-2.2205,-2.1993,-2.1641,-2.1829,-2.1611,-2.1081,-2.0358,-1.9857,-1.9498,-1.9498,-1.9498,-1.9475,-1.9299,-1.9266,-1.9233,-1.9011,-1.8944,-1.8944,-1.8944,-1.8944,-1.8944,-1.8944,-1.8944,-1.8944,-1.8944,-1.8944,-1.89,-1.8767,-1.8767,-1.87,-1.8533,-1.9922,-2.0816,-1.9997,-1.9823,-1.9396,-1.8101,-1.8267,0.0,-1.8294,-1.8655,-1.904,-1.9316,-1.9342,-1.9589,-2.017,-2.0247,-2.0453,-2.0981,-2.1031,-2.1018,-2.1018,-2.1018,-2.099,-2.099,-1.9555,-1.8169,-1.687,0.0,0.0,0.0,0.0,0.0,0.0,0.0,0.0,0.0,0.0,0.0,0.0,0.0,0.0,0.0,0.0,0.0,0.0,0.0,0.0,0.0,-2.3512,-2.3648,-2.4755,-2.5503,-2.5885,-2.569,-2.61,-2.6359,-2.6213,-2.5928,-2.5765,-2.5765,-2.5639,-2.5509,-2.5373,-2.5503,-2.5484,-2.5305,-2.4916,-2.4433,-2.3881,-2.3409,-2.29,-2.2366,-2.1735,-2.1431,-2.1392,-2.0837,-2.0576,-2.0576,-2.0576,-2.0576,-2.0556,-2.0243,-2.0048,-2.008,-2.1298,-2.1268,-2.0505,-2.0309,-1.9935,-1.9498,-1.9387,-1.9365,-1.9233,-1.8566,-1.8365,-1.824,-1.7672,-1.7476,-1.7476,-1.7476,-1.7476,-1.7476,-1.7476,-1.7476,-1.7432,-1.7285,-1.7251,-1.7345,-1.7711,-1.7779,-1.7915,-1.8398,-1.8666,-1.8805,-1.8883,-1.8352,-1.7936,-1.7909,-1.769,-1.7499,-1.7495,-1.7634,-1.7744,-1.7865,-1.7865,-1.8085,-1.8601,-1.8635,-1.8861,-1.9413,-1.9417,-1.9276,-1.8933,-1.8933,-1.8731,-1.8348,-1.724,-1.6455,0.0,0.0,0.0,0.0,0.0,0.0,0.0,0.0,0.0,0.0,0.0,0.0,0.0,0.0,0.0,0.0,0.0,0.0,0.0,0.0,0.0,0.0,-2.3137,-2.324,-2.3886,-2.4693,-2.5226,-2.53,-2.5614,-2.5777,-2.5777,-2.5358,-2.5105,-2.5105,-2.4638,-2.4307,-2.4221,-2.4221,-2.4043,-2.3722,-2.3348,-2.29,-2.2412,-2.1896,-2.1464,-2.1173,-2.0605,-2.0333,-2.0333,-1.9844,-1.9666,-1.9666,-1.9666,-1.9666,-1.9629,-1.9227,-1.8966,-1.892,0.0,0.0,0.0,0.0,-1.8676,-1.8388,-1.8331,-1.8307,-1.8206,-1.7706,-1.7535,-1.7467,-1.7038,-1.6908,-1.6874,-1.6795,-1.676,-1.6751,-1.6656,-1.6665,-1.6621,-1.6508,-1.6473,-1.6542,-1.6802,-1.6872,-1.6975,-1.7285,-1.694,0.0,-1.7063,-1.7087,-1.6996,-1.695,-1.6658,-1.6485,-1.6441,-1.6446,-1.6503,-1.6645,-1.6684,-1.6779,-1.7072,-1.7093,0.0,0.0,0.0,-1.7417,-1.7158,-1.7158,0.0,0.0,0.0,0.0,0.0,0.0,0.0,0.0,-1.5706,-1.5593,0.0,0.0,0.0,0.0,0.0,0.0,0.0,0.0,0.0,0.0,0.0,0.0,0.0,0.0,0.0,0.0,-2.2951,-2.3022,-2.3544,-2.4251,-2.4938,-2.5441,-2.5495,-2.5453,-2.5453,-2.451,-2.392,-2.392,-2.2984,-2.2397,-2.2353,-2.2353,0.0,0.0,0.0,-2.0942,-2.0535,-1.9881,-1.9557,-1.9557,-1.939,-1.9301,-1.9301,-1.9301,-1.9301,-1.9301,-1.9301,-1.9274,-1.9201,-1.8806,-1.8385,-1.799,-1.8156,-1.8016,-1.7617,-1.7116,-1.6908,-1.6908,-1.6908,0.0,0.0,-1.6908,-1.6908,-1.6908,-1.6874,-1.6874,-1.683,-1.6612,-1.6568,-1.6542,-1.6342,-1.6307,-1.6307,-1.6272,-1.6272,-1.6237,-1.6105,-1.6061,-1.5982,-1.5781,-1.5163,-1.4769,-1.5043,-1.5868,-1.6256,-1.5602,-1.5524,-1.5486,-1.5352,-1.5352,-1.5439,-1.568,-1.5709,0.0,-1.5709,-1.5709,-1.5709,-1.5709,-1.5652,-1.5613,-1.5613,-1.5584,-1.5546,-1.5605,-1.5546,-1.5625,-1.5792,-1.5744,-1.5554,-1.5253,-1.4504,-1.4505,0.0,0.0,0.0,0.0,0.0,0.0,0.0,0.0,0.0,0.0,0.0,0.0,0.0,0.0,0.0,-2.2837,-2.2735,-2.2657,-2.2959,-2.3138,-2.3341,-2.3594,-2.3474,-2.3387,-2.3387,-2.2994,-2.2731,-2.2731,-2.252,-2.2309,-2.2185,-2.2141,-2.1857,-2.1256,-2.085,-2.0453,-2.0057,-1.9592,-1.9341,-1.9341,-1.9301,0.0,-1.9301,-1.9301,-1.9301,-1.9301,-1.9301,-1.9118,-1.8797,-1.8365,-1.7807,-1.7138,-1.7173,-1.7127,-1.7053,-1.6936,-1.6908,-1.6908,-1.6908,-1.6908,-1.6908,-1.6908,-1.6908,-1.6874,-1.6716,-1.6647,0.0,-1.6412,-1.6377,-1.6342,-1.6307,-1.6307,-1.6272,-1.6167,-1.6132,-1.6096,-1.5903,-1.5867,-1.5738,-1.5386,-1.4975,-1.4607,-1.4358,-1.447,-1.4706,-1.4938,-1.4951,-1.4958,-1.4999,-1.501,-1.501,-1.5059,-1.5059,-1.5059,-1.5059,-1.5059,-1.5059,-1.5059,-1.4715,-1.4508,-1.4508,-1.4163,-1.4104,-1.4431,-1.4113,-1.4118,-1.4461,-1.4136,-1.4127,-1.4363,-1.4877,-1.5007,0.0,0.0,0.0,0.0,0.0,0.0,0.0,0.0,0.0,0.0,0.0,-2.2119,-2.228,0.0,-2.2478,-2.2651,-2.2667,-2.2693,-2.2775,-2.2662,-2.2618,-2.275,-2.2662,-2.2618,-2.2618,-2.2397,-2.2264,-2.2264,-2.2132,-2.1998,-2.1919,-2.1715,-2.1367,-2.0824,-2.0429,-2.0026,-1.9622,-1.8954,-1.8647,-1.8647,-1.8198,-1.7997,-1.7997,-1.7997,-1.7997,-1.7989,-1.784,-1.7699,-1.7445,-1.6879,-1.6231,-1.5604,-1.5604,-1.614,-1.6908,-1.6908,-1.6908,-1.6908,-1.6908,-1.6908,-1.6874,-1.6795,-1.6751,-1.6716,-1.6508,-1.6438,-1.6403,-1.6237,-1.6202,-1.6175,-1.607,-1.6035,-1.6035,-1.5964,-1.5929,-1.5938,-1.5841,-1.5805,-1.5685,-1.5292,-1.4923,-1.4555,-1.4161,-1.393,-1.3894,-1.4101,-1.4162,-1.4153,-1.4198,-1.4201,-1.4201,-1.4201,-1.4201,-1.4201,-1.4201,-1.4201,-1.4201,-1.4201,-1.3971,-1.3851,-1.3851,-1.3821,-1.3896,-1.4093,-1.4093,-1.4089,-1.409,-1.3901,-1.3794,-1.3813,-1.4151,-1.4356,0.0,0.0,0.0,0.0,0.0,0.0,0.0,0.0,-2.1906,-2.2166,-2.221,-2.2253,-2.2317,-2.2595,-2.2774,-2.2611,-2.2703,-2.2759,-2.2671,-2.2485,-2.2264,-2.2024,-2.2211,-2.2353,-2.2353,-2.1998,-2.1731,-2.1731,-2.1365,-2.1141,-2.1141,-2.0748,-2.0346,-1.9972,-1.9579,-1.9177,-1.8816,-1.8118,-1.7755,-1.7755,-1.7025,-1.6698,-1.6698,-1.6698,-1.6659,-1.6612,-1.6198,-1.6023,-1.5928,-1.5255,-1.4681,-1.4227,-1.4227,-1.51,-1.6324,-1.6324,-1.6473,-1.6621,-1.6586,-1.6656,-1.6769,-1.6577,-1.6542,-1.6508,-1.6307,-1.6272,-1.6237,-1.607,-1.6035,-1.6,-1.5832,-1.5805,-1.5805,-1.5805,-1.5805,-1.5805,-1.5805,-1.5805,-1.565,-1.5086,-1.4883,-1.4625,-1.4072,-1.3786,-1.3596,-1.3519,-1.3511,-1.3511,-1.3511,-1.3511,-1.3511,-1.3511,-1.3511,-1.3511,-1.3511,-1.3511,-1.3442,-1.3321,-1.3321,-1.326,-1.313,-1.3466,-1.3707,-1.3782,-1.4081,-1.4112,-1.3866,-1.3761,-1.358,-1.3324,-1.2962,-1.3186,-2.2994,-2.1904,-2.1107,-2.1553,-2.1384,-2.1319,0.0,0.0,-2.1696,-2.1879,-2.1936,-2.2043,-2.2401,-2.2529,-2.2578,-2.2746,-2.2775,-2.2662,-2.223,-2.2141,-2.1722,-2.0664,-2.149,-2.2141,-2.2141,-2.1123,-2.0484,-2.0484,-1.9658,-1.9109,-1.9109,-1.8815,-1.8414,-1.8024,-1.7738,-1.7415,-1.6984,-1.6903,-1.6862,-1.6854,-1.6739,-1.6698,-1.6698,-1.6698,-1.6572,-1.6285,-1.5424,-1.4953,-1.4764,-1.4335,-1.4078,-1.404,-1.404,-1.4155,-1.4335,-1.4335,-1.4879,-1.5648,-1.5444,-1.5806,-1.6342,-1.6342,-1.6342,-1.6307,-1.6167,-1.6132,-1.607,-1.5903,-1.5832,-1.5832,-1.5805,-1.5805,-1.5805,-1.5805,-1.5805,-1.5805,-1.5805,-1.5805,-1.5475,-1.4423,-1.4737,-1.479,-1.3743,-1.3816,-1.3913,-1.3562,-1.3511,-1.3511,-1.3511,-1.3511,-1.3511,-1.3511,-1.3511,-1.3511,-1.3511,-1.3511,-1.326,-1.2665,-1.2604,-1.2351,-1.1764,-1.1998,-1.2317,-1.2665,-1.2609,-1.2726,-1.3029,-1.2488,-1.2399,-1.2692,-1.1741,-1.2047,-2.1481,-2.113,0.0,0.0,-2.0355,-2.0784,-2.0916,-2.0999,-2.1192,-2.1781,-2.1885,-2.2048,-2.2591,-2.2664,-2.2635,0.0,-2.2485,-2.2318,-2.2141,-2.1344,-2.0554,-2.0057,-1.9924,-1.9973,-2.015,-1.9704,-1.943,-1.943,-1.9018,-1.87,-1.8539,-1.8152,-1.7803,-1.7488,-1.713,-1.6883,-1.6698,-1.6206,-1.5925,-1.5925,-1.5436,-1.5103,-1.4929,-1.4929,-1.4659,-1.4136,-1.3582,-1.3092,-1.2713,-1.2693,-1.2602,-1.2492,-1.2492,-1.2572,-1.2785,-1.3679,-1.4263,-1.4629,-1.4522,-1.4708,-1.4958,-1.4824,-1.4788,-1.4752,-1.4617,-1.4581,-1.4581,-1.4482,-1.4768,-1.5089,-1.5089,-1.5461,-1.5691,-1.5204,-1.5089,-1.4982,-1.4553,-1.4446,-1.4237,-1.3544,-1.3658,-1.3646,-1.292,-1.2953,-1.2942,-1.2624,-1.3087,-1.3511,-1.3511,-1.3511,-1.3351,-1.2948,-1.2573,-1.2328,-1.2328,-1.2328,-1.2228,-1.195,-1.2046,-1.1974,-1.1524,-1.2138,-1.2419,-1.2313,-1.2647,-1.2628,-1.2184,-1.1948,-1.166,-1.137,-1.0826,-1.0886,-2.0341,0.0,0.0,-1.9252,-1.9697,-2.0371,-2.0293,-2.0527,-2.0967,-2.1728,-2.1834,-2.1935,-2.2375,-2.25,-2.2358,-2.1813,-2.1684,-2.1579,-2.1221,-2.0155,-1.9278,-1.9013,-1.8257,-1.7807,-1.7835,-1.8187,-1.838,-1.838,-1.8149,-1.7811,-1.7522,-1.7143,-1.6809,-1.6545,-1.6175,-1.5966,-1.5966,-1.5269,-1.4936,-1.4936,-1.4243,-1.3828,-1.3603,-1.3448,-1.3076,-1.2512,-1.2151,-1.1721,-1.1335,-1.1484,-1.1446,-1.1335,-1.1335,-1.1409,-1.1663,-1.2778,-1.3397,-1.3622,-1.3542,-1.3694,-1.3839,-1.3709,-1.3637,-1.3637,-1.3535,-1.3499,-1.3499,-1.3499,-1.389,-1.4286,-1.4286,-1.4724,-1.5026,-1.443,-1.4286,-1.4135,-1.3608,-1.3499,-1.336,-1.2813,-1.2913,-1.2904,-1.2388,-1.2385,-1.2419,-1.2221,-1.2748,-1.3116,-1.2972,-1.3007,-1.288,-1.2375,-1.1981,-1.1716,-1.1716,-1.1716,-1.1652,-1.1468,-1.1623,-1.1554,-1.109,-1.1813,-1.2032,-1.1627,-1.2161,-1.21,-1.1372,-1.1298,-1.0999,-1.0406,-0.9986,-0.9803,0.0,0.0,-1.9106,-1.9705,-1.9902,-2.0156,-2.0956,-2.1161,-2.1307,-2.1787,-2.169,-2.1505,-2.1534,-2.1688,-2.1448,-2.0272,-2.0402,-2.024,-1.9063,-1.8576,-1.7987,-1.7093,-1.6669,-1.6217,0.0,-1.6639,-1.7326,-1.7326,-1.644,-1.5745,-1.5503,-1.5208,-1.4912,-1.4616,-1.4321,-1.4166,-1.4166,-1.3906,-1.3737,-1.3737,-1.3525,-1.3434,-1.3372,-1.2879,-1.2504,-1.2261,-1.1663,-1.1304,-1.1111,-1.1111,-1.1111,-1.1111,-1.1111,-1.1111,-1.1111,-1.1186,-1.1818,-1.2599,-1.2409,-1.2842,-1.3491,-1.3499,-1.3499,-1.3499,-1.3499,-1.3499,-1.3499,-1.3499,-1.3535,-1.3528,-1.3528,-1.3535,-1.3564,-1.3535,-1.3528,-1.3535,-1.3499,-1.3499,-1.328,-1.2469,-1.2938,-1.3222,-1.2455,-1.2613,-1.2874,-1.286,-1.2577,-1.2167,-1.1628,-1.1802,-1.1942,-1.1909,-1.2144,-1.2292,-1.2292,-1.2292,-1.1995,-1.1355,-1.1294,-1.0957,-1.0095,-1.0325,-1.0395,-1.0166,-1.0424,-1.0556,-1.0556,-1.0331,-1.0218,-1.018,-0.9198,-0.8742,-1.9118,0.0,-1.9625,-1.9834,-2.0127,-2.043,-2.0723,-2.0791,-2.0918,-2.1367,-2.1364,-2.131,-2.1291,-2.1575,-2.1343,-2.0009,-2.0135,-2.0014,-1.8926,-1.7986,-1.7191,-1.661,-1.6069,0.0,0.0,0.0,0.0,-1.6035,-1.5541,-1.5124,-1.483,-1.4723,-1.4536,-1.4242,-1.3959,-1.3828,-1.3828,-1.361,-1.3483,-1.3483,-1.3307,-1.3134,-1.2904,-1.2367,-1.1988,-1.1766,-1.1388,-1.1149,-1.1111,-1.1111,-1.1111,-1.1111,-1.1111,-1.1111,-1.1111,-1.1111,-1.1298,-1.1595,-1.1521,-1.1663,-1.1922,-1.1922,-1.1922,-1.1922,-1.1922,-1.1922,-1.1922,-1.1922,-1.2291,-1.2703,-1.2703,-1.3098,-1.3353,-1.2849,-1.2703,-1.2549,-1.2033,-1.1922,-1.1848,-1.1558,-1.1737,-1.1811,-1.1558,-1.163,-1.1649,-1.1462,-1.1943,-1.2248,-1.2058,-1.1731,-1.1499,-1.1499,-1.1186,-1.097,-1.097,-1.0833,-1.0667,-1.0459,-1.0484,-1.0296,-0.9817,-1.0243,-1.0276,-0.9899,-1.017,-0.9986,-0.9306,-0.9231,-0.8922,-0.8418,-0.8075,-0.7889,-1.9131,-1.9455,-1.9951,-2.0107,-2.04,-2.0605,-2.0605,-2.0605,-2.0644,-2.0819,-2.0797,-2.0715,-2.0658,-2.074,-2.0424,-1.9146,-1.9109,-1.888,-1.7863,-1.6941,-1.6301,-1.605,-1.5586,-1.5211,0.0,0.0,0.0,-1.5364,-1.5224,-1.4943,-1.4543,-1.4429,-1.4259,-1.3962,-1.3737,-1.361,-1.361,-1.3392,-1.3222,-1.3137,-1.291,-1.2733,-1.2554,-1.1984,-1.1651,-1.1477,-1.1232,-1.1111,-1.1111,-1.1111,-1.1111,-1.1111,-1.1111,-1.1111,-1.1111,-1.1111,-1.1111,-1.1111,-1.1111,-1.1111,-1.1111,-1.1111,-1.1111,-1.1111,-1.1111,-1.1111,-1.1111,-1.1111,-1.1484,-1.1855,-1.1855,-1.2254,-1.2512,-1.2003,-1.1855,-1.1744,-1.1223,-1.1111,-1.1111,-1.1111,-1.1111,-1.1111,-1.1111,-1.1111,-1.1051,-1.0888,-1.1423,-1.1783,-1.1607,-1.1296,-1.1089,-1.1089,-1.0791,-1.0575,-1.0468,-1.0361,-1.0254,-1.0182,-1.0224,-1.0132,-0.9901,-1.0199,-1.0066,-0.9432,-0.9574,-0.9193,-0.8275,-0.8275,-0.8003,-0.7502,-0.7195,-0.7042,-1.9805,-1.9932,-2.0049,-2.0507,-2.0605,-2.0605,-2.0605,-2.0605,-2.0527,-2.0342,-2.0108,-1.9863,0.0,0.0,-1.8801,-1.7783,-1.744,-1.6951,-1.592,-1.5591,-1.5418,0.0,0.0,0.0,0.0,0.0,0.0,-1.5311,-1.5337,-1.5084,-1.4486,-1.4278,-1.4017,-1.3701,-1.3483,-1.3398,-1.3398,-1.3179,-1.2966,-1.2699,-1.2439,-1.2306,-1.2276,-1.1724,-1.1483,-1.1459,-1.1226,-1.1111,-1.1111,-1.1111,-1.1111,-1.1111,-1.1111,-1.1111,-1.1111,-1.1111,-1.1111,-1.1111,-1.1111,-1.1111,-1.1111,-1.1111,-1.1111,-1.1111,-1.1111,-1.1111,-1.1111,-1.1111,-1.1111,-1.1111,-1.1111,-1.1111,-1.1111,-1.1111,-1.1111,-1.1111,-1.1111,-1.1111,-1.1111,-1.1111,-1.1111,-1.1111,-1.1111,-1.1111,-1.1111,-1.1111,-1.1111,-1.093,-1.04,-1.0551,-1.0701,-1.0701,-1.093,-1.0999,-1.0812,-1.0775,-1.07,-1.0513,-1.0443,-1.0325,-1.0143,-1.0067,-0.9609,-0.8665,-0.8623,-0.8237,-0.7425,-0.7425,-0.7425,-0.7349,-0.6507,-0.6128,-1.9883,-2.0156,-2.0458,-2.0576,-2.0605,-2.0605,-2.0605,-2.0605,-2.0527,-2.0342,-2.0264,-2.0069,0.0,0.0,0.0,-1.7783,-1.744,0.0,-1.592,-1.5718,0.0,-1.5424,0.0,-1.5471,-1.511,-1.5137,0.0,0.0,-1.4543,-1.4269,-1.394,-1.3848,-1.3724,-1.3483,-1.3264,-1.3179,-1.3179,-1.2924,-1.279,-1.2699,-1.2439,-1.221,-1.2011,-1.1639,-1.1381,-1.1214,-1.1141,-1.1111,-1.1111,-1.1111,-1.1111,-1.1111,-1.1111,-1.1111,-1.1111,-1.1111,-1.1111,-1.1111,-1.1111,-1.1111,-1.1111,-1.1111,-1.1111,-1.1111,-1.1111,-1.1111,-1.1111,-1.1111,-1.1111,-1.1111,-1.1111,-1.1111,-1.1111,-1.1111,-1.1111,-1.1111,-1.1111,-1.1111,-1.1111,-1.1111,-1.1111,-1.1111,-1.1111,-1.1111,-1.1111,-1.1111,-1.1111,-1.1063,-1.0894,-1.0972,-1.1009,-1.1009,-1.092,-1.085,-1.0812,-1.0513,-1.0331,-1.0293,-0.9571,-0.9117,-0.9079,-0.8499,-0.8075,-0.7812,-0.7812,-0.7387,-0.6546,-0.6546,-0.624,-0.5631,-0.5401,-0.5323,-2.0146,-2.0419,-2.0605,-2.0605,-2.0605,-2.0605,-2.0605,-2.0605,-2.0527,-2.0186,-2.0108,0.0,0.0,0.0,0.0,0.0,0.0,0.0,-1.5879,-1.5784,-1.5718,0.0,-1.5732,0.0,-1.5197,-1.519,-1.5017,0.0,-1.4283,-1.4002,-1.3701,-1.3525,-1.3398,-1.3264,-1.3052,-1.2918,-1.2918,-1.279,-1.2705,-1.2699,-1.2324,-1.2065,-1.1874,-1.1615,-1.1339,-1.1117,-1.12,-1.1226,-1.1111,-1.1111,-1.1111,-1.1111,-1.1111,-1.1111,-1.1111,-1.1111,-1.1111,-1.1111,-1.1111,-1.1111,-1.1111,-1.1111,-1.1111,-1.1111,-1.1111,-1.1111,-1.1111,-1.1111,-1.1111,-1.1111,-1.1111,-1.1111,-1.1111,-1.1111,-1.1111,-1.1111,-1.1111,-1.1111,-1.1111,-1.1111,-1.1111,-1.1111,-1.1111,-1.1111,-1.1111,-1.1111,-1.1111,-1.1111,-1.1111,-1.1111,-1.1074,-1.0962,-1.0545,-1.0207,-1.0019,-0.9485,-0.9102,-0.9031,-0.8499,-0.8161,-0.8161,-0.7732,-0.731,-0.6927,-0.6927,-0.6507,-0.5667,-0.5667,-0.5437,-0.5018,-0.5018,-0.5018,-2.0517,-2.0644,-2.0644,-2.0586,-2.0566,-2.0566,-2.0527,-2.0527,-2.0372,-1.9942,0.0,-1.9332,-1.8198,-1.7692,-1.7172,-1.6441,0.0,-1.5784,-1.5784,-1.5784,-1.5784,-1.5784,-1.5751,-1.5658,-1.5364,-1.5122,-1.4783,-1.4439,-1.4202,-1.3961,-1.3665,-1.3307,-1.3094,-1.3052,-1.2833,-1.2705,-1.2705,-1.2705,-1.2687,-1.2644,-1.2155,-1.1862,-1.182,-1.1555,-1.1303,-1.1123,-1.1333,-1.1297,-1.1111,-1.1111,-1.1111,-1.1111,-1.1111,-1.1111,-1.1111,-1.1111,-1.1111,-1.1111,-1.1111,-1.1111,-1.1111,-1.1111,-1.1111,-1.1111,-1.1111,-1.1111,-1.1111,-1.1111,-1.1111,-1.1111,-1.1111,-1.1111,-1.1111,-1.1111,-1.1111,-1.1111,-1.1111,-1.1111,-1.1111,-1.1111,-1.1111,-1.1111,-1.1111,-1.1111,-1.1111,-1.1111,-1.0999,-1.0925,-1.0881,-1.0881,-1.085,-1.0657,-0.9863,-0.9216,-0.8884,-0.8185,-0.7689,-0.7502,-0.7387,-0.731,-0.731,-0.7234,-0.6815,-0.6051,-0.6051,-0.5705,-0.5018,-0.5018,-0.5018,-0.5018,-0.5018,-0.5018,-2.0683,-2.084,-2.0995,-2.0468,-2.0342,-2.0294,-2.0059,-2.002,0.0,0.0,0.0,-1.847,-1.8078,-1.7186,-1.6485,-1.6308,0.0,0.0,0.0,0.0,-1.5784,0.0,0.0,0.0,0.0,-1.477,0.0,0.0,-1.3638,-1.3491,-1.344,-1.3228,-1.3009,-1.279,-1.2705,-1.2705,-1.2705,-1.2705,-1.2596,-1.2379,-1.2071,-1.1766,-1.1549,-1.1273,-1.1154,-1.1111,-1.1166,-1.1154,-1.1111,-1.1111,-1.1111,-1.1111,-1.1111,-1.1111,-1.1111,-1.1111,-1.1111,-1.1111,-1.1111,-1.1111,-1.1111,-1.1111,-1.1111,-1.1111,-1.1111,-1.1111,-1.1111,-1.1111,-1.1111,-1.1111,-1.1111,-1.1111,-1.1111,-1.1111,-1.1111,-1.1111,-1.1111,-1.1111,-1.1111,-1.1111,-1.1111,-1.1111,-1.1111,-1.1111,-1.1111,-1.1111,-1.0513,-1.0062,-0.99,-0.9863,-0.9863,-0.9825,-0.8794,-0.8067,-0.8028,-0.7727,-0.754,-0.7502,-0.6815,-0.6433,-0.6433,-0.5783,-0.5362,-0.521,-0.521,-0.5132,-0.5018,-0.5018,-0.5018,-0.5018,-0.5018,-0.5018,-2.0908,-2.0898,-2.08,-2.0391,-2.0303,-2.0225,-1.9942,0.0,0.0,0.0,0.0,-1.798,-1.6854,0.0,0.0,0.0,0.0,0.0,0.0,0.0,0.0,0.0,0.0,0.0,0.0,-1.4513,-1.4136,-1.3587,-1.3349,-1.3222,-1.3222,-1.3009,-1.2833,-1.2705,-1.2705,-1.2705,-1.2705,-1.2705,-1.2572,-1.2312,-1.2047,-1.1748,-1.1489,-1.1357,-1.1212,-1.1123,-1.1268,-1.1244,-1.1111,-1.1111,-1.1111,-1.1111,-1.1111,-1.1111,-1.1111,-1.1111,-1.1111,-1.1111,-1.1111,-1.1111,-1.1111,-1.1111,-1.1111,-1.1111,-1.1111,-1.1111,-1.1111,-1.1111,-1.1111,-1.1111,-1.1111,-1.1111,-1.1111,-1.1111,-1.1111,-1.1111,-1.1111,-1.1111,-1.1111,-1.1111,-1.1111,-1.1111,-1.1111,-1.0738,-1.0481,-1.0481,-0.9717,-0.9069,-0.8988,-0.8414,-0.8143,-0.8604,-0.7723,-0.7076,-0.6965,-0.6507,-0.6205,-0.6205,-0.5822,-0.5592,-0.5592,-0.521,-0.5018,-0.5018,-0.5018,-0.5018,-0.5018,-0.5018,-0.5018,-0.5018,-0.5018,-0.5018,-2.1122,-2.1045,-2.0791,-2.0458,-2.0292,-2.0147,-1.9824,-1.9784,0.0,0.0,-1.8101,-1.7415,-1.5718,0.0,0.0,0.0,0.0,0.0,0.0,0.0,0.0,0.0,0.0,0.0,0.0,-1.4234,0.0,-1.3368,-1.3137,-1.3009,-1.3009,-1.279,-1.2705,-1.2705,-1.2705,-1.2705,-1.2705,-1.265,-1.2487,-1.2228,-1.1922,-1.1657,-1.1405,-1.1405,-1.1285,-1.1123,-1.1303,-1.1279,-1.1111,-1.1111,-1.1111,-1.1111,-1.1111,-1.1111,-1.1111,-1.1111,-1.1111,-1.1111,-1.1111,-1.1111,-1.1111,-1.1111,-1.1111,-1.1111,-1.1111,-1.1111,-1.1111,-1.1111,-1.1111,-1.1111,-1.1111,-1.1111,-1.1111,-1.1111,-1.1111,-1.1037,-1.0887,-1.085,-1.0775,-1.0619,-1.0582,-1.0582,-1.0582,-1.0062,-0.9614,-0.9571,-0.8765,-0.8114,-0.7995,-0.6965,-0.6503,-0.7115,-0.658,-0.6125,-0.5973,-0.5362,-0.5018,-0.5018,-0.5018,-0.5018,-0.5018,-0.5018,-0.5018,-0.5018,-0.5018,-0.5018,-0.5018,-0.5018,-0.5018,-0.5018,-0.5018,-0.5018,-2.1288,-2.1494,-2.1588,-2.0776,-2.0265,-1.9824,-1.942,0.0,0.0,-1.8198,-1.7383,-1.6527,-1.5602,0.0,0.0,0.0,0.0,-1.5364,0.0,0.0,0.0,0.0,0.0,0.0,0.0,-1.3922,-1.3381,-1.3143,-1.2875,-1.2747,-1.2747,-1.2705,-1.2705,-1.2705,-1.2705,-1.2705,-1.2705,-1.2469,-1.2216,-1.1916,-1.1651,-1.1381,-1.1148,-1.1148,-1.1135,-1.1111,-1.1135,-1.1135,-1.1111,-1.1111,-1.1111,-1.1111,-1.1111,-1.1111,-1.1111,-1.1111,-1.1111,-1.1111,-1.1111,-1.1111,-1.1111,-1.1111,-1.1111,-1.1111,-1.1111,-1.1111,-1.1111,-1.1111,-1.1111,-1.1111,-1.1111,-1.1111,-1.1111,-1.1111,-1.1111,-1.0887,-1.018,-0.9992,-0.9803,-0.9079,-0.8927,-0.8927,-0.8927,-0.8856,-0.8737,-0.8571,-0.7846,-0.7161,-0.6734,-0.5931,-0.5359,-0.5285,-0.5168,-0.5132,-0.5093,-0.5054,-0.5018,-0.5018,-0.5018,-0.5018,-0.5018,-0.5018,-0.5018,-0.5018,-0.5018,-0.5018,-0.5018,-0.5018,-0.5018,-0.5018,-0.5018,-0.5018,-2.1602,-2.1625,-2.1479,-2.0761,-2.0323,-1.9925,-1.9436,0.0,-1.8287,-1.7391,-1.6535,-1.5636,-1.4783,-1.443,0.0,0.0,0.0,0.0,0.0,0.0,0.0,0.0,0.0,0.0,0.0,0.0,-1.3137,-1.2881,-1.2602,-1.2536,-1.2693,-1.2705,-1.2705,-1.2705,-1.2705,-1.2626,-1.2469,-1.2367,-1.206,-1.1645,-1.1543,-1.1345,-1.1111,-1.1111,-1.1111,-1.1111,-1.1111,-1.1111,-1.1111,-1.1111,-1.1111,-1.1111,-1.1111,-1.1111,-1.1111,-1.1111,-1.1111,-1.1111,-1.1111,-1.1111,-1.1111,-1.1111,-1.1111,-1.1111,-1.1111,-1.1111,-1.1111,-1.1111,-1.1111,-1.1111,-1.1111,-1.1111,-1.0962,-1.0475,-1.0368,-1.0175,-0.9349,-0.9198,-0.9079,-0.8775,-0.8703,-0.8703,-0.8703,-0.8284,-0.7897,-0.7698,-0.6861,-0.6131,-0.5819,-0.5398,-0.5093,-0.5018,-0.5018,-0.5018,-0.5018,-0.5018,-0.5018,-0.5018,-0.5018,-0.5018,-0.5018,-0.5018,-0.5018,-0.5018,-0.5018,-0.5018,-0.5018,-0.5018,-0.5018,-0.4979,-0.4501,-0.4265,-2.1641,-2.1613,-2.1374,-2.0904,-2.0404,-1.9938,0.0,-1.8696,-1.7755,-1.6862,-1.6008,-1.5151,-1.425,-1.4088,-1.4088,0.0,0.0,-1.4489,0.0,0.0,0.0,0.0,0.0,-1.4334,0.0,-1.333,-1.2881,-1.2705,-1.2457,-1.2397,-1.2578,-1.2518,-1.2506,-1.2584,-1.2512,-1.2385,-1.2198,-1.2079,-1.1856,-1.1495,-1.1411,-1.1266,-1.1111,-1.1111,-1.1111,-1.1111,-1.1111,-1.1111,-1.1111,-1.1111,-1.1111,-1.1111,-1.1111,-1.1111,-1.1111,-1.1111,-1.1111,-1.1111,-1.1111,-1.1111,-1.1074,-1.0812,-1.0738,-1.07,-1.047,-1.0732,-1.1111,-1.1111,-1.1111,-1.1037,-1.0812,-1.0738,-1.055,-0.9728,-0.9539,-0.9311,-0.8513,-0.836,-0.8284,-0.8016,-0.7978,-0.7978,-0.7978,-0.7442,-0.6942,-0.6745,-0.6018,-0.544,-0.5246,-0.5093,-0.5018,-0.5018,-0.5018,-0.5018,-0.5018,-0.5018,-0.5018,-0.5018,-0.5018,-0.5018,-0.5018,-0.505,-0.5067,-0.5067,-0.5102,-0.5121,-0.5121,-0.48,-0.4664,-0.4671,-0.3795,-0.3279,-2.1317,-2.1361,-2.1464,-2.1256,-2.0404,-1.9678,0.0,-1.8899,-1.7755,-1.6862,-1.6008,-1.5151,-1.425,-1.4088,-1.4088,-1.4088,0.0,0.0,-1.5008,0.0,0.0,0.0,0.0,-1.4167,-1.3837,-1.312,-1.2705,-1.2705,-1.2457,-1.2312,-1.2318,-1.203,-1.2047,-1.2312,-1.2065,-1.1926,-1.1886,-1.1627,-1.1501,-1.1489,-1.1212,-1.1111,-1.1111,-1.1111,-1.1111,-1.1111,-1.1111,-1.1111,-1.1111,-1.1111,-1.1111,-1.1111,-1.1111,-1.1111,-1.1111,-1.1111,-1.1111,-1.1111,-1.1111,-1.1111,-1.0962,-1.018,-0.9922,-0.9765,-0.8965,-0.983,-1.1111,-1.1111,-1.1111,-1.0925,-1.0105,-0.9922,-0.969,-0.8894,-0.8703,-0.8513,-0.7672,-0.7522,-0.7292,-0.6493,-0.6338,-0.6338,-0.6338,-0.6099,-0.5864,-0.5637,-0.544,-0.5243,-0.5015,-0.5018,-0.5018,-0.5018,-0.5018,-0.5018,-0.5018,-0.5018,-0.5018,-0.5018,-0.5018,-0.5018,-0.5018,-0.5124,-0.5184,-0.5184,-0.5344,-0.5407,-0.5407,-0.44,-0.3892,-0.3887,-0.2957,-0.2068,-2.1229,-2.1339,-2.1374,-2.0923,-2.0404,-1.9928,-1.9571,-1.8253,-1.7025,-1.678,-1.5519,-1.4419,-1.413,-1.4088,-1.4155,-1.4349,-1.4543,0.0,0.0,0.0,0.0,-1.4916,-1.4057,-1.3353,0.0,-1.2839,-1.2705,-1.2705,-1.2294,-1.2125,-1.23,-1.1163,-1.0992,-1.1988,-1.1922,-1.1796,-1.1621,-1.1537,-1.1399,-1.1244,-1.1154,-1.1111,-1.1111,-1.1111,-1.1111,-1.1074,-1.0513,-1.0588,-1.1074,-1.0519,-1.0293,-1.0293,-1.0293,-1.0293,-1.0218,-0.9647,-1.0169,-1.0925,-0.983,-0.9836,-1.0143,-0.9344,-0.9084,-0.9046,-0.878,-0.9041,-0.9453,-0.9453,-0.9453,-0.942,-0.9155,-0.9084,-0.8894,-0.8055,-0.7863,-0.7672,-0.6872,-0.6683,-0.6606,-0.6338,-0.6141,-0.6022,-0.6022,-0.5828,-0.5634,-0.544,-0.5359,-0.5243,-0.5015,-0.5018,-0.5018,-0.5018,-0.5086,-0.5102,-0.5023,-0.5018,-0.5018,-0.5018,-0.5018,-0.5018,-0.5018,-0.5127,-0.5186,-0.5186,-0.4641,-0.436,-0.436,-0.3397,-0.2674,-0.2118,-0.1827,-0.1205,0.0,-2.1128,-2.1185,-2.0714,-2.0292,-1.991,-1.9598,-1.8059,-1.6698,-1.6698,-1.5311,-1.4088,-1.4088,-1.4088,-1.4142,-1.4329,-1.4449,0.0,0.0,0.0,0.0,-1.4275,0.0,0.0,-1.2723,-1.2705,-1.2705,-1.2705,-1.1922,-1.1503,-1.17,-1.025,-0.9821,-1.0662,-1.0673,-1.0601,-1.0451,-1.0445,-1.0368,-1.0207,-1.0207,-1.0207,-1.0207,-1.0207,-1.0207,-1.0169,-0.9647,-0.9722,0.0,-0.9647,-0.9463,-0.9463,-0.9463,-0.9463,-0.9387,-0.8889,-0.9344,-1.0056,-0.9041,-0.9046,-0.9311,-0.8513,-0.8055,-0.7787,-0.7668,-0.8127,-0.8703,-0.8703,-0.8703,-0.8627,-0.8322,-0.8246,-0.8055,-0.7253,-0.7065,-0.6911,-0.6412,-0.63,-0.6261,-0.618,-0.6018,-0.5864,-0.5786,-0.5634,-0.5458,-0.5387,-0.5314,-0.5252,-0.5143,-0.5148,-0.5148,-0.5148,-0.5214,-0.5227,-0.5156,-0.5108,-0.5061,-0.5021,-0.5056,-0.492,-0.4565,-0.4704,-0.4614,-0.4283,-0.3783,-0.3526,-0.3526,-0.256,-0.1659,-0.0809,-0.0809,-0.0511,0.0,-2.0741,-2.0841,-2.0609,-2.0076,-1.9659,-1.9797,-1.8222,0.0,-1.6698,-1.5311,-1.4088,-1.4088,-1.4088,-1.4095,-1.4115,0.0,0.0,0.0,-1.4559,0.0,0.0,-1.3207,0.0,-1.2705,-1.2705,-1.2662,-1.2619,-1.1423,-1.0657,-1.0616,-0.9354,-0.8627,-0.8627,-0.8551,-0.8589,-0.8703,-0.8703,-0.8703,-0.8703,-0.8703,-0.8703,-0.8703,-0.8703,-0.8703,-0.8703,-0.8627,-0.8661,-0.8703,-0.8627,-0.8627,-0.8627,-0.8627,-0.8627,-0.8623,-0.8551,-0.8585,-0.8699,-0.8585,-0.8546,-0.847,-0.7676,-0.6911,-0.6219,-0.598,-0.713,-0.8508,-0.847,-0.847,-0.8322,-0.7595,-0.7407,-0.7215,-0.6451,-0.6261,-0.6261,-0.6261,-0.6261,-0.618,-0.5941,-0.586,-0.5786,-0.5598,-0.5401,-0.5325,-0.5454,-0.531,-0.523,-0.5396,-0.541,-0.541,-0.541,-0.5418,-0.5379,-0.5285,-0.5265,-0.5114,-0.493,-0.502,-0.467,-0.3736,-0.3898,-0.3599,-0.2732,-0.2747,-0.2777,-0.2688,-0.1758,-0.0871,0.0,0.0,0.0,-2.0605,0.0,-2.0556,-2.0172,-1.9938,-1.9773,0.0,-1.8025,-1.6698,0.0,0.0,0.0,0.0,0.0,0.0,0.0,0.0,0.0,-1.4891,0.0,0.0,-1.2985,-1.2826,-1.279,-1.2705,-1.2705,-1.2406,-1.1671,-1.1051,-1.0409,-0.9669,-0.8452,-0.7787,-0.7787,-0.7176,-0.7446,-0.8699,-0.8703,-0.8703,-0.8703,-0.8703,-0.8703,-0.8703,-0.8703,-0.8703,-0.8665,-0.8055,-0.8131,-0.8661,-0.8016,-0.7787,-0.7787,-0.7787,-0.7787,-0.771,-0.7099,-0.7633,-0.8508,-0.7292,-0.7253,-0.7633,-0.6834,-0.6331,-0.598,-0.5902,-0.6209,-0.6518,-0.6367,-0.644,-0.6514,-0.6325,-0.6447,-0.649,-0.6099,-0.598,-0.598,-0.598,-0.5867,-0.5792,-0.5864,-0.567,-0.5437,-0.5359,-0.5207,-0.5132,-0.525,-0.5227,-0.523,-0.5396,-0.541,-0.541,-0.541,-0.5453,-0.5129,-0.4325,-0.4924,-0.5023,-0.4212,-0.419,-0.3784,-0.283,-0.2949,-0.2905,-0.2689,-0.2084,-0.1391,-0.0673,-0.0447,-0.0223,0.0,0.0,0.0,-2.0605,-2.0674,-2.0632,-2.0315,-2.0146,-1.9866,-1.9133,0.0,0.0,0.0,0.0,0.0,0.0,0.0,0.0,0.0,-1.4169,0.0,0.0,0.0,-1.3314,-1.2753,-1.2705,-1.2705,-1.2705,-1.2705,-1.2314,-1.137,-1.059,-0.9756,-0.8814,-0.7592,-0.6949,-0.6949,-0.6528,-0.6721,-0.7599,-0.7599,-0.7599,-0.7599,-0.7599,-0.7599,-0.7599,-0.7599,-0.7599,-0.7557,-0.7138,-0.718,-0.7557,-0.7138,-0.6949,-0.6949,-0.6949,-0.6949,-0.6911,-0.6451,-0.6834,-0.7484,-0.6606,-0.6486,-0.6672,-0.6141,-0.587,-0.575,-0.567,-0.5631,-0.5631,-0.5598,-0.5673,-0.575,-0.575,-0.587,-0.5948,-0.5789,-0.575,-0.575,-0.575,-0.5673,-0.5598,-0.5631,-0.5487,-0.5371,-0.5289,-0.522,-0.5219,-0.5336,-0.5352,-0.5398,-0.5521,-0.5537,-0.5537,-0.5537,-0.5201,-0.4731,-0.4155,-0.4194,-0.3986,-0.3317,-0.3303,-0.2939,-0.2003,-0.2047,-0.1895,-0.1454,-0.0981,-0.0494,0.0,0.0,0.0,0.0,0.0,0.0,-2.0644,-2.0678,-2.0692,-2.051,-2.0236,-1.9725,-1.8759,0.0,0.0,0.0,0.0,0.0,0.0,0.0,0.0,0.0,0.0,0.0,-1.3511,-1.3284,-1.3061,-1.2741,-1.2577,-1.2491,-1.2491,-1.2357,-1.188,-1.0933,-0.9912,-0.8891,-0.7922,-0.6911,-0.6323,-0.63,-0.63,-0.63,-0.63,-0.63,-0.63,-0.63,-0.63,-0.63,-0.63,-0.63,-0.63,-0.63,-0.63,-0.63,-0.63,-0.63,-0.63,-0.63,-0.63,-0.63,-0.63,-0.63,-0.6261,-0.6219,-0.6222,-0.606,-0.5864,-0.5676,-0.5598,-0.5521,-0.5359,-0.5282,-0.5285,-0.5443,-0.5521,-0.5559,-0.5559,-0.5559,-0.5598,-0.5559,-0.5559,-0.5565,-0.5587,-0.5551,-0.5517,-0.5375,-0.5428,-0.5421,-0.5257,-0.5342,-0.5412,-0.5489,-0.5508,-0.5507,-0.5494,-0.5466,-0.5419,-0.5285,-0.4567,-0.403,-0.3851,-0.3135,-0.2515,-0.2125,-0.2374,-0.2093,-0.1135,-0.1155,-0.0808,0.0,0.0,0.0,0.0,0.0,0.0,0.0,0.0,0.0,-2.0796,-2.0397,-1.9895,-1.9968,-1.9569,-1.8939,0.0,0.0,0.0,0.0,0.0,0.0,0.0,0.0,0.0,0.0,0.0,-1.3987,0.0,0.0,-1.3266,-1.2765,-1.2015,-1.1499,-1.1499,-1.0794,-0.9923,-0.9021,-0.8644,-0.804,-0.695,-0.6613,-0.6422,-0.6303,-0.63,-0.63,-0.63,-0.63,-0.63,-0.63,-0.63,-0.63,-0.63,-0.63,-0.63,-0.63,-0.63,-0.63,-0.63,-0.63,-0.63,-0.63,-0.63,-0.63,-0.63,-0.63,-0.6141,-0.5941,-0.575,-0.5789,-0.5864,-0.5676,-0.5479,-0.5321,-0.5321,-0.5168,-0.5054,-0.5093,-0.5207,-0.5359,-0.5359,-0.5479,-0.5559,-0.5398,-0.5359,-0.5391,-0.5502,-0.5362,-0.5353,-0.5585,-0.5537,-0.5424,-0.5383,-0.5399,-0.5412,-0.5489,-0.5508,-0.5247,-0.4601,-0.4523,-0.421,-0.3403,-0.3181,-0.2777,-0.1928,-0.1704,-0.1253,-0.0445,-0.1159,-0.1161,-0.0223,-0.0224,-0.0135,0.0,0.0,0.0,0.0,0.0,0.0,0.0,0.0,0.0,-2.0554,-1.9951,-1.9276,-1.9308,-1.8918,-1.8304,-1.7334,0.0,0.0,0.0,0.0,0.0,0.0,0.0,-1.3774,-1.3851,0.0,-1.2906,-1.2755,-1.2164,-1.1575,-1.1224,-1.0794,-1.0534,-1.0534,-1.0144,-0.9492,-0.8588,-0.8326,-0.7761,-0.6747,-0.6521,-0.6368,-0.6303,-0.63,-0.63,-0.63,-0.63,-0.63,-0.63,-0.63,-0.63,-0.63,-0.63,-0.63,-0.63,-0.63,-0.63,-0.63,-0.63,-0.63,-0.63,-0.63,-0.63,-0.63,-0.6141,-0.5944,-0.5712,-0.5518,-0.5515,-0.5553,-0.5326,-0.521,-0.5129,-0.5129,-0.5054,-0.5018,-0.5018,-0.5054,-0.5129,-0.5129,-0.521,-0.5249,-0.5168,-0.5179,-0.528,-0.5336,-0.5322,-0.5344,-0.5527,-0.5507,-0.5297,-0.4782,-0.4744,-0.4624,-0.4184,-0.4102,-0.3942,-0.3578,-0.3537,-0.336,-0.2957,-0.2419,-0.1883,-0.1436,-0.0942,-0.0449,-0.0045,-0.0404,-0.0449,0.0,0.0,0.0,0.0,0.0,0.0,0.0,0.0,0.0,0.0,0.0,0.0,-2.0196,-1.9312,-1.8384,-1.8319,0.0,-1.7447,-1.6507,0.0,0.0,0.0,0.0,0.0,0.0,-1.3698,0.0,-1.3508,-1.2702,-1.1953,-1.1798,-1.087,-1.0124,-0.9946,-0.9705,-0.9575,-0.9575,-0.9357,-0.8952,-0.8182,-0.7927,-0.7496,-0.6692,-0.6474,-0.6334,-0.6303,-0.63,-0.63,-0.63,-0.63,-0.63,-0.63,-0.63,-0.63,-0.63,-0.63,-0.63,-0.63,-0.63,-0.63,-0.63,-0.63,-0.63,-0.63,-0.63,-0.6261,-0.618,-0.5906,-0.575,-0.5559,-0.5323,-0.5243,-0.5282,-0.5054,-0.5018,-0.5018,-0.5018,-0.5034,-0.5056,-0.5056,-0.5078,-0.5094,-0.5064,-0.5078,-0.5099,-0.5099,-0.5167,-0.5238,-0.5265,-0.5344,-0.5378,-0.5194,-0.5183,-0.4937,-0.3976,-0.3897,-0.3717,-0.3001,-0.2911,-0.2823,-0.2598,-0.2553,-0.2465,-0.2241,-0.1524,-0.1077,-0.1077,-0.0404,0.0,0.0,0.0,0.0,0.0,0.0,0.0,0.0,0.0,0.0,0.0,0.0,0.0,0.0,0.0,0.0,-1.9886,-1.8456,-1.6919,-1.6853,0.0,0.0,-1.5964,0.0,0.0,0.0,0.0,0.0,0.0,-1.3872,-1.3531,-1.2565,-1.2424,-1.2051,-1.0857,-1.0467,-1.0213,-0.9946,-0.9148,-0.8584,-0.8584,-0.7797,-0.7216,-0.7039,-0.7008,-0.6828,-0.6545,-0.6508,-0.6436,-0.6303,-0.63,-0.63,-0.63,-0.63,-0.63,-0.63,-0.63,-0.63,-0.63,-0.63,-0.63,-0.63,-0.63,-0.63,-0.63,-0.63,-0.63,-0.63,-0.63,-0.6141,-0.5902,-0.5712,-0.5598,-0.5559,-0.5171,-0.5129,-0.5282,-0.5054,-0.5018,-0.5018,-0.5018,-0.5091,-0.5173,-0.5173,-0.5257,-0.5358,-0.5203,-0.5257,-0.5385,-0.5385,-0.5391,-0.5388,-0.5456,-0.5489,-0.5264,-0.453,-0.4374,-0.4109,-0.3129,-0.2998,-0.2956,-0.2911,-0.2911,-0.2553,-0.1614,-0.1524,-0.1166,-0.0314,-0.0135,-0.009,-0.009,-0.0045,0.0,0.0,0.0,0.0,0.0,0.0,0.0,0.0,0.0,0.0,0.0,0.0,0.0,0.0,0.0,0.0,-1.8793,-1.7519,-1.6307,-1.5954,0.0,0.0,0.0,0.0,0.0,0.0,0.0,0.0,0.0,0.0,-1.2674,-1.2361,-1.1276,-1.0277,-0.9782,-0.9013,-0.8429,-0.8208,-0.7837,-0.7625,-0.7625,-0.7316,-0.7038,-0.6896,-0.6841,-0.6695,-0.6521,-0.6429,-0.6354,-0.6303,-0.63,-0.63,-0.63,-0.63,-0.63,-0.63,-0.63,-0.63,-0.63,-0.63,-0.63,-0.63,-0.63,-0.63,-0.63,-0.63,-0.63,-0.63,-0.6099,-0.5828,-0.5515,-0.5437,-0.5326,-0.5221,-0.5136,-0.5161,-0.5238,-0.5161,-0.5124,-0.5108,-0.5037,-0.5097,-0.5186,-0.5186,-0.533,-0.5455,-0.533,-0.5375,-0.541,-0.541,-0.5426,-0.5323,-0.476,-0.469,-0.448,-0.3623,-0.3448,-0.3135,-0.2152,-0.1973,-0.1749,-0.1166,-0.1077,-0.0942,-0.0584,-0.0539,-0.0404,-0.0045,0.0,0.0,0.0,0.0,0.0,0.0,0.0,0.0,0.0,0.0,0.0,0.0,0.0,0.0,0.0,0.0,0.0,0.0,0.0,0.009,-1.7864,-1.6684,-1.5606,0.0,0.0,0.0,0.0,0.0,0.0,0.0,0.0,0.0,0.0,0.0,0.0,0.0,-1.005,-0.906,-0.8683,-0.7847,-0.7258,-0.7109,-0.7095,-0.7095,-0.7095,-0.7095,-0.7018,-0.6871,-0.6759,-0.6614,-0.6457,-0.6354,-0.63,-0.63,-0.63,-0.63,-0.63,-0.63,-0.63,-0.63,-0.63,-0.63,-0.63,-0.63,-0.63,-0.63,-0.63,-0.63,-0.63,-0.6219,-0.6141,-0.6064,-0.5867,-0.5592,-0.5282,-0.5282,-0.519,-0.5083,-0.5159,-0.5211,-0.5243,-0.5243,-0.5243,-0.523,-0.5151,-0.5211,-0.5301,-0.5301,-0.5408,-0.5545,-0.5507,-0.5485,-0.5485,-0.5485,-0.5287,-0.4949,-0.4293,-0.399,-0.3583,-0.2598,-0.2419,-0.2107,-0.1122,-0.0942,-0.0718,-0.009,0.0,0.0,0.0,0.0,0.0,0.0,0.0,0.0,0.0,0.0,0.0,0.0,0.0,0.0,0.0,0.0,0.0,0.0,0.0,0.0,0.0,0.0,0.0,0.0,0.0,0.009,-1.7235,-1.5951,-1.4717,0.0,0.0,0.0,0.0,0.0,0.0,0.0,0.0,0.0,0.0,0.0,0.0,-0.9179,-0.9,-0.8783,-0.7573,-0.7238,-0.7095,-0.7095,-0.7095,-0.7095,-0.7095,-0.7095,-0.6974,-0.6725,-0.6702,-0.6573,-0.6317,-0.63,-0.63,-0.63,-0.63,-0.63,-0.63,-0.63,-0.63,-0.63,-0.63,-0.63,-0.63,-0.63,-0.63,-0.63,-0.63,-0.63,-0.6261,-0.6018,-0.5789,-0.5598,-0.5598,-0.5479,-0.5282,-0.5282,-0.5244,-0.5186,-0.5189,-0.5312,-0.5413,-0.5413,-0.5413,-0.5413,-0.541,-0.5455,-0.5508,-0.5508,-0.5594,-0.5688,-0.5688,-0.5688,-0.5688,-0.5688,-0.4971,-0.43,-0.4253,-0.3537,-0.2598,-0.1569,-0.1391,-0.1077,-0.018,0.0,0.0,0.0,0.0,0.0,0.0,0.0,0.0,0.0,0.0,0.0,0.0,0.0,0.0,0.0,0.0,0.0,0.0,0.0,0.0,0.0,0.0,0.0,0.0,0.0,0.0,0.0,0.0,0.0,-1.6138,-1.5126,0.0,0.0,0.0,0.0,0.0,0.0,0.0,0.0,0.0,-1.2695,-1.2291,-1.0898,0.0,-0.9033,-0.8238,-0.7656,-0.7409,-0.7238,-0.7095,-0.7095,-0.7095,-0.7095,-0.7095,-0.7095,-0.7018,-0.6875,-0.6763,-0.6617,-0.646,-0.6354,-0.63,-0.63,-0.63,-0.63,-0.63,-0.63,-0.63,-0.63,-0.63,-0.63,-0.63,-0.63,-0.618,-0.6022,-0.6219,-0.6106,-0.5792,-0.5715,-0.5556,-0.5398,-0.5398,-0.5285,-0.5101,-0.5184,-0.5236,-0.5211,-0.5382,-0.5424,-0.5454,-0.5454,-0.5454,-0.548,-0.5396,-0.5455,-0.5508,-0.5508,-0.511,-0.4701,-0.4701,-0.421,-0.3896,-0.4567,-0.3985,-0.3135,-0.2419,-0.2062,-0.1569,-0.0584,-0.0404,-0.0314,-0.0045,0.0,0.0,0.0,0.0,0.0,0.0,0.0,0.0,0.0,0.0,0.0,0.0,0.0,0.0,0.0,0.0,0.0,0.0,0.0,0.0,0.0,0.0,0.0,0.0,0.0,0.0,0.0,0.0,0.018,-1.5342,0.0,0.0,0.0,0.0,0.0,0.0,0.0,0.0,0.0,0.0,-1.2047,-1.1285,-0.9888,-0.8784,-0.8413,-0.7709,-0.7244,-0.7275,-0.7156,-0.7095,-0.7095,-0.7095,-0.7095,-0.7095,-0.7095,-0.7038,-0.6896,-0.6787,-0.6634,-0.6521,-0.6378,-0.63,-0.63,-0.63,-0.63,-0.63,-0.63,-0.63,-0.63,-0.63,-0.63,-0.63,-0.618,-0.6099,-0.606,-0.6099,-0.5906,-0.5479,-0.5479,-0.5362,-0.5168,-0.5168,-0.509,-0.5031,-0.5143,-0.5216,-0.5287,-0.544,-0.554,-0.558,-0.558,-0.558,-0.5567,-0.5537,-0.5564,-0.549,-0.5138,-0.4654,-0.421,-0.3851,-0.3045,-0.2553,-0.3494,-0.3001,-0.2152,-0.1524,-0.1122,-0.0673,-0.009,0.0,0.0,0.0,0.0,0.0,0.0,0.0,0.0,0.0,0.0,0.0,0.0,0.0,0.0,0.0,0.0,0.0,0.0,0.0,0.0,0.0,0.0,0.0,0.0,0.0,0.0,0.0,0.0,0.0,0.0,0.009,0.0314,-1.4798,0.0,0.0,0.0,0.0,0.0,0.0,0.0,0.0,-1.2839,0.0,-1.1642,-0.9766,-0.9099,-0.8556,-0.7576,-0.7405,-0.7299,-0.7115,-0.7095,-0.7095,-0.7095,-0.7095,-0.7095,-0.7095,-0.7095,-0.7045,-0.6913,-0.6807,-0.6654,-0.6542,-0.6399,-0.6313,-0.63,-0.63,-0.63,-0.63,-0.63,-0.63,-0.63,-0.63,-0.63,-0.63,-0.606,-0.606,-0.6261,-0.5941,-0.5631,-0.5282,-0.5282,-0.5168,-0.5018,-0.5018,-0.5018,-0.5031,-0.5156,-0.5314,-0.5429,-0.5478,-0.5597,-0.5688,-0.5688,-0.5688,-0.5688,-0.5688,-0.5644,-0.5374,-0.4523,-0.4164,-0.3851,-0.3001,-0.2017,-0.1524,-0.2419,-0.1928,-0.1256,-0.1256,-0.0584,0.0,0.0,0.0,0.0,0.0,0.0,0.0,0.0,0.0,0.0,0.0,0.0,0.0,0.0,0.0,0.0,0.0,0.0,0.0,0.0,0.0,0.0,0.0,0.0,0.0,0.0,0.0,0.0,0.0,0.0,0.0,0.0,0.0269,0.0403,0.0,-1.3751,0.0,0.0,0.0,0.0,0.0,0.0,0.0,-1.242,-1.1889,-1.1003,-0.9648,-0.8587,-0.778,-0.7439,-0.7272,-0.7132,-0.7102,-0.7095,-0.7095,-0.7095,-0.7095,-0.7095,-0.7095,-0.7095,-0.7085,-0.7051,-0.6916,-0.6814,-0.6661,-0.6549,-0.6416,-0.6303,-0.63,-0.63,-0.63,-0.63,-0.63,-0.63,-0.63,-0.63,-0.63,-0.6257,-0.6141,-0.5944,-0.544,-0.5246,-0.5282,-0.5132,-0.5054,-0.5018,-0.5018,-0.5018,-0.5042,-0.5252,-0.5388,-0.5443,-0.5619,-0.5667,-0.5688,-0.5688,-0.5688,-0.5688,-0.5688,-0.5196,-0.4567,-0.4344,-0.3181,-0.1973,-0.1793,-0.1032,-0.0359,-0.0584,-0.0449,-0.0314,-0.0314,-0.0135,0.0,0.0,0.0,0.0,0.0,0.0,0.0,0.0,0.0,0.0,0.0,0.0,0.0,0.0,0.0,0.0,0.0,0.0,0.0,0.0,0.0,0.0,0.0,0.0,0.0,0.0,0.0,0.0,0.0,0.0,0.0,0.0,0.0269,0.0493,0.0,0.0,0.0,0.0,0.0,0.0,0.0,0.0,-1.1116,-1.0721,-1.0402,-0.9897,-0.876,-0.7868,-0.7283,-0.7204,-0.6972,-0.6786,-0.6786,-0.6786,-0.6786,-0.6786,-0.6786,-0.683,-0.6922,-0.6966,-0.701,-0.7095,-0.6964,-0.6852,-0.6814,-0.6664,-0.6549,-0.6515,-0.6439,-0.6402,-0.6402,-0.6334,-0.63,-0.63,-0.63,-0.6219,-0.6099,-0.6099,-0.5867,-0.544,-0.5246,-0.5129,-0.5129,-0.5054,-0.5018,-0.5023,-0.5075,-0.5097,-0.5127,-0.5366,-0.5455,-0.5483,-0.5626,-0.5688,-0.568,-0.5621,-0.5331,-0.5006,-0.4953,-0.4307,-0.3537,-0.3045,-0.2196,-0.1301,-0.0853,-0.0359,0.0,0.0,0.0,0.0,0.0,0.0,0.0,0.0,0.0,0.0,0.0,0.0,0.0,0.0,0.0,0.0,0.0,0.0,0.0,0.0,0.0,0.0,0.0,0.0,0.0,0.0,0.0,0.0,0.0,0.0,0.0,0.0,0.0,0.0,0.0,0.0,0.0045,0.018,0.0448,0.0673,0.0,0.0,0.0,0.0,0.0,0.0,0.0,0.0,-0.9795,-0.8767,-0.8908,-0.8843,-0.7704,-0.7231,-0.6956,-0.6885,-0.6598,-0.6384,-0.6384,-0.6384,-0.6384,-0.6384,-0.641,-0.6539,-0.6792,-0.6817,-0.6889,-0.7061,-0.6953,-0.6873,-0.6849,-0.6746,-0.6671,-0.6702,-0.6529,-0.6487,-0.6511,-0.6371,-0.63,-0.63,-0.6261,-0.6064,-0.5786,-0.5786,-0.5518,-0.5054,-0.5207,-0.5168,-0.5018,-0.5018,-0.5029,-0.5056,-0.5148,-0.52,-0.5246,-0.5427,-0.5508,-0.5524,-0.5648,-0.5688,-0.5672,-0.5395,-0.4856,-0.4241,-0.3989,-0.3312,-0.2465,-0.1614,-0.1301,-0.0987,-0.018,0.0,0.0,0.0,0.0,0.0,0.0,0.0,0.0,0.0,0.0,0.0,0.0,0.0,0.0,0.0,0.0,0.0,0.0,0.0,0.0,0.0,0.0,0.0,0.0,0.0,0.0,0.0,0.0,0.0,0.0,0.0,0.0,0.0,0.0,0.0,0.0,0.0,0.0135,0.0403,0.063,0.0856,0.0,0.0,0.0,0.0,0.0,0.0,0.0,0.0,-0.8856,0.0,-0.8456,-0.8757,-0.7336,-0.7024,-0.6875,-0.6525,-0.6444,-0.6384,-0.6384,-0.6384,-0.6384,-0.6384,-0.6502,-0.6653,-0.6782,-0.686,-0.6913,-0.6913,-0.6896,-0.6829,-0.6736,-0.6586,-0.6563,-0.6698,-0.6474,-0.6385,-0.6511,-0.6371,-0.63,-0.63,-0.606,-0.5747,-0.5398,-0.5398,-0.5321,-0.5243,-0.5093,-0.5015,-0.5018,-0.5018,-0.5075,-0.5165,-0.5181,-0.5252,-0.5405,-0.5456,-0.5508,-0.5524,-0.5648,-0.5688,-0.5552,-0.473,-0.4378,-0.4162,-0.3303,-0.237,-0.1569,-0.1436,-0.0808,-0.018,-0.0045,0.0,0.0,0.0,0.0,0.0,0.0,0.0,0.0,0.0,0.0,0.0,0.0,0.0,0.0,0.0,0.0,0.0,0.0,0.0,0.0,0.0,0.0,0.0,0.0,0.0,0.0,0.0,0.0,0.0,0.0,0.0,0.0,0.0,0.0,0.0,0.0,0.0,0.0135,0.0404,0.0685,0.0922,-1.2596,0.0,0.0,0.0,0.0,0.0,0.0,0.0,-0.8059,-0.7495,-0.7696,-0.7742,-0.7005,-0.6664,-0.6418,-0.6266,-0.6127,-0.5994,-0.5994,-0.5994,-0.5994,-0.5994,-0.6014,-0.6131,-0.6452,-0.6419,-0.6505,-0.6758,-0.68,-0.681,-0.6827,-0.6681,-0.6671,-0.6824,-0.6536,-0.645,-0.6511,-0.6371,-0.63,-0.63,-0.5909,-0.5634,-0.5479,-0.5246,-0.5132,-0.5132,-0.5054,-0.5018,-0.5018,-0.5018,-0.5048,-0.5105,-0.5238,-0.5364,-0.5435,-0.554,-0.561,-0.5615,-0.5672,-0.5374,-0.4828,-0.4326,-0.3503,-0.2593,-0.2121,-0.1333,-0.0629,-0.0629,-0.0314,0.0,0.0,0.0,0.0,0.0,0.0,0.0,0.0,0.0,0.0,0.0,0.0,0.0,0.0,0.0,0.0,0.0,0.0,0.0,0.0,0.0,0.0,0.0,0.0,0.0,0.0,0.0,0.0,0.0,0.0,0.0,0.0,0.0,0.0,0.0,0.0,0.0,0.0,0.0,0.0135,0.0404,0.0504,0.0694,0.0,0.0,0.0,0.0,0.0,0.0,0.0,0.0,-0.7621,-0.7423,-0.7207,-0.6968,-0.6703,-0.6373,-0.6083,-0.5994,-0.5822,-0.5688,-0.5688,-0.5688,-0.5688,-0.5688,-0.5624,-0.572,-0.6107,-0.6114,-0.6229,-0.6565,-0.6603,-0.6692,-0.6807,-0.6671,-0.6675,-0.6822,-0.6576,-0.6474,-0.6511,-0.6371,-0.6222,-0.6106,-0.5754,-0.5559,-0.5443,-0.5135,-0.5018,-0.5018,-0.5018,-0.5018,-0.5021,-0.5048,-0.5078,-0.5127,-0.5336,-0.5434,-0.5485,-0.5667,-0.5688,-0.5644,-0.5419,-0.4882,-0.4198,-0.3603,-0.2521,-0.1341,-0.1057,-0.0532,0.0,0.0,0.0,0.0,0.0,0.0,0.0,0.0,0.0,0.0,0.0,0.0,0.0,0.0,0.0,0.0,0.0,0.0,0.0,0.0,0.0,0.0,0.0,0.0,0.0,0.0,0.0,0.0,0.0,0.0,0.0,0.0,0.0,0.0,0.0,0.0,0.0,0.0,0.0,0.0,0.0,0.0,0.0137,0.041,0.0419,0.0564,0.0,0.0,0.0,0.0,0.0,0.0,0.0,0.0,-0.7875,-0.7485,-0.726,-0.6936,-0.6406,-0.6211,-0.5997,-0.5777,-0.5688,-0.5688,-0.5688,-0.5688,-0.5688,-0.5688,-0.5796,-0.5889,-0.5932,-0.6159,-0.6277,-0.622,-0.6404,-0.6528,-0.6535,-0.6402,-0.6457,-0.6705,-0.6467,-0.6375,-0.6511,-0.6371,-0.6067,-0.5637,-0.5598,-0.5404,-0.5015,-0.5018,-0.5018,-0.5018,-0.5018,-0.5018,-0.5026,-0.5132,-0.5246,-0.5405,-0.5448,-0.557,-0.5672,-0.5686,-0.5688,-0.5555,-0.4701,-0.4344,-0.3985,-0.2149,-0.1479,-0.1211,-0.0359,-0.0045,0.0,0.0,0.0,0.0,0.0,0.0,0.0,0.0,0.0,0.0,0.0,0.0,0.0,0.0,0.0,0.0,0.0,0.0,0.0,0.0,0.0,0.0,0.0,0.0,0.0,0.0,0.0,0.0,0.0,0.0,0.0,0.0,0.0,0.0,0.0,0.0,0.0,0.0,0.0,0.0,0.0,0.0,0.0143,0.038,0.0388,0.0685,0.0,0.0,0.0,0.0,-0.8364,-0.7638,-0.778,-0.788,-0.7898,-0.7459,-0.723,-0.6954,-0.6415,-0.6099,-0.5907,-0.5746,-0.5688,-0.5688,-0.5688,-0.5688,-0.5688,-0.5688,-0.5668,-0.572,-0.5889,-0.5951,-0.6006,-0.612,-0.6271,-0.6416,-0.6508,-0.6378,-0.6388,-0.6549,-0.6402,-0.6323,-0.6375,-0.6165,-0.5944,-0.5789,-0.5518,-0.5323,-0.5207,-0.5054,-0.5018,-0.5018,-0.5018,-0.5018,-0.5026,-0.514,-0.5211,-0.5271,-0.5429,-0.5534,-0.558,-0.5659,-0.5329,-0.4748,-0.4433,-0.3494,-0.2331,-0.1614,-0.0987,-0.0449,-0.009,0.0,0.0,0.0,0.0,0.0,0.0,0.0,0.0,0.0,0.0,0.0,0.0,0.0,0.0,0.0,0.0,0.0,0.0,0.0,0.0,0.0,0.0,0.0,0.0,0.0,0.0,0.0,0.0,0.0,0.0,0.0,0.0,0.0,0.0,0.0,0.0,0.0,0.0,0.0,0.0,0.0,0.0,0.0,0.0048,0.0143,0.0146,0.0245,-1.1366,0.0,0.0,0.0,0.0,-0.7509,-0.7753,-0.7889,-0.7851,-0.7511,-0.7302,-0.6988,-0.6535,-0.618,-0.5915,-0.5715,-0.5688,-0.5688,-0.5688,-0.5688,-0.5688,-0.5688,-0.5618,-0.5638,-0.5766,-0.5782,-0.5841,-0.5996,-0.6103,-0.6259,-0.6436,-0.6351,-0.634,-0.6436,-0.6351,-0.6261,-0.618,-0.598,-0.5822,-0.5705,-0.5437,-0.5282,-0.5207,-0.5054,-0.5018,-0.5018,-0.5018,-0.5018,-0.5026,-0.514,-0.5211,-0.5268,-0.5429,-0.5532,-0.5534,-0.5302,-0.4837,-0.421,-0.3539,-0.2465,-0.1345,-0.1032,-0.0494,0.0,0.0,0.0,0.0,0.0,0.0,0.0,0.0,0.0,0.0,0.0,0.0,0.0,0.0,0.0,0.0,0.0,0.0,0.0,0.0,0.0,0.0,0.0,0.0,0.0,0.0,0.0,0.0,0.0,0.0,0.0,0.0,0.0,0.0,0.0,0.0,0.0,0.0,0.0,0.0,0.0,0.0,0.0,0.0,0.0,0.0,0.0,0.0,0.005,0.0,0.0,0.0,0.0,0.0,0.0,-0.7692,-0.7797,-0.7751,-0.7611,-0.7385,-0.7093,-0.6772,-0.6359,-0.6015,-0.5737,-0.5694,-0.5688,-0.5688,-0.5688,-0.5688,-0.5688,-0.5688,-0.5642,-0.5524,-0.5619,-0.5744,-0.5811,-0.5871,-0.6028,-0.6268,-0.63,-0.63,-0.63,-0.63,-0.618,-0.5902,-0.5899,-0.5709,-0.5282,-0.5282,-0.5207,-0.5018,-0.5018,-0.5018,-0.5018,-0.5018,-0.5018,-0.5026,-0.514,-0.5298,-0.5424,-0.5459,-0.558,-0.5555,-0.4656,-0.4253,-0.3941,-0.2061,-0.1391,-0.1211,-0.0314,0.0,0.0,0.0,0.0,0.0,0.0,0.0,0.0,0.0,0.0,0.0,0.0,0.0,0.0,0.0,0.0,0.0,0.0,0.0,0.0,0.0,0.0,0.0,0.0,0.0,0.0,0.0,0.0,0.0,0.0,0.0,0.0,0.0,0.0,0.0,0.0,0.0,0.0,0.0,0.0,0.0,0.0,0.0,0.0,0.0,0.0,0.0,0.0,0.0,0.0152,-1.1077,0.0,0.0,0.0,0.0,0.0,-0.7253,-0.7499,-0.7604,-0.7459,-0.7391,-0.7232,-0.6803,-0.6623,-0.6404,-0.6059,-0.5844,-0.5688,-0.5688,-0.5688,-0.5688,-0.5688,-0.5688,-0.5677,-0.5642,-0.5918,-0.5996,-0.587,-0.615,-0.6294,-0.6179,-0.624,-0.63,-0.63,-0.63,-0.618,-0.5902,-0.575,-0.5556,-0.5282,-0.5168,-0.5054,-0.5018,-0.5018,-0.5018,-0.5018,-0.5018,-0.5018,-0.5026,-0.514,-0.5298,-0.5424,-0.5459,-0.5185,-0.4656,-0.4389,-0.3403,-0.2107,-0.1569,-0.0942,-0.0359,-0.009,0.0,0.0,0.0,0.0,0.0,0.0,0.0,0.0,0.0,0.0,0.0,0.0,0.0,0.0,0.0,0.0,0.0,0.0,0.0,0.0,0.0,0.0,0.0,0.0,0.0,0.0,0.0,0.0,0.0,0.0,0.0,0.0,0.0,0.0,0.0,0.0,0.0,0.0,0.0,0.0,0.0,0.0,0.0,0.0,0.0,0.0,0.0,0.0,0.0,0.0051,0.0,0.0,0.0,0.0,0.0,0.0,-0.7224,-0.7326,-0.7422,-0.7492,-0.7388,-0.726,-0.703,-0.6849,-0.6661,-0.6401,-0.6284,-0.6091,-0.5812,-0.5803,-0.5742,-0.5694,-0.5777,-0.5863,-0.5863,-0.6101,-0.6239,-0.619,-0.6315,-0.6331,-0.6192,-0.6269,-0.63,-0.63,-0.618,-0.6022,-0.5789,-0.5556,-0.5362,-0.5168,-0.5054,-0.5018,-0.5018,-0.5018,-0.5018,-0.5018,-0.5018,-0.5018,-0.5023,-0.5089,-0.5186,-0.5344,-0.5428,-0.4942,-0.4158,-0.3838,-0.2732,-0.1345,-0.0942,-0.0449,0.0,0.0,0.0,0.0,0.0,0.0,0.0,0.0,0.0,0.0,0.0,0.0,0.0,0.0,0.0,0.0,0.0,0.0,0.0,0.0,0.0,0.0,0.0,0.0,0.0,0.0,0.0,0.0,0.0,0.0,0.0,0.0,0.0,0.0,0.0,0.0,0.0,0.0,0.0,0.0,0.0,0.0,0.0,0.0,0.0,0.0,0.0,0.0,0.0,0.0,0.0,0.0,-1.1706,-1.085,0.0,0.0,-0.844,0.0,-0.7455,-0.7235,-0.7152,-0.7489,-0.7369,-0.7234,-0.7379,-0.7063,-0.683,-0.671,-0.6837,-0.6676,-0.6078,-0.6015,-0.5976,-0.5829,-0.6037,-0.6165,-0.615,-0.6311,-0.6445,-0.6536,-0.6318,-0.6218,-0.6268,-0.6261,-0.6261,-0.6261,-0.6022,-0.5789,-0.5598,-0.5401,-0.5207,-0.5018,-0.5018,-0.5018,-0.5018,-0.5018,-0.5018,-0.5018,-0.5018,-0.5018,-0.5018,-0.5018,-0.5083,-0.52,-0.5237,-0.4718,-0.3824,-0.3022,-0.2107,-0.1122,-0.0269,0.0,0.0,0.0,0.0,0.0,0.0,0.0,0.0,0.0,0.0,0.0,0.0,0.0,0.0,0.0,0.0,0.0,0.0,0.0,0.0,0.0,0.0,0.0,0.0,0.0,0.0,0.0,0.0,0.0,0.0,0.0,0.0,0.0,0.0,0.0,0.0,0.0,0.0,0.0,0.0,0.0,0.0,0.0,0.0,0.0,0.0,0.0,0.0,0.0,0.0,0.0,0.0,0.0,-1.1744,-1.095,-1.0073,-0.98,0.0,0.0,-0.763,-0.7273,-0.6974,-0.7149,-0.7284,-0.732,-0.7274,-0.7187,-0.7036,-0.6827,-0.6903,-0.6861,-0.6441,-0.6567,-0.6701,-0.6674,-0.6718,-0.6722,-0.6609,-0.6759,-0.6697,-0.6297,-0.6195,-0.6093,-0.599,-0.598,-0.598,-0.598,-0.5789,-0.5637,-0.5598,-0.5401,-0.5207,-0.5018,-0.5018,-0.5018,-0.5018,-0.5018,-0.5018,-0.5018,-0.5018,-0.5018,-0.5018,-0.5018,-0.5083,-0.5117,-0.4447,-0.3698,-0.287,-0.2001,-0.1077,-0.0225,-0.0045,0.0,0.0,0.0,0.0,0.0,0.0,0.0,0.0,0.0,0.0,0.0,0.0,0.0,0.0,0.0,0.0,0.0,0.0,0.0,0.0,0.0,0.0,0.0,0.0,0.0,0.0,0.0,0.0,0.0,0.0,0.0,0.0,0.0,0.0,0.0,0.0,0.0,0.0,0.0,0.0,0.0,0.0,0.0,0.0,0.0,0.0,0.0,0.0,0.0,0.0,0.0,0.0,0.0,-1.1892,-1.1329,-1.0689,-1.018,0.0,0.0,0.0,-0.7193,-0.6742,-0.6892,-0.6983,-0.7038,-0.7052,-0.7033,-0.7037,-0.6907,-0.7139,-0.7206,-0.6891,-0.694,-0.6962,-0.6897,-0.6982,-0.7001,-0.6975,-0.7093,-0.7027,-0.6562,-0.6469,-0.6361,-0.6212,-0.6139,-0.6022,-0.5902,-0.5712,-0.5559,-0.544,-0.5246,-0.5093,-0.5018,-0.5018,-0.5018,-0.5018,-0.5018,-0.5018,-0.5018,-0.5018,-0.5018,-0.5018,-0.5018,-0.4804,-0.4465,-0.4072,-0.3125,-0.1972,-0.1551,-0.0808,0.0,0.0,0.0,0.0,0.0,0.0,0.0,0.0,0.0,0.0,0.0,0.0,0.0,0.0,0.0,0.0,0.0,0.0,0.0,0.0,0.0,0.0,0.0,0.0,0.0,0.0,0.0,0.0,0.0,0.0,0.0,0.0,0.0,0.0,0.0,0.0,0.0,0.0,0.0,0.0,0.0,0.0,0.0,0.0,0.0,0.0,0.0,0.0,0.0,0.0,0.0,0.0,0.0,0.0,0.0,0.0,-1.1833,-1.1384,0.0,0.0,-0.8746,0.0,0.0,0.0,-0.6672,-0.6678,-0.6739,-0.6861,-0.6842,-0.6887,-0.6975,-0.7276,-0.7426,-0.7263,-0.72,-0.7161,-0.708,-0.7231,-0.7333,-0.7304,-0.7356,-0.7241,-0.7031,-0.6793,-0.6617,-0.6478,-0.6274,-0.6064,-0.5864,-0.5595,-0.544,-0.5321,-0.5093,-0.5018,-0.5018,-0.5018,-0.5018,-0.5018,-0.5018,-0.5018,-0.5018,-0.5018,-0.5018,-0.4979,-0.482,-0.4286,-0.3574,-0.3615,-0.2692,-0.1275,-0.1194,-0.0628,0.0,0.0,0.0,0.0,0.0,0.0,0.0,0.0,0.0,0.0,0.0,0.0,0.0,0.0,0.0,0.0,0.0,0.0,0.0,0.0,0.0,0.0,0.0,0.0,0.0,0.0,0.0,0.0,0.0,0.0,0.0,0.0,0.0,0.0,0.0,0.0,0.0,0.0,0.0,0.0,0.0,0.0,0.0,0.0,0.0,0.0,0.0,0.0,0.0,0.0,0.0,0.0,0.0,0.0,0.0,0.0,0.0,0.0,0.0,-1.0728,-0.9544,0.0,0.0,-0.7386,-0.6652,0.0,-0.6705,-0.6722,0.0,0.0,-0.691,-0.7055,-0.7196,-0.7377,-0.7479,-0.757,-0.7677,-0.7808,-0.7884,-0.7752,-0.7365,-0.721,-0.7312,-0.6852,-0.6505,-0.6414,-0.5931,-0.5676,-0.5637,-0.5249,-0.5132,-0.5282,-0.5093,-0.5018,-0.5018,-0.5018,-0.5018,-0.5018,-0.5018,-0.5018,-0.5018,-0.5018,-0.5018,-0.4937,-0.4226,-0.341,-0.264,-0.2661,-0.2082,-0.1216,-0.0445,-0.009,0.0,0.0,0.0,0.0,0.0,0.0,0.0,0.0,0.0,0.0,0.0,0.0,0.0,0.0,0.0,0.0,0.0,0.0,0.0,0.0,0.0,0.0,0.0,0.0,0.0,0.0,0.0,0.0,0.0,0.0,0.0,0.0,0.0,0.0,0.0,0.0,0.0,0.0,0.0,0.0,0.0,0.0,0.0,0.0,0.0,0.0,0.0,0.0,0.0,0.0,0.0,0.0,0.0,0.0,0.0,0.0,0.0,0.0,0.0,0.0,0.0,-0.8894,-0.8116,-0.7356,-0.6542,0.0,0.0,0.0,0.0,0.0,0.0,-0.6861,-0.6997,-0.7105,-0.7394,-0.7624,-0.7682,-0.7746,-0.776,-0.7695,-0.7519,-0.7397,-0.7419,-0.7054,-0.6726,-0.6408,-0.6169,-0.5873,-0.5443,-0.5356,-0.5274,-0.5229,-0.5153,-0.5116,-0.5113,-0.5048,-0.5018,-0.5018,-0.5018,-0.5018,-0.5018,-0.5018,-0.474,-0.4265,-0.3949,-0.2999,-0.1823,-0.1799,-0.1277,-0.048,-0.0134,0.0,0.0,0.0,0.0,0.0,0.0,0.0,0.0,0.0,0.0,0.0,0.0,0.0,0.0,0.0,0.0,0.0,0.0,0.0,0.0,0.0,0.0,0.0,0.0,0.0,0.0,0.0,0.0,0.0,0.0,0.0,0.0,0.0,0.0,0.0,0.0,0.0,0.0,0.0,0.0,0.0,0.0,0.0,0.0,0.0,0.0,0.0,0.0,0.0,0.0,0.0,0.0,0.0,0.0,0.0,0.0,-1.2425,0.0,0.0,-1.1884,-1.1188,-1.0225,-0.898,-0.8246,-0.7535,-0.6542,-0.6358,0.0,0.0,0.0,0.0,0.0,0.0,-0.6839,-0.6879,-0.721,-0.7444,-0.7529,-0.7607,-0.7658,-0.7658,-0.7624,-0.7553,-0.7441,-0.7214,-0.6894,-0.659,-0.6386,-0.604,-0.5479,-0.5453,-0.5403,-0.5238,-0.5203,-0.5186,-0.5184,-0.5069,-0.5018,-0.5018,-0.5018,-0.5018,-0.4979,-0.4779,-0.4343,-0.3754,-0.3308,-0.2388,-0.1261,-0.1058,-0.0559,0.0,0.0,0.0,0.0,0.0,0.0,0.0,0.0,0.0,0.0,0.0,0.0,0.0,0.0,0.0,0.0,0.0,0.0,0.0,0.0,0.0,0.0,0.0,0.0,0.0,0.0,0.0,0.0,0.0,0.0,0.0,0.0,0.0,0.0,0.0,0.0,0.0,0.0,0.0,0.0,0.0,0.0,0.0,0.0,0.0,0.0,0.0,0.0,0.0,0.0,0.0,0.0,0.0,0.0,0.0,0.0,0.0,0.0,-1.2732,-1.2557,-1.2278,-1.2209,-1.1831,-1.0981,-0.9128,-0.8661,-0.8257,-0.6792,-0.6504,-0.6552,0.0,0.0,0.0,0.0,0.0,0.0,0.0,-0.69,-0.7058,-0.7392,-0.7631,-0.7804,-0.7804,-0.7682,-0.7597,-0.7594,-0.7183,-0.6927,-0.6976,-0.6377,-0.5963,-0.5866,-0.5588,-0.5405,-0.5405,-0.5246,-0.5186,-0.5184,-0.5069,-0.5018,-0.5018,-0.5018,-0.5018,-0.4937,-0.4185,-0.383,-0.3682,-0.2047,-0.1357,-0.1221,-0.0388,-0.0044,0.0,0.0,0.0,0.0,0.0,0.0,0.0,0.0,0.0,0.0,0.0,0.0,0.0,0.0,0.0,0.0,0.0,0.0,0.0,0.0,0.0,0.0,0.0,0.0,0.0,0.0,0.0,0.0,0.0,0.0,0.0,0.0,0.0,0.0,0.0,0.0,0.0,0.0,0.0,0.0,0.0,0.0,0.0,0.0,0.0,0.0,0.0,0.0,0.0,0.0,0.0,0.0,0.0,0.0,0.0,0.0,0.0,0.0,-1.2414,-1.23,-1.2139,-1.2363,-1.1891,-1.1199,-1.0352,-0.9484,-0.8641,-0.7695,-0.7071,-0.6687,-0.6716,0.0,0.0,0.0,0.0,0.0,0.0,0.0,-0.6926,0.0,0.0,0.0,0.0,-0.7567,-0.7556,-0.7455,-0.726,-0.696,-0.6642,-0.6451,-0.6106,-0.564,-0.5632,-0.557,-0.5448,-0.5405,-0.5388,-0.5347,-0.5186,-0.5091,-0.4979,-0.4462,-0.4224,-0.4146,-0.3324,-0.2644,-0.2085,-0.1537,-0.0955,-0.043,-0.013,0.0,0.0,0.0,0.0,0.0,0.0,0.0,0.0,0.0,0.0,0.0,0.0,0.0,0.0,0.0,0.0,0.0,0.0,0.0,0.0,0.0,0.0,0.0,0.0,0.0,0.0,0.0,0.0,0.0,0.0,0.0,0.0,0.0,0.0,0.0,0.0,0.0,0.0,0.0,0.0,0.0,0.0,0.0,0.0,0.0,0.0,0.0,0.0,0.0,0.0,0.0,0.0,0.0,0.0,0.0202,0.0253,0.0253,0.0253,0.0152,-1.215,-1.2118,-1.2073,-1.2277,-1.1778,-1.1065,-1.0578,-0.9562,-0.8597,-0.7917,-0.7407,-0.7017,-0.6854,0.0,0.0,0.0,0.0,0.0,0.0,-0.6749,0.0,0.0,0.0,0.0,0.0,-0.7161,-0.7121,-0.7455,-0.6929,-0.6589,-0.6606,-0.6158,-0.5694,-0.5208,-0.4871,-0.4659,-0.4561,-0.4526,-0.4477,-0.4453,-0.4311,-0.4176,-0.4086,-0.3557,-0.3353,-0.3288,-0.2439,-0.1782,-0.1275,-0.0954,-0.0508,0.0,0.0,0.0,0.0,0.0,0.0,0.0,0.0,0.0,0.0,0.0,0.0,0.0,0.0,0.0,0.0,0.0,0.0,0.0,0.0,0.0,0.0,0.0,0.0,0.0,0.0,0.0,0.0,0.0,0.0,0.0,0.0,0.0,0.0,0.0,0.0,0.0,0.0,0.0,0.0,0.0,0.0,0.0,0.0,0.0,0.0,0.0,0.0,0.0,0.0,0.0,0.0,0.0,0.0,0.0,0.0,0.0152,0.0303,0.0404,0.0404,0.0354]},{"header":{"parameterUnit":"m.s-1","parameterCategory":1,"la1":30.6,"la2":29.2853,"lo1":-89.7004,"lo2":-87.6739,"dy":0.0162,"dx":0.0183,"nx":112,"ny":82,"refTime":"2026-03-12T00:00:00:Z","depth":0,"parameterNumber":3,"parameterNumberName":"V-component_of_WINDS"},"data":[0.0,0.0,0.0,0.0,0.0,0.0,0.0,0.0,0.0,0.0,0.0,0.0,0.0,0.0,0.0,0.0,0.0,0.0,0.0,0.0,0.0,0.0,0.0,0.0,0.0,0.0,0.0,0.0,0.0,0.0,0.0,0.0,0.0,0.0,0.0,0.0,0.0,0.0,0.0,0.0,0.0,0.0,0.0,0.0,0.0,0.0,0.0,0.0,0.0,0.0,0.0,0.0,0.0,0.0,0.0,0.0,0.0,0.0,0.0,0.0,0.0,0.0,0.0,0.0,0.0,0.0,0.0,0.0,0.0,0.0,0.0,0.0,0.0,0.0,0.0,0.0,0.0,0.0,0.0,0.0,0.0,0.0,0.0,0.0,0.0,0.0,0.0,0.0,0.0,0.0,1.4291,1.3716,1.2886,1.1999,1.1167,1.1771,1.1879,1.1161,0.0,0.0,0.0,0.0,0.0,0.0,0.0,0.0,0.0,0.0,0.0,0.0,0.0,0.0,0.0,0.0,0.0,0.0,0.0,0.0,0.0,0.0,0.0,0.0,0.0,0.0,0.0,0.0,0.0,0.0,0.0,0.0,0.0,0.0,0.0,0.0,0.0,0.0,0.0,0.0,0.0,0.0,0.0,0.0,0.0,0.0,0.0,0.0,0.0,0.0,0.0,0.0,0.0,0.0,0.0,0.0,0.0,0.0,0.0,0.0,0.0,0.0,0.0,0.0,0.0,0.0,0.0,0.0,0.0,0.0,0.0,0.0,0.0,0.0,0.0,0.0,0.0,0.0,0.0,0.0,0.0,0.0,0.0,0.0,0.0,0.0,0.0,0.0,0.0,0.0,0.0,0.0,0.0,0.0,0.0,0.0,0.0,0.0,0.0,0.0,0.0,0.0,0.0,0.0,1.3878,1.312,1.2449,1.1788,1.1149,1.1222,1.1228,1.1117,0.0,0.0,0.0,0.0,0.0,0.0,0.0,0.0,0.0,0.0,0.0,0.0,0.0,0.0,0.0,0.0,0.0,0.0,0.0,0.0,0.0,0.0,0.0,0.0,0.0,0.0,0.0,0.0,0.0,0.0,0.0,0.0,0.0,0.0,0.0,0.0,0.0,0.0,0.0,0.0,0.0,0.0,0.0,0.0,0.0,0.0,0.0,0.0,0.0,0.0,0.0,0.0,0.0,0.0,0.0,0.0,0.0,0.0,0.0,0.0,0.0,0.0,0.0,0.0,0.0,0.0,0.0,0.0,0.0,0.0,0.0,0.0,0.0,0.0,0.0,0.0,0.0,0.0,0.0,0.0,0.0,0.0,0.0,0.0,0.0,0.0,0.0,0.0,0.0,0.0,0.0,0.0,0.0,0.0,0.0,0.0,0.0,0.0,0.0,0.0,0.0,0.0,0.0,1.3951,1.3507,1.3252,1.2482,1.1744,1.1149,1.1409,1.1446,1.1111,1.115,0.0,0.0,0.0,0.0,0.0,0.0,0.0,0.0,0.0,0.0,0.0,0.0,0.0,0.0,0.0,0.0,0.0,0.0,0.0,0.0,0.0,0.0,0.0,0.0,0.0,0.0,0.0,0.0,0.0,0.0,0.0,0.0,0.0,0.0,0.0,0.0,0.0,0.0,0.0,0.0,0.0,0.0,0.0,0.0,0.0,0.0,0.0,0.0,0.0,0.0,0.0,0.0,0.0,0.0,0.0,0.0,0.0,0.0,0.0,0.0,0.0,0.0,0.0,0.0,0.0,0.0,0.0,0.0,0.0,0.0,0.0,0.0,0.0,0.0,0.0,0.0,0.0,0.0,0.0,0.0,0.0,0.0,0.0,0.0,0.0,0.0,0.0,0.0,0.0,0.0,0.0,0.0,0.0,0.0,0.0,0.0,0.0,0.0,0.0,0.0,0.0,0.0,1.4382,1.3838,1.3831,1.3127,1.2432,1.1835,1.2115,1.2071,1.1508,1.1297,0.0,0.0,0.0,0.0,0.0,0.0,0.0,0.0,0.0,0.0,0.0,0.0,0.0,0.0,0.0,0.0,0.0,0.0,0.0,0.0,0.0,0.0,0.0,0.0,0.0,0.0,0.0,0.0,0.0,0.0,0.0,0.0,0.0,0.0,0.0,0.0,0.0,0.0,0.0,0.0,0.0,0.0,0.0,0.0,0.0,0.0,0.0,0.0,0.0,0.0,0.0,0.0,0.0,0.0,0.0,0.0,0.0,0.0,0.0,0.0,0.0,0.0,0.0,0.0,0.0,0.0,0.0,0.0,0.0,0.0,0.0,0.0,0.0,0.0,0.0,0.0,0.0,0.0,0.0,0.0,0.0,0.0,0.0,0.0,0.0,0.0,0.0,0.0,0.0,0.0,0.0,0.0,0.0,0.0,0.0,0.0,0.0,0.0,0.0,0.0,0.0,0.0,1.5427,1.5411,1.4859,1.4724,1.4458,1.3867,1.3482,1.309,1.2515,1.1689,0.0,0.0,0.0,0.0,0.0,0.0,0.0,0.0,0.0,0.0,0.0,0.0,0.0,0.0,0.0,0.0,0.0,0.0,0.0,0.0,0.0,0.0,0.0,0.0,0.0,0.0,0.0,0.0,0.0,0.0,0.0,0.0,0.0,0.0,0.0,0.0,0.0,0.0,0.0,0.0,0.0,0.0,0.0,0.0,0.0,0.0,0.0,0.0,0.0,0.0,0.0,0.0,0.0,0.0,0.0,0.0,0.0,0.0,0.0,0.0,0.0,0.0,0.0,0.0,0.0,0.0,0.0,0.0,0.0,0.0,0.0,0.0,0.0,0.0,0.0,0.0,0.0,0.0,0.0,0.0,0.0,0.0,0.0,0.0,0.0,0.0,0.0,0.0,0.0,0.0,0.0,0.0,0.0,0.0,0.0,0.0,0.0,0.0,0.0,0.0,0.0,0.0,1.5506,1.5445,0.0,1.5046,1.4681,1.404,1.3861,1.3364,1.2399,0.0,0.0,0.0,0.0,0.0,0.0,0.0,0.0,0.0,0.0,0.0,0.0,0.0,0.0,0.0,0.0,0.0,0.0,0.0,0.0,0.0,0.0,0.0,0.0,0.0,0.0,0.0,0.0,0.0,0.0,0.0,0.0,0.0,0.0,0.0,0.0,0.0,0.0,0.0,0.0,0.0,0.0,0.0,0.0,0.0,0.0,0.0,0.0,0.0,0.0,0.0,0.0,0.0,0.0,0.0,0.0,0.0,0.0,0.0,0.0,0.0,0.0,0.0,0.0,0.0,0.0,0.0,0.0,0.0,0.0,0.0,0.0,0.0,0.0,0.0,0.0,0.0,0.0,0.0,0.0,0.0,0.0,0.0,0.0,0.0,0.0,0.0,0.0,0.0,0.0,0.0,0.0,0.0,0.0,0.0,0.0,0.0,0.0,0.0,0.0,0.0,0.0,1.5614,1.5918,1.604,0.0,1.5683,1.5357,1.495,1.4809,1.4253,1.312,0.0,0.0,0.0,0.0,0.0,0.0,0.0,0.0,0.0,0.0,0.0,0.0,0.0,0.0,0.0,0.0,0.0,0.0,0.0,0.0,0.0,0.0,0.0,0.0,0.0,0.0,0.0,0.0,0.0,0.0,0.0,0.0,0.0,0.0,0.0,0.0,0.0,0.0,0.0,0.0,0.0,0.0,0.0,0.0,0.0,0.0,0.0,0.0,0.0,0.0,0.0,0.0,0.0,0.0,0.0,0.0,0.0,0.0,0.0,0.0,0.0,0.0,0.0,0.0,0.0,0.0,0.0,0.0,0.0,0.0,0.0,0.0,0.0,0.0,0.0,0.0,0.0,0.0,0.0,0.0,0.0,0.0,0.0,0.0,0.0,0.0,0.0,0.0,0.0,0.0,0.0,0.0,0.0,0.0,0.0,0.0,0.0,0.0,0.0,0.0,0.0,0.0,1.5753,1.6888,1.7501,1.6978,1.6908,1.6908,1.6908,1.6551,1.59,0.0,0.0,0.0,0.0,0.0,0.0,0.0,0.0,0.0,0.0,0.0,0.0,0.0,0.0,0.0,0.0,0.0,0.0,0.0,0.0,0.0,0.0,0.0,0.0,0.0,0.0,0.0,0.0,0.0,0.0,0.0,0.0,0.0,0.0,0.0,0.0,0.0,0.0,0.0,0.0,0.0,0.0,0.0,0.0,0.0,0.0,0.0,0.0,0.0,0.0,0.0,0.0,0.0,0.0,0.0,0.0,0.0,0.0,0.0,0.0,0.0,0.0,0.0,0.0,0.0,0.0,0.0,0.0,0.0,0.0,0.0,0.0,0.0,0.0,0.0,0.0,0.0,0.0,0.0,0.0,0.0,0.0,0.0,0.0,0.0,0.0,0.0,0.0,0.0,0.0,0.0,0.0,0.0,0.0,0.0,0.0,0.0,0.0,0.0,0.0,0.0,0.0,0.0,1.7129,1.8206,1.8913,1.8747,1.8297,1.8037,1.8037,1.7474,1.6477,1.4845,0.0,0.0,0.0,0.0,0.0,0.0,0.0,0.0,0.0,0.0,0.0,0.0,0.0,0.0,0.0,0.0,0.0,0.0,0.0,0.0,0.0,0.0,0.0,0.0,0.0,0.0,0.0,0.0,0.0,0.0,0.0,0.0,0.0,0.0,0.0,0.0,0.0,0.0,0.0,0.0,0.0,0.0,0.0,0.0,0.0,0.0,0.0,0.0,0.0,0.0,0.0,0.0,0.0,0.0,0.0,0.0,0.0,0.0,0.0,0.0,0.0,0.0,0.0,0.0,0.0,0.0,0.0,0.0,0.0,0.0,0.0,0.0,0.0,0.0,0.0,0.0,0.0,0.0,0.0,0.0,0.0,0.0,0.0,0.0,0.0,0.0,0.0,0.0,0.0,0.0,0.0,0.0,0.0,0.0,0.0,0.0,0.0,0.0,0.0,0.0,0.0,0.0,1.7883,1.8998,1.9738,1.953,1.9145,1.889,1.889,1.8533,1.7654,1.6141,0.0,0.0,0.0,0.0,0.0,0.0,0.0,0.0,0.0,0.0,0.0,0.0,0.0,0.0,0.0,0.0,0.0,0.0,0.0,0.0,0.0,0.0,0.0,0.0,0.0,0.0,0.0,0.0,0.0,0.0,0.0,0.0,0.0,0.0,0.0,0.0,0.0,0.0,0.0,0.0,0.0,0.0,0.0,0.0,0.0,0.0,0.0,0.0,0.0,0.0,0.0,0.0,0.0,0.0,0.0,0.0,0.0,0.0,0.0,0.0,0.0,0.0,0.0,0.0,0.0,0.0,0.0,0.0,0.0,0.0,0.0,0.0,0.0,0.0,0.0,0.0,0.0,0.0,0.0,0.0,0.0,0.0,0.0,0.0,0.0,0.0,0.0,0.0,0.0,0.0,0.0,0.0,0.0,0.0,0.0,0.0,0.0,0.0,0.0,0.0,0.0,0.0,1.8369,1.9557,2.0301,1.9803,1.9694,1.9639,1.9639,1.9607,1.9169,1.8179,0.0,0.0,0.0,0.0,0.0,0.0,0.0,0.0,0.0,0.0,0.0,0.0,0.0,0.0,0.0,0.0,0.0,0.0,0.0,0.0,0.0,0.0,0.0,0.0,0.0,0.0,0.0,0.0,0.0,0.0,0.0,0.0,0.0,0.0,0.0,0.0,0.0,0.0,0.0,0.0,0.0,0.0,0.0,0.0,0.0,0.0,0.0,0.0,0.0,0.0,0.0,0.0,0.0,0.0,0.0,0.0,0.0,0.0,0.0,0.0,2.1305,2.0441,0.0,0.0,0.0,0.0,0.0,0.0,0.0,0.0,0.0,0.0,0.0,0.0,0.0,0.0,0.0,0.0,0.0,0.0,0.0,0.0,0.0,0.0,0.0,0.0,0.0,0.0,0.0,0.0,0.0,0.0,0.0,0.0,0.0,0.0,0.0,0.0,0.0,0.0,0.0,0.0,1.976,2.0956,2.1757,2.1632,2.1092,2.0762,2.0762,2.0279,1.9511,1.8425,1.8143,0.0,0.0,0.0,0.0,0.0,0.0,0.0,0.0,0.0,0.0,0.0,0.0,0.0,0.0,0.0,0.0,0.0,0.0,0.0,0.0,0.0,0.0,0.0,0.0,0.0,0.0,0.0,0.0,0.0,0.0,0.0,0.0,0.0,0.0,0.0,0.0,0.0,0.0,0.0,0.0,0.0,0.0,0.0,0.0,0.0,0.0,0.0,0.0,0.0,0.0,0.0,0.0,0.0,0.0,0.0,0.0,0.0,0.0,0.0,2.2666,2.215,0.0,0.0,0.0,0.0,0.0,0.0,0.0,0.0,0.0,0.0,0.0,0.0,0.0,0.0,0.0,0.0,0.0,0.0,0.0,0.0,0.0,0.0,0.0,0.0,0.0,0.0,0.0,0.0,0.0,0.0,0.0,0.0,0.0,0.0,0.0,0.0,0.0,0.0,0.0,0.0,2.0286,2.1567,2.235,2.2122,2.2024,2.1858,2.1663,2.1305,2.0751,1.9912,1.9163,0.0,0.0,0.0,0.0,0.0,0.0,0.0,0.0,0.0,0.0,0.0,0.0,0.0,0.0,0.0,0.0,0.0,0.0,0.0,0.0,0.0,0.0,0.0,0.0,0.0,0.0,0.0,0.0,0.0,0.0,0.0,0.0,0.0,0.0,0.0,0.0,0.0,0.0,0.0,0.0,0.0,0.0,0.0,0.0,0.0,0.0,0.0,0.0,0.0,0.0,0.0,0.0,0.0,2.4615,2.4707,2.4259,2.4731,2.5145,2.5416,2.4677,2.446,2.4424,2.3208,0.0,0.0,0.0,0.0,0.0,0.0,0.0,0.0,0.0,0.0,0.0,0.0,0.0,0.0,0.0,0.0,0.0,0.0,0.0,0.0,0.0,0.0,2.5289,2.5766,2.5945,2.5309,2.2719,0.0,0.0,0.0,0.0,0.0,0.0,0.0,0.0,0.0,0.0,0.0,2.0654,2.1839,2.2572,2.2288,2.2681,2.2827,2.2531,2.2482,2.2232,2.1696,2.044,1.9447,0.0,0.0,0.0,0.0,0.0,0.0,0.0,0.0,0.0,0.0,0.0,0.0,0.0,0.0,0.0,0.0,0.0,0.0,0.0,0.0,0.0,0.0,0.0,0.0,0.0,0.0,0.0,0.0,0.0,0.0,0.0,0.0,2.281,2.3258,0.0,0.0,0.0,0.0,0.0,0.0,0.0,0.0,0.0,0.0,0.0,0.0,0.0,2.4479,2.4925,2.619,2.6627,2.6179,2.7939,2.8484,2.8022,2.8526,2.8809,2.8848,2.874,0.0,2.5332,2.406,0.0,0.0,0.0,0.0,0.0,0.0,0.0,0.0,0.0,0.0,0.0,0.0,0.0,0.0,0.0,0.0,0.0,0.0,0.0,0.0,0.0,0.0,2.6666,2.6843,2.692,2.6814,2.6413,2.4932,2.3573,2.3169,2.2439,2.1718,0.0,0.0,0.0,0.0,0.0,0.0,2.1627,2.2207,2.28,2.3245,2.318,2.3269,2.3719,2.3547,2.32,2.2655,2.242,2.2048,2.1517,2.0656,0.0,0.0,0.0,0.0,0.0,0.0,0.0,0.0,0.0,0.0,0.0,0.0,0.0,0.0,0.0,0.0,0.0,0.0,0.0,0.0,0.0,0.0,0.0,0.0,0.0,0.0,0.0,0.0,0.0,2.4702,2.5166,2.5053,2.5411,2.5261,0.0,0.0,0.0,0.0,0.0,0.0,0.0,0.0,0.0,2.6725,2.6908,2.7311,2.7989,2.8557,2.8756,2.8521,2.9374,2.9655,2.9444,2.9669,2.9797,2.9797,2.9797,2.9117,2.8002,2.7023,2.6364,2.5882,0.0,0.0,0.0,0.0,2.5078,2.5425,2.5864,2.6014,2.6054,2.6388,0.0,0.0,0.0,0.0,0.0,0.0,0.0,2.6823,2.7323,2.7449,2.7565,2.7953,2.8067,2.8067,2.8067,2.7115,2.5985,2.5171,2.4507,2.3744,2.2749,2.2341,0.0,0.0,0.0,2.1691,2.1691,2.2394,2.2896,2.2881,2.3071,2.3336,2.3683,2.3594,2.3605,2.3756,2.3482,2.3193,2.2971,2.2313,2.1633,0.0,0.0,0.0,0.0,0.0,0.0,0.0,0.0,0.0,0.0,0.0,0.0,0.0,0.0,0.0,0.0,0.0,0.0,0.0,0.0,0.0,0.0,0.0,0.0,0.0,0.0,0.0,0.0,2.6822,2.7377,2.7199,2.8037,2.7985,0.0,0.0,0.0,0.0,0.0,0.0,2.8138,2.8494,2.901,2.975,2.9819,2.9988,3.0334,3.0454,3.0443,3.0254,3.0435,3.051,3.051,3.051,3.051,3.051,3.051,3.051,3.0422,2.9385,2.868,2.8138,2.7511,2.6939,2.6469,2.6338,2.6281,2.6308,2.664,2.6759,2.6811,2.7056,2.6758,2.6373,2.6869,0.0,0.0,0.0,0.0,2.7489,2.8036,2.8158,2.8271,2.8763,2.8889,2.8889,2.8889,2.8446,2.7786,2.6807,2.6213,2.5471,2.4254,2.3811,0.0,2.2264,0.0,2.2063,2.2063,2.2639,2.2967,2.2814,2.313,2.3516,2.396,2.3905,2.4121,2.4812,2.4489,2.4245,2.4245,2.3783,2.3125,2.2235,0.0,0.0,0.0,0.0,0.0,0.0,0.0,0.0,0.0,0.0,0.0,0.0,0.0,0.0,0.0,0.0,0.0,0.0,0.0,0.0,0.0,0.0,0.0,0.0,0.0,0.0,0.0,0.0,0.0,2.9205,2.9614,0.0,0.0,0.0,0.0,2.814,2.8785,2.9159,2.9217,3.0353,3.1044,3.1104,3.1588,3.1553,3.096,3.1579,3.1589,3.0955,3.161,3.1896,3.1896,3.1896,3.1896,3.1896,3.1896,3.1896,3.1751,2.9886,2.907,2.8927,2.7682,2.7224,2.718,2.6673,2.6469,2.6575,2.7236,2.7464,2.754,2.8137,2.7993,2.7635,2.7799,2.7849,0.0,0.0,2.8277,2.8732,2.8826,2.8858,2.8881,2.9052,2.9075,2.9075,2.9075,2.8756,2.8328,2.7902,2.7133,2.6245,2.5221,0.0,2.4572,2.3634,2.3384,2.3319,2.3319,2.3082,2.3155,2.3748,2.3626,2.3971,2.5194,2.5017,2.5125,2.5797,2.5797,2.5783,2.5783,2.5473,2.5248,2.5177,2.3935,0.0,0.0,0.0,0.0,0.0,0.0,0.0,0.0,0.0,0.0,0.0,0.0,0.0,0.0,0.0,0.0,0.0,0.0,0.0,0.0,0.0,0.0,0.0,0.0,0.0,0.0,0.0,0.0,3.0458,3.1691,0.0,3.0537,3.0553,3.069,3.0749,3.1323,3.1914,3.2436,3.2886,3.3412,3.3954,3.3743,3.3502,3.3246,3.3017,3.2544,3.1921,3.2489,3.2761,3.2761,3.3135,3.3293,3.3293,3.3293,3.3293,3.3235,3.2551,3.1551,3.0417,3.0048,2.9384,2.8621,2.8447,2.8086,2.775,2.7999,2.8146,2.8301,2.8865,2.8943,2.8865,2.92,2.9313,2.9336,2.9419,2.9585,2.9793,2.9886,2.993,2.9951,2.9989,3.0011,2.9924,2.9611,2.9438,2.9196,2.8764,2.8206,2.7592,2.6848,2.6305,2.563,2.4645,2.409,2.3797,2.3797,2.3689,2.3708,2.3932,2.3874,2.4365,2.5673,2.569,2.6046,2.7111,2.7185,2.7185,2.7185,2.7064,2.6842,2.644,2.5528,2.4316,0.0,0.0,0.0,0.0,0.0,0.0,0.0,0.0,0.0,0.0,0.0,0.0,0.0,0.0,0.0,0.0,0.0,0.0,0.0,0.0,0.0,0.0,0.0,0.0,0.0,0.0,3.1985,3.2006,3.3428,3.3839,3.2354,3.2781,3.3167,3.3197,3.3979,3.4693,3.5203,3.5482,3.5855,3.6413,3.577,3.53,3.5065,3.4356,3.3677,3.3013,3.3417,3.3608,3.3624,3.3978,3.4128,3.4128,3.4128,3.4128,3.4128,3.4128,3.3233,3.1873,3.1966,3.1316,3.0295,3.0076,2.9556,2.8974,2.8974,2.9028,2.9166,2.9563,2.9695,2.9761,3.0128,3.0218,3.0239,3.0335,3.0372,3.0393,3.0477,3.0497,3.0497,3.0497,3.0497,3.0435,3.0123,3.0059,2.9989,2.9744,2.9143,2.8522,2.7971,2.7469,2.6776,2.572,2.5102,2.4626,2.4312,2.4156,2.4088,2.4003,2.4003,2.4422,2.5546,2.5637,2.6092,2.7161,2.7221,2.7221,2.7221,2.7221,2.704,2.6638,2.5864,2.4777,2.3398,0.0,0.0,0.0,0.0,0.0,0.0,0.0,0.0,0.0,0.0,0.0,0.0,0.0,0.0,0.0,0.0,0.0,0.0,0.0,0.0,0.0,0.0,0.0,3.123,3.1783,3.2706,3.3954,3.482,3.5033,3.4375,3.5026,3.5494,3.5494,3.664,3.734,3.734,3.7934,3.8322,3.8306,3.7614,3.6875,3.6216,3.5532,3.4861,3.4211,3.4358,3.4431,3.4431,3.4431,3.4455,3.4455,3.4455,3.4455,3.4455,3.4439,3.3948,3.3245,3.3215,3.2727,3.2001,3.1423,3.0724,3.0095,3.0095,3.0095,3.0133,3.0293,3.0314,3.0335,3.0497,3.0539,3.0539,3.0539,3.0539,3.0539,3.0539,3.0539,3.0539,3.0539,3.0539,3.0543,3.0625,3.0625,3.0666,3.0767,2.9886,2.8983,2.8558,2.8442,2.8025,2.6899,2.6455,0.0,2.4949,2.4533,2.4261,2.4067,2.4046,2.4298,2.4908,2.4947,2.5257,2.591,2.5971,2.5955,2.5955,2.5955,2.5978,2.5978,2.4973,2.4386,2.4262,0.0,0.0,0.0,0.0,0.0,0.0,0.0,0.0,0.0,0.0,0.0,0.0,0.0,0.0,0.0,0.0,0.0,0.0,0.0,0.0,0.0,3.2288,3.3153,3.2629,3.4387,3.5874,3.635,3.7017,3.7384,3.7176,3.7375,3.7488,3.7488,3.7834,3.8087,3.8154,3.8349,3.8502,3.8596,3.7824,3.709,3.6424,3.5705,3.5012,3.4358,3.4783,3.4971,3.4995,3.5374,3.5549,3.5549,3.5549,3.5549,3.5515,3.4974,3.4636,3.4346,3.3512,3.2439,3.135,3.1199,3.0697,3.0095,3.0213,3.0251,3.0335,3.0747,3.0868,3.0965,3.1315,3.1447,3.1447,3.1447,3.1447,3.1447,3.1447,3.1447,3.1449,3.1507,3.1526,3.1452,3.1225,3.1186,3.1108,3.0848,3.0091,2.9589,3.0001,2.9228,2.8359,2.7843,2.724,2.6501,2.5515,2.5301,2.5224,2.5162,2.5162,2.5413,2.6077,2.6125,2.6443,2.7153,2.7222,2.7274,2.7419,2.7419,2.751,2.772,2.6484,2.5829,0.0,0.0,0.0,0.0,0.0,0.0,0.0,0.0,0.0,0.0,0.0,0.0,0.0,0.0,0.0,0.0,0.0,0.0,0.0,0.0,0.0,0.0,3.4221,3.5279,3.5247,3.6352,3.7311,3.7686,3.8063,3.8306,3.8306,3.8585,3.875,3.875,3.9049,3.9279,3.9332,3.9332,3.9235,3.8996,3.8194,3.7461,3.6752,3.6083,3.5546,3.5151,3.5509,3.5666,3.5666,3.5985,3.6127,3.6127,3.6127,3.6127,3.6058,3.532,3.484,3.4487,0.0,0.0,0.0,0.0,3.116,3.0831,3.0888,3.0925,3.0985,3.1295,3.1391,3.143,3.1709,3.18,3.1818,3.1838,3.1856,3.1839,3.1911,3.1928,3.1929,3.1966,3.1984,3.1948,3.1768,3.1731,3.1675,3.1507,3.056,0.0,3.0782,2.967,2.8568,2.8209,2.7792,2.7167,2.6184,2.6066,2.603,2.5939,2.5937,2.6085,2.6477,2.651,0.0,0.0,0.0,2.7207,2.7325,2.7325,0.0,0.0,0.0,0.0,0.0,0.0,0.0,0.0,2.5629,2.5446,0.0,0.0,0.0,0.0,0.0,0.0,0.0,0.0,0.0,0.0,0.0,0.0,0.0,0.0,0.0,0.0,3.6025,3.7661,3.8326,3.7976,3.7856,3.8437,3.8518,3.8546,3.8546,3.9129,3.9516,3.9516,4.0112,4.051,4.0534,4.0534,0.0,0.0,0.0,3.7877,3.7142,3.6521,3.6208,3.6208,3.6276,3.6301,3.6301,3.6301,3.6301,3.6301,3.6301,3.6249,3.6111,3.537,3.4576,3.3835,3.3702,3.3267,3.2616,3.2021,3.18,3.18,3.18,0.0,0.0,3.18,3.18,3.18,3.1818,3.1818,3.1819,3.1912,3.1912,3.1948,3.2073,3.209,3.209,3.2108,3.2108,3.2126,3.2214,3.2214,3.2232,3.2266,3.1089,3.0282,3.0843,2.9765,2.866,2.822,2.8152,2.7793,2.686,2.6725,2.6674,2.6488,2.6471,0.0,2.6471,2.6471,2.6471,2.6471,2.6505,2.6505,2.6505,2.6522,2.659,2.6691,2.659,2.6995,2.7913,2.7828,2.8425,2.9536,2.6506,2.5835,0.0,0.0,0.0,0.0,0.0,0.0,0.0,0.0,0.0,0.0,0.0,0.0,0.0,0.0,0.0,3.6282,3.7744,3.8948,3.9766,3.9775,3.9724,3.9756,3.985,3.9901,3.9901,4.0129,4.0279,4.0279,4.0419,4.0558,4.0648,4.0673,4.036,3.9663,3.8906,3.8166,3.7425,3.6655,3.628,3.628,3.6301,0.0,3.6301,3.6301,3.6301,3.6301,3.6301,3.5956,3.5352,3.4631,3.349,3.2231,3.2212,3.2126,3.1988,3.1852,3.18,3.18,3.18,3.18,3.18,3.18,3.18,3.1818,3.1857,3.1893,0.0,3.2037,3.2055,3.2073,3.209,3.209,3.2108,3.2161,3.2179,3.2197,3.2336,3.2354,3.2178,3.1545,3.0703,2.9948,2.9439,2.9101,2.8785,2.8467,2.8416,2.8059,2.7058,2.694,2.694,2.6891,2.6891,2.6891,2.6891,2.6891,2.6891,2.6891,2.7103,2.7214,2.7214,2.7352,2.7755,2.8399,2.7772,2.7857,2.869,2.8045,2.8181,2.9045,2.8807,2.8982,0.0,0.0,0.0,0.0,0.0,0.0,0.0,0.0,0.0,0.0,0.0,3.2716,3.4227,0.0,3.6414,3.7885,3.8965,3.9806,4.0254,4.0362,4.0387,4.0313,4.0362,4.0387,4.0387,4.051,4.0583,4.0583,4.0655,4.0728,4.0793,4.0414,3.987,3.9163,3.8422,3.7663,3.6904,3.6703,3.6597,3.6597,3.6801,3.69,3.69,3.69,3.69,3.6882,3.6476,3.6089,3.5669,3.4511,3.3371,3.2351,3.2351,3.2109,3.18,3.18,3.18,3.18,3.18,3.18,3.1818,3.1838,3.1839,3.1857,3.1966,3.2002,3.202,3.2126,3.2144,3.2179,3.2232,3.2249,3.2249,3.2284,3.2301,3.2319,3.2388,3.2406,3.216,3.1352,3.0598,2.9843,2.9035,2.8561,2.8253,2.8128,2.8097,2.7927,2.7421,2.7353,2.7353,2.7353,2.7353,2.7353,2.7353,2.7353,2.7353,2.7353,2.7494,2.7554,2.7554,2.8027,2.8491,2.8895,2.8895,2.9374,3.0302,2.9895,3.0181,3.1115,3.1413,3.132,0.0,0.0,0.0,0.0,0.0,0.0,0.0,0.0,3.2554,3.3648,3.3876,3.4431,3.6329,3.7144,3.7903,3.9065,3.9823,4.033,4.0379,4.0461,4.0583,4.0669,4.059,4.0534,4.0534,4.0728,4.0871,4.0871,4.1041,4.1157,4.1157,4.0393,3.9611,3.8881,3.8117,3.7335,3.6533,3.6841,3.7017,3.7017,3.7358,3.7505,3.7505,3.7505,3.7416,3.7202,3.6274,3.5882,3.5774,3.4364,3.3464,3.2916,3.2916,3.2568,3.2038,3.2038,3.1984,3.1929,3.1947,3.1911,3.1873,3.193,3.1948,3.1966,3.209,3.2108,3.2126,3.2232,3.2249,3.2267,3.2371,3.2406,3.2406,3.2406,3.2406,3.2406,3.2406,3.2406,3.2177,3.1452,3.0769,3.0069,2.9339,2.8501,2.7877,2.7719,2.7701,2.7701,2.7701,2.7701,2.7701,2.7701,2.7701,2.7701,2.7701,2.7701,2.7713,2.7771,2.7771,2.78,2.784,2.8632,2.9145,2.9304,2.994,3.0787,3.1795,3.1649,3.2089,3.3082,3.3225,3.2842,3.136,3.0148,2.9591,3.1068,3.1114,3.1607,0.0,0.0,3.506,3.6959,3.7333,3.761,3.8509,3.8728,3.9106,4.0,4.0254,4.0362,4.0624,4.0673,4.0853,4.1333,4.0954,4.0673,4.0673,4.1123,4.1423,4.1423,4.1799,4.2053,4.2053,4.1286,4.0524,3.9779,3.8922,3.8103,3.7377,3.7414,3.7432,3.7414,3.7487,3.7505,3.7505,3.7505,3.7112,3.6364,3.4951,3.439,3.4365,3.3465,3.3065,3.2975,3.2975,3.2947,3.287,3.287,3.2648,3.2352,3.2471,3.2318,3.2073,3.2073,3.2073,3.209,3.2161,3.2179,3.2232,3.2336,3.2371,3.2371,3.2406,3.2406,3.2406,3.2406,3.2406,3.2406,3.2406,3.2406,3.2262,3.174,3.1336,3.0922,3.0419,2.946,2.8526,2.7806,2.7701,2.7701,2.7701,2.7701,2.7701,2.7701,2.7701,2.7701,2.7701,2.7701,2.78,2.8034,2.8061,2.8152,2.8402,2.9235,3.0012,3.0671,3.0821,3.1301,3.2147,3.1502,3.1579,3.2324,3.2702,3.2986,3.1402,3.1475,0.0,0.0,3.2813,3.3833,3.4895,3.5209,3.5799,3.7537,3.7905,3.8285,3.9527,3.9755,3.9906,0.0,4.0461,4.0576,4.0673,4.0568,4.0558,4.0784,4.0849,4.1064,4.1543,4.1778,4.1906,4.1906,4.2095,4.2002,4.1517,4.077,3.9985,3.9163,3.8361,3.7808,3.7505,3.7721,3.7861,3.7861,3.8085,3.8218,3.8265,3.8265,3.7574,3.6352,3.5268,3.4556,3.4115,3.3725,3.3593,3.3634,3.3634,3.3625,3.3524,3.3127,3.2901,3.2761,3.2809,3.2747,3.2634,3.2716,3.2732,3.2749,3.283,3.2846,3.2846,3.2912,3.2784,3.2638,3.2638,3.2506,3.244,3.2606,3.2638,3.2687,3.288,3.2928,3.2742,3.2103,3.1885,3.1572,3.0904,3.0424,2.9854,2.9034,2.8227,2.7701,2.7701,2.7701,2.7757,2.7926,2.8075,2.8183,2.8183,2.8183,2.8206,2.8324,2.8814,2.8907,2.8522,3.0232,3.113,3.0962,3.1901,3.2684,3.3248,3.2939,3.3042,3.3494,3.3694,3.388,3.1852,0.0,0.0,3.293,3.4117,3.5284,3.5148,3.5554,3.6315,3.7635,3.7912,3.8282,3.9448,3.987,4.0129,4.0384,4.0675,4.0907,4.1094,4.0758,4.0532,4.0657,4.0766,4.1199,4.2143,4.2332,4.2398,4.2398,4.2498,4.2217,4.1406,4.0633,3.9841,3.8978,3.8222,3.7844,3.7844,3.8152,3.8283,3.8283,3.8609,3.878,3.8818,3.8376,3.7575,3.6468,3.5415,3.4653,3.4124,3.4074,3.4086,3.4124,3.4124,3.4099,3.3992,3.3505,3.3263,3.3192,3.3204,3.3163,3.3103,3.3199,3.3229,3.3229,3.3291,3.3306,3.3306,3.3306,3.3124,3.2954,3.2954,3.2782,3.2688,3.2892,3.2954,3.2999,3.3262,3.3306,3.3172,3.2738,3.2573,3.2345,3.1856,3.1542,3.113,3.0536,2.9406,2.845,2.7979,2.8135,2.8344,2.8546,2.8925,2.9181,2.9181,2.9181,2.9207,2.93,2.989,3.0,2.9466,3.1386,3.218,3.1622,3.2965,3.3818,3.4111,3.4136,3.4233,3.4439,3.4542,3.4615,0.0,0.0,3.2517,3.4044,3.4472,3.4912,3.6389,3.6745,3.6998,3.7736,3.795,3.801,3.8061,3.8826,3.9604,4.011,4.0809,4.1499,4.2074,4.1479,4.1121,4.1522,4.0872,4.0907,0.0,4.265,4.2882,4.2882,4.325,4.3113,4.2307,4.1501,4.0694,3.9887,3.908,3.8658,3.8658,3.8732,3.8792,3.8792,3.8866,3.8877,3.8836,3.7271,3.6574,3.6512,3.4858,3.4155,3.4197,3.4197,3.4197,3.4197,3.4197,3.4197,3.4197,3.4173,3.3959,3.3698,3.3748,3.3564,3.3288,3.3306,3.3306,3.3306,3.3306,3.3306,3.3306,3.3306,3.3291,3.3273,3.3273,3.3291,3.3258,3.3291,3.3273,3.3291,3.3306,3.3306,3.3394,3.3684,3.3486,3.3354,3.3648,3.2858,3.2168,3.2131,3.1424,3.0305,2.869,2.921,2.9743,2.9756,3.044,3.0907,3.0907,3.0907,3.1045,3.1305,3.1348,3.1488,3.1775,3.2624,3.3093,3.3123,3.3964,3.4393,3.4393,3.4461,3.4495,3.4506,3.4781,3.4898,3.2782,0.0,3.382,3.4353,3.4861,3.5385,3.5893,3.6011,3.6231,3.7009,3.7191,3.7379,3.8018,3.8822,3.9617,4.0241,4.0942,4.1609,4.2136,4.1739,4.1248,4.0854,4.1321,0.0,0.0,0.0,0.0,4.2464,4.2127,4.1552,4.0744,4.0451,3.9937,3.9129,3.8879,3.878,3.878,3.8837,3.8881,3.8881,3.8921,3.8691,3.815,3.7094,3.6356,3.5812,3.4662,3.4185,3.4197,3.4197,3.4197,3.4197,3.4197,3.4197,3.4197,3.4197,3.4136,3.4036,3.4061,3.3992,3.3902,3.3902,3.3902,3.3902,3.3902,3.3902,3.3902,3.3902,3.377,3.3638,3.3638,3.3465,3.3364,3.3583,3.3638,3.3675,3.3863,3.3902,3.3928,3.4049,3.3967,3.3941,3.4049,3.3776,3.3357,3.2822,3.1733,3.0798,3.0223,3.056,3.0857,3.0857,3.1262,3.1525,3.1525,3.1572,3.1649,3.1718,3.2265,3.2408,3.1984,3.3243,3.3743,3.3286,3.4061,3.4542,3.4732,3.4752,3.4812,3.4897,3.4978,3.5041,3.3136,3.3783,3.4556,3.4827,3.5245,3.56,3.56,3.56,3.5757,3.6333,3.648,3.6707,3.7365,3.8499,3.9549,4.014,4.1215,4.2157,4.2598,4.2195,4.165,4.114,4.1548,4.1791,0.0,0.0,0.0,4.2213,4.1827,4.1056,3.9955,3.9913,3.958,3.8753,3.8792,3.8837,3.8837,3.8892,3.895,3.8979,3.8725,3.8331,3.7794,3.6747,3.5993,3.5454,3.4569,3.4197,3.4197,3.4197,3.4197,3.4197,3.4197,3.4197,3.4197,3.4197,3.4197,3.4197,3.4197,3.4197,3.4197,3.4197,3.4197,3.4197,3.4197,3.4197,3.4197,3.4197,3.4074,3.3947,3.3947,3.3784,3.3689,3.3895,3.3947,3.3985,3.4161,3.4197,3.4197,3.4197,3.4197,3.4197,3.4197,3.4197,3.4011,3.351,3.2711,3.1939,3.1358,3.1679,3.1979,3.1979,3.237,3.2667,3.2701,3.2735,3.2769,3.2791,3.331,3.3399,3.2898,3.3889,3.4255,3.3867,3.4375,3.4762,3.4972,3.4972,3.5015,3.5106,3.517,3.5201,3.4303,3.4523,3.4726,3.543,3.56,3.56,3.56,3.56,3.5644,3.5773,3.5905,3.6019,0.0,0.0,3.9417,3.9823,4.1589,4.3032,4.3444,4.2837,4.2359,0.0,0.0,0.0,0.0,0.0,0.0,4.2066,4.2139,4.1442,3.9934,3.9905,3.9583,3.8825,3.8881,3.891,3.891,3.8964,3.9036,3.9082,3.8284,3.7875,3.7782,3.6216,3.5473,3.5398,3.455,3.4197,3.4197,3.4197,3.4197,3.4197,3.4197,3.4197,3.4197,3.4197,3.4197,3.4197,3.4197,3.4197,3.4197,3.4197,3.4197,3.4197,3.4197,3.4197,3.4197,3.4197,3.4197,3.4197,3.4197,3.4197,3.4197,3.4197,3.4197,3.4197,3.4197,3.4197,3.4197,3.4197,3.4197,3.4197,3.4197,3.4197,3.4197,3.4197,3.4197,3.364,3.2128,3.2593,3.3057,3.3057,3.3763,3.4233,3.4293,3.4305,3.4328,3.4386,3.4427,3.4443,3.4517,3.4539,3.4649,3.4917,3.4908,3.4981,3.5122,3.5122,3.5122,3.5138,3.5324,3.5431,3.4438,3.4912,3.5346,3.5549,3.56,3.56,3.56,3.56,3.5644,3.5773,3.5817,3.5927,0.0,0.0,0.0,3.9823,4.1589,0.0,4.3444,4.3331,0.0,4.2378,0.0,4.2506,4.1515,4.1589,0.0,0.0,3.9955,3.9473,3.9093,3.9105,3.9024,3.8881,3.8935,3.8964,3.8964,3.905,3.9073,3.9082,3.8284,3.7578,3.6965,3.5956,3.5157,3.4513,3.429,3.4197,3.4197,3.4197,3.4197,3.4197,3.4197,3.4197,3.4197,3.4197,3.4197,3.4197,3.4197,3.4197,3.4197,3.4197,3.4197,3.4197,3.4197,3.4197,3.4197,3.4197,3.4197,3.4197,3.4197,3.4197,3.4197,3.4197,3.4197,3.4197,3.4197,3.4197,3.4197,3.4197,3.4197,3.4197,3.4197,3.4197,3.4197,3.4197,3.4197,3.4048,3.3652,3.377,3.3881,3.3881,3.4115,3.4281,3.4293,3.4386,3.4461,3.4473,3.466,3.4782,3.4792,3.4898,3.4978,3.5058,3.5058,3.513,3.5316,3.5316,3.5391,3.5553,3.5608,3.562,3.4895,3.5278,3.56,3.56,3.56,3.56,3.56,3.56,3.5644,3.5861,3.5905,0.0,0.0,0.0,0.0,0.0,0.0,0.0,4.348,4.3515,4.3331,0.0,4.3222,0.0,4.1754,4.1735,4.1258,0.0,3.9509,3.9133,3.8825,3.8866,3.891,3.8935,3.9007,3.9031,3.9031,3.9073,3.9101,3.9082,3.7931,3.7132,3.6681,3.5882,3.5027,3.4216,3.4599,3.455,3.4197,3.4197,3.4197,3.4197,3.4197,3.4197,3.4197,3.4197,3.4197,3.4197,3.4197,3.4197,3.4197,3.4197,3.4197,3.4197,3.4197,3.4197,3.4197,3.4197,3.4197,3.4197,3.4197,3.4197,3.4197,3.4197,3.4197,3.4197,3.4197,3.4197,3.4197,3.4197,3.4197,3.4197,3.4197,3.4197,3.4197,3.4197,3.4197,3.4197,3.4197,3.4197,3.4209,3.4245,3.4356,3.4458,3.4513,3.4643,3.4725,3.4764,3.4898,3.4999,3.4999,3.5056,3.5146,3.5224,3.5224,3.5324,3.5527,3.5527,3.5583,3.5704,3.5704,3.5704,3.5447,3.5667,3.5757,3.5656,3.5622,3.5622,3.5644,3.5644,3.5734,3.5975,0.0,3.6262,3.6801,3.8599,4.009,4.0438,0.0,4.3515,4.3515,4.3515,4.3515,4.3515,4.3423,4.302,4.2213,4.1407,4.0616,3.9806,3.9829,3.9562,3.8859,3.8921,3.8993,3.9007,3.9059,3.9101,3.9101,3.9101,3.9045,3.8915,3.7411,3.6643,3.6513,3.5696,3.4915,3.4234,3.5008,3.4897,3.4197,3.4197,3.4197,3.4197,3.4197,3.4197,3.4197,3.4197,3.4197,3.4197,3.4197,3.4197,3.4197,3.4197,3.4197,3.4197,3.4197,3.4197,3.4197,3.4197,3.4197,3.4197,3.4197,3.4197,3.4197,3.4197,3.4197,3.4197,3.4197,3.4197,3.4197,3.4197,3.4197,3.4197,3.4197,3.4197,3.4197,3.4197,3.4233,3.4257,3.425,3.425,3.4281,3.4321,3.4537,3.4695,3.4822,3.4933,3.5045,3.5106,3.513,3.5146,3.5146,3.5162,3.5265,3.5444,3.5444,3.5521,3.5704,3.5704,3.5704,3.5704,3.5704,3.5704,3.5735,3.6096,3.6457,3.5903,3.5773,3.5778,3.591,3.5932,0.0,0.0,0.0,3.6643,3.686,3.8827,4.042,4.0491,0.0,0.0,0.0,0.0,4.3515,0.0,0.0,0.0,0.0,4.0579,0.0,0.0,3.9054,3.9043,3.8896,3.8968,3.9021,3.9073,3.9101,3.9101,3.9101,3.9101,3.8767,3.8098,3.7151,3.6346,3.5677,3.4822,3.4327,3.4197,3.4364,3.4327,3.4197,3.4197,3.4197,3.4197,3.4197,3.4197,3.4197,3.4197,3.4197,3.4197,3.4197,3.4197,3.4197,3.4197,3.4197,3.4197,3.4197,3.4197,3.4197,3.4197,3.4197,3.4197,3.4197,3.4197,3.4197,3.4197,3.4197,3.4197,3.4197,3.4197,3.4197,3.4197,3.4197,3.4197,3.4197,3.4197,3.4197,3.4197,3.4386,3.452,3.4526,3.4537,3.4537,3.4548,3.4784,3.494,3.4949,3.5037,3.5098,3.5106,3.5265,3.5357,3.5357,3.5509,3.5614,3.5656,3.5656,3.5668,3.5704,3.5704,3.5704,3.5704,3.5704,3.5704,3.6214,3.6197,3.6118,3.5858,3.5795,3.5839,3.5975,0.0,0.0,0.0,0.0,3.6865,3.7414,0.0,0.0,0.0,0.0,0.0,0.0,0.0,0.0,0.0,0.0,0.0,0.0,4.0423,3.9645,3.8907,3.8906,3.895,3.895,3.9021,3.9059,3.9101,3.9101,3.9101,3.9101,3.9101,3.8692,3.7894,3.7076,3.629,3.5491,3.5083,3.4637,3.4234,3.468,3.4606,3.4197,3.4197,3.4197,3.4197,3.4197,3.4197,3.4197,3.4197,3.4197,3.4197,3.4197,3.4197,3.4197,3.4197,3.4197,3.4197,3.4197,3.4197,3.4197,3.4197,3.4197,3.4197,3.4197,3.4197,3.4197,3.4197,3.4197,3.4197,3.4197,3.4197,3.4197,3.4197,3.4197,3.4197,3.4197,3.4316,3.4416,3.4416,3.4599,3.4754,3.4755,3.4878,3.4923,3.4832,3.5018,3.5174,3.5216,3.5324,3.5417,3.5417,3.5502,3.5559,3.5559,3.5656,3.5704,3.5704,3.5704,3.5704,3.5704,3.5704,3.5704,3.5704,3.5704,3.5704,3.6677,3.6451,3.6101,3.6067,3.5958,3.5883,3.6041,3.6062,0.0,0.0,3.6805,3.7135,3.7948,0.0,0.0,0.0,0.0,0.0,0.0,0.0,0.0,0.0,0.0,0.0,0.0,4.0335,0.0,3.8962,3.8979,3.9021,3.9021,3.9073,3.9101,3.9101,3.9101,3.9101,3.9101,3.8934,3.8432,3.7634,3.6829,3.6012,3.5231,3.5231,3.486,3.4234,3.4915,3.4841,3.4197,3.4197,3.4197,3.4197,3.4197,3.4197,3.4197,3.4197,3.4197,3.4197,3.4197,3.4197,3.4197,3.4197,3.4197,3.4197,3.4197,3.4197,3.4197,3.4197,3.4197,3.4197,3.4197,3.4197,3.4197,3.4197,3.4197,3.4221,3.4269,3.4281,3.4305,3.4333,3.4344,3.4344,3.4344,3.452,3.4668,3.466,3.4832,3.4969,3.4977,3.5216,3.5304,3.5166,3.529,3.5412,3.5457,3.5614,3.5704,3.5704,3.5704,3.5704,3.5704,3.5704,3.5704,3.5704,3.5704,3.5704,3.5704,3.5704,3.5704,3.5704,3.5704,3.5704,3.6965,3.7229,3.7581,3.7098,3.6466,3.6041,3.6237,0.0,0.0,3.6801,3.7171,3.756,3.8017,0.0,0.0,0.0,0.0,4.2213,0.0,0.0,0.0,0.0,0.0,0.0,0.0,3.9866,3.8999,3.8997,3.9045,3.9087,3.9087,3.9101,3.9101,3.9101,3.9101,3.9101,3.9101,3.8377,3.7596,3.6811,3.5993,3.5157,3.4309,3.4309,3.4271,3.4197,3.4271,3.4271,3.4197,3.4197,3.4197,3.4197,3.4197,3.4197,3.4197,3.4197,3.4197,3.4197,3.4197,3.4197,3.4197,3.4197,3.4197,3.4197,3.4197,3.4197,3.4197,3.4197,3.4197,3.4197,3.4197,3.4197,3.4197,3.4197,3.4197,3.4269,3.4506,3.4561,3.4615,3.4792,3.4831,3.4831,3.4831,3.487,3.4879,3.486,3.503,3.5197,3.5261,3.5445,3.5595,3.5626,3.5643,3.5668,3.5673,3.5679,3.5704,3.5704,3.5704,3.5704,3.5704,3.5704,3.5704,3.5704,3.5704,3.5704,3.5704,3.5704,3.5704,3.5704,3.5704,3.5704,3.7415,3.774,3.7868,3.7263,3.6948,3.6697,3.6362,0.0,3.6779,3.7189,3.7578,3.7982,3.8385,3.8852,0.0,0.0,0.0,0.0,0.0,0.0,0.0,0.0,0.0,0.0,0.0,0.0,3.8979,3.9064,3.8641,3.8581,3.9064,3.9101,3.9101,3.9101,3.9101,3.8859,3.8377,3.8061,3.7257,3.5974,3.5659,3.5045,3.4197,3.4197,3.4197,3.4197,3.4197,3.4197,3.4197,3.4197,3.4197,3.4197,3.4197,3.4197,3.4197,3.4197,3.4197,3.4197,3.4197,3.4197,3.4197,3.4197,3.4197,3.4197,3.4197,3.4197,3.4197,3.4197,3.4197,3.4197,3.4197,3.4197,3.4245,3.4397,3.445,3.4487,3.474,3.4781,3.4792,3.487,3.4908,3.4908,3.4908,3.501,3.5079,3.5083,3.5296,3.545,3.5483,3.5589,3.5673,3.5704,3.5704,3.5704,3.5704,3.5704,3.5704,3.5704,3.5704,3.5704,3.5704,3.5704,3.5704,3.5704,3.5704,3.5704,3.5704,3.5704,3.5704,3.5709,3.5694,3.5703,3.7483,3.7814,3.7972,3.7519,3.7192,3.6913,0.0,3.6792,3.7017,3.7432,3.7826,3.8219,3.8627,3.8707,3.8707,0.0,0.0,3.9808,0.0,0.0,0.0,0.0,0.0,4.119,0.0,3.9841,3.9064,3.9101,3.8339,3.8154,3.8711,3.8525,3.8488,3.8729,3.8507,3.8116,3.7541,3.7312,3.6625,3.551,3.525,3.4804,3.4197,3.4197,3.4197,3.4197,3.4197,3.4197,3.4197,3.4197,3.4197,3.4197,3.4197,3.4197,3.4197,3.4197,3.4197,3.4197,3.4197,3.4197,3.4209,3.4293,3.4316,3.4328,3.4379,3.4298,3.4197,3.4197,3.4197,3.4221,3.4293,3.4316,3.4374,3.4636,3.4689,3.4751,3.4955,3.4992,3.501,3.5072,3.5081,3.5081,3.5081,3.5198,3.53,3.5319,3.5489,3.5602,3.5631,3.5673,3.5704,3.5704,3.5704,3.5704,3.5704,3.5704,3.5704,3.5704,3.5704,3.5704,3.5704,3.5936,3.6052,3.6052,3.6303,3.6439,3.6439,3.6463,3.6343,3.6086,3.611,3.6121,3.7015,3.7373,3.8033,3.815,3.7192,3.6431,0.0,3.7192,3.7017,3.7432,3.7826,3.8219,3.8627,3.8707,3.8707,3.8707,0.0,0.0,4.1095,0.0,0.0,0.0,0.0,4.1,4.0184,3.9499,3.9101,3.9101,3.8339,3.7894,3.7912,3.7164,3.7076,3.7894,3.7132,3.6705,3.6718,3.5919,3.5529,3.5491,3.4637,3.4197,3.4197,3.4197,3.4197,3.4197,3.4197,3.4197,3.4197,3.4197,3.4197,3.4197,3.4197,3.4197,3.4197,3.4197,3.4197,3.4197,3.4197,3.4197,3.4245,3.4506,3.4602,3.4626,3.4821,3.4567,3.4197,3.4197,3.4197,3.4257,3.4528,3.4602,3.4647,3.486,3.4908,3.4955,3.5149,3.5201,3.525,3.5465,3.5493,3.5493,3.5493,3.5495,3.5515,3.5591,3.5602,3.5612,3.5684,3.5704,3.5704,3.5704,3.5704,3.5704,3.5704,3.5704,3.5704,3.5704,3.5704,3.5704,3.5704,3.6458,3.6884,3.6884,3.7729,3.8174,3.8174,3.8244,3.7828,3.6984,3.705,3.713,3.6863,3.743,3.7972,3.7553,3.7192,3.6895,3.6711,3.7013,3.7358,3.7469,3.8051,3.8564,3.8692,3.8707,3.8891,3.9423,3.9955,0.0,0.0,0.0,0.0,4.2415,4.141,4.0348,0.0,3.9222,3.9101,3.9101,3.7838,3.7318,3.7856,3.6229,3.5812,3.7034,3.6829,3.6439,3.59,3.564,3.5213,3.4606,3.4327,3.4197,3.4197,3.4197,3.4197,3.4209,3.4386,3.4363,3.4209,3.4404,3.4473,3.4473,3.4473,3.4473,3.4495,3.4639,3.4469,3.4257,3.4567,3.4586,3.4517,3.4722,3.4811,3.4821,3.4889,3.4802,3.4672,3.4672,3.4672,3.4701,3.4772,3.4811,3.486,3.5063,3.5107,3.5149,3.5354,3.541,3.5424,3.5493,3.5508,3.5509,3.5509,3.5541,3.5572,3.5602,3.5595,3.5612,3.5684,3.5704,3.5704,3.5704,3.6187,3.6303,3.5742,3.5704,3.5704,3.5704,3.5704,3.5704,3.5704,3.6477,3.6903,3.6903,3.7802,3.8268,3.8268,3.8346,3.8246,3.8027,3.8042,3.8086,0.0,3.6966,3.754,3.7177,3.6987,3.6861,3.6762,3.713,3.7505,3.7505,3.8135,3.8707,3.8707,3.8707,3.8854,3.9368,3.9698,0.0,0.0,0.0,0.0,4.1604,0.0,0.0,3.9157,3.9101,3.9101,3.9101,3.767,3.7044,3.7535,3.5747,3.5117,3.5993,3.6031,3.5787,3.5281,3.5263,3.5001,3.4458,3.4458,3.4458,3.4458,3.4458,3.4458,3.4469,3.4639,3.4618,0.0,3.4639,3.471,3.471,3.471,3.471,3.473,3.4841,3.4722,3.4502,3.4802,3.4821,3.4751,3.4955,3.5063,3.5124,3.513,3.5027,3.4908,3.4908,3.4908,3.4927,3.5001,3.5019,3.5063,3.5258,3.5316,3.5346,3.546,3.55,3.5507,3.5501,3.5489,3.5515,3.5528,3.5572,3.5718,3.6045,3.6095,3.6223,3.6593,3.6632,3.6632,3.6632,3.7096,3.7193,3.669,3.6342,3.6013,3.5723,3.5974,3.6151,3.6198,3.7302,3.7923,3.7962,3.884,3.9315,3.9315,3.9057,3.8969,3.9034,3.9034,3.9059,0.0,3.6197,3.6837,3.699,3.6593,3.6397,3.7232,3.7464,0.0,3.7505,3.8135,3.8707,3.8707,3.8707,3.8726,3.8781,0.0,0.0,0.0,4.1256,0.0,0.0,3.947,0.0,3.9101,3.9101,3.9115,3.9129,3.7804,3.7012,3.7024,3.5689,3.4927,3.4927,3.4945,3.4936,3.4908,3.4908,3.4908,3.4908,3.4908,3.4908,3.4908,3.4908,3.4908,3.4908,3.4927,3.4898,3.4908,3.4927,3.4927,3.4927,3.4927,3.4927,3.4908,3.4945,3.4917,3.4889,3.4917,3.4926,3.4945,3.5168,3.5346,3.5494,3.5496,3.5243,3.4936,3.4945,3.4945,3.5001,3.5166,3.5226,3.5266,3.5453,3.5507,3.5507,3.5507,3.5507,3.5501,3.5502,3.5496,3.5528,3.5598,3.5608,3.5896,3.6766,3.6905,3.7212,3.8096,3.8193,3.8193,3.8193,3.8251,3.8276,3.821,3.7464,3.6676,3.5933,3.6591,3.7031,3.7097,3.871,3.9642,3.9691,4.0552,4.1,4.1006,4.0255,3.9932,3.998,3.998,3.998,3.56,0.0,3.5966,3.6205,3.6156,3.6135,0.0,3.706,3.7505,0.0,0.0,0.0,0.0,0.0,0.0,0.0,0.0,0.0,4.1905,0.0,0.0,3.9523,3.9185,3.9073,3.9101,3.9101,3.9197,3.9401,3.7914,3.7062,3.7221,3.5893,3.5124,3.5124,3.5273,3.5218,3.4889,3.4908,3.4908,3.4908,3.4908,3.4908,3.4908,3.4908,3.4908,3.4917,3.5063,3.5046,3.4898,3.5072,3.5124,3.5124,3.5124,3.5124,3.5141,3.5289,3.5157,3.4936,3.525,3.5258,3.5157,3.5361,3.5455,3.5496,3.5509,3.5437,3.5381,3.5429,3.5395,3.5362,3.5416,3.5434,3.5446,3.5495,3.5496,3.5496,3.5496,3.5534,3.5566,3.5515,3.5547,3.5583,3.5595,3.5637,3.5944,3.6775,3.6897,3.7212,3.8096,3.8193,3.8193,3.8193,3.8798,3.8961,3.8331,3.8042,3.7832,3.7695,3.7874,3.7996,3.8079,3.9108,3.9679,3.9694,4.0611,4.1109,4.1147,4.0954,4.0878,4.0898,4.0898,4.0898,3.56,3.5898,3.6282,3.6461,3.6532,3.6685,3.705,0.0,0.0,0.0,0.0,0.0,0.0,0.0,0.0,0.0,3.9737,0.0,0.0,0.0,4.0525,3.925,3.9101,3.9101,3.9101,3.9101,3.9205,3.9489,3.8025,3.7219,3.7433,3.6105,3.5339,3.5339,3.5439,3.5403,3.5185,3.5185,3.5185,3.5185,3.5185,3.5185,3.5185,3.5185,3.5185,3.5174,3.5281,3.5293,3.5174,3.5281,3.5339,3.5339,3.5339,3.5339,3.5346,3.5453,3.5361,3.5209,3.5424,3.5427,3.5352,3.5508,3.5554,3.5554,3.5547,3.5553,3.5553,3.5598,3.5566,3.5554,3.5554,3.5554,3.5541,3.5547,3.5554,3.5554,3.5554,3.5566,3.5598,3.5553,3.5911,3.6205,3.6198,3.6563,3.7135,3.7967,3.8083,3.8411,3.9282,3.9398,3.9398,3.9398,3.9838,3.9975,3.9528,3.9485,3.9153,3.8392,3.8726,3.8971,3.9031,3.9889,4.0366,4.0384,4.0887,4.1169,4.1191,4.1191,4.1191,4.1191,4.1191,4.1191,3.5757,3.6548,3.7234,3.7,3.7173,3.7491,3.7831,0.0,0.0,0.0,0.0,0.0,0.0,0.0,0.0,0.0,0.0,0.0,4.0233,4.0432,4.0197,3.9212,3.9142,3.917,3.917,3.9192,3.9318,3.9592,3.8329,3.7576,3.7672,3.64,3.5635,3.55,3.55,3.55,3.55,3.55,3.55,3.55,3.55,3.55,3.55,3.55,3.55,3.55,3.55,3.55,3.55,3.55,3.55,3.55,3.55,3.55,3.55,3.55,3.5507,3.5494,3.5514,3.5502,3.5515,3.5585,3.5598,3.561,3.5595,3.5606,3.5626,3.5622,3.561,3.5604,3.5604,3.5604,3.5598,3.5604,3.5604,3.5642,3.5777,3.5803,3.5847,3.5968,3.6592,3.7106,3.711,3.7709,3.8508,3.9365,3.9501,3.9816,4.0705,4.0827,4.0814,4.0831,4.0878,4.0915,4.0932,4.0974,4.039,3.8926,3.9519,3.9945,4.0003,4.0726,4.1144,4.1191,4.1191,4.1191,4.1191,4.1191,4.1191,4.1191,4.1191,4.1191,3.6571,3.7664,3.8218,3.6585,3.6999,3.7676,0.0,0.0,0.0,0.0,0.0,0.0,0.0,0.0,0.0,0.0,0.0,4.1804,0.0,0.0,4.0828,3.9287,3.9298,3.9452,3.9452,3.959,3.9797,4.0071,3.9195,3.8445,3.7963,3.7031,3.6192,3.5519,3.55,3.55,3.55,3.55,3.55,3.55,3.55,3.55,3.55,3.55,3.55,3.55,3.55,3.55,3.55,3.55,3.55,3.55,3.55,3.55,3.55,3.55,3.5508,3.5502,3.5554,3.5547,3.5515,3.5585,3.5596,3.5601,3.5601,3.5643,3.5679,3.5673,3.5637,3.5595,3.5595,3.5596,3.5604,3.5589,3.5595,3.5807,3.6541,3.67,3.6919,3.7654,3.7898,3.7994,3.7999,3.8115,3.8508,3.9365,3.9501,3.9851,4.0776,4.0883,4.0917,4.0953,4.099,4.1,4.1068,4.1078,4.0996,4.0779,4.0843,4.0921,4.0976,4.1113,4.1191,4.1191,4.1191,4.1191,4.1191,4.1191,4.1191,4.1191,4.1191,4.1191,3.6237,3.7327,3.814,3.729,3.8362,3.9478,3.8933,0.0,0.0,0.0,0.0,0.0,0.0,0.0,4.0433,4.1396,0.0,4.2048,4.1236,4.1231,4.0873,3.9633,3.959,3.966,3.966,3.9761,3.9922,4.0186,3.8964,3.8144,3.8019,3.675,3.5885,3.5519,3.55,3.55,3.55,3.55,3.55,3.55,3.55,3.55,3.55,3.55,3.55,3.55,3.55,3.55,3.55,3.55,3.55,3.55,3.55,3.55,3.55,3.5508,3.5522,3.556,3.559,3.5571,3.5565,3.5639,3.5656,3.5648,3.5648,3.5679,3.5704,3.5704,3.5679,3.5648,3.5648,3.5656,3.5651,3.5643,3.5996,3.6416,3.6803,3.7278,3.7729,3.8117,3.8574,3.8918,3.8946,3.9344,3.981,4.0232,4.0299,4.0472,4.0898,4.0941,4.0976,4.1007,4.1022,4.107,4.1108,4.1122,4.1169,4.1191,4.117,4.1169,4.1191,4.1191,4.1191,4.1191,4.1191,4.1191,4.1191,4.1191,4.1191,4.1191,4.1191,4.1191,3.5788,3.6803,3.7797,3.7873,0.0,4.061,4.0474,0.0,0.0,0.0,0.0,0.0,0.0,4.0644,0.0,4.2679,4.2539,4.2207,4.2007,4.147,4.0794,3.9892,3.9851,3.9882,3.9882,3.9934,3.9967,3.9992,3.8748,3.7899,3.7712,3.6481,3.5692,3.5519,3.55,3.55,3.55,3.55,3.55,3.55,3.55,3.55,3.55,3.55,3.55,3.55,3.55,3.55,3.55,3.55,3.55,3.55,3.55,3.5507,3.5501,3.5528,3.5554,3.5604,3.562,3.5612,3.5606,3.5679,3.5704,3.5704,3.5704,3.582,3.5974,3.5974,3.6129,3.6245,3.6033,3.6129,3.6284,3.6284,3.6767,3.727,3.7464,3.8025,3.8572,3.8794,3.9367,3.9851,3.992,4.0477,4.0945,4.0984,4.099,4.1016,4.1011,4.1014,4.1039,4.1052,4.1085,4.1119,4.1119,4.117,4.1191,4.1191,4.1191,4.1191,4.1191,4.1191,4.1191,4.1191,4.1191,4.1191,4.1191,4.1191,4.1191,4.1191,4.1191,4.1191,3.5783,3.6716,3.7449,3.7522,0.0,0.0,4.0398,0.0,0.0,0.0,0.0,0.0,0.0,4.2069,4.2753,4.3108,4.3149,4.291,4.2361,4.1594,4.0772,3.9892,4.0022,4.0167,4.0167,4.0347,4.0157,3.9415,3.9242,3.8481,3.6885,3.6673,3.6269,3.5519,3.55,3.55,3.55,3.55,3.55,3.55,3.55,3.55,3.55,3.55,3.55,3.55,3.55,3.55,3.55,3.55,3.55,3.55,3.55,3.5508,3.5509,3.556,3.5598,3.5604,3.5662,3.5648,3.5606,3.5679,3.5704,3.5704,3.5704,3.6226,3.6806,3.6806,3.7406,3.7825,3.7019,3.7406,3.8019,3.8019,3.8057,3.8334,3.9133,3.9365,3.9652,4.0548,4.0762,4.0809,4.0896,4.0945,4.0987,4.099,4.099,4.1014,4.1081,4.1085,4.1116,4.1171,4.1191,4.1191,4.1191,4.1191,4.1191,4.1191,4.1191,4.1191,4.1191,4.1191,4.1191,4.1191,4.1191,4.1191,4.1191,4.1191,4.1191,4.1191,4.1191,4.1191,3.5531,3.622,3.6952,3.7701,0.0,0.0,0.0,0.0,0.0,0.0,0.0,0.0,0.0,0.0,4.2445,4.3106,4.3019,4.2807,4.2582,4.1953,4.1197,4.0345,4.0319,4.04,4.04,4.0457,4.0169,3.9361,3.8796,3.7969,3.675,3.6231,3.5808,3.5519,3.55,3.55,3.55,3.55,3.55,3.55,3.55,3.55,3.55,3.55,3.55,3.55,3.55,3.55,3.55,3.55,3.55,3.55,3.5495,3.5541,3.5571,3.5583,3.5639,3.5734,3.6259,3.6433,3.6402,3.6433,3.6458,3.6342,3.5839,3.6265,3.6903,3.6903,3.7928,3.8818,3.7928,3.7941,3.8193,3.8193,3.8605,3.9112,3.948,3.9999,4.0495,4.0894,4.0949,4.0974,4.1057,4.1066,4.1076,4.1116,4.1119,4.1122,4.1168,4.1168,4.117,4.1191,4.1191,4.1191,4.1191,4.1191,4.1191,4.1191,4.1191,4.1191,4.1191,4.1191,4.1191,4.1191,4.1191,4.1191,4.1191,4.1191,4.1191,4.1191,4.1191,4.1172,3.5155,3.5881,3.6766,0.0,0.0,0.0,0.0,0.0,0.0,0.0,0.0,0.0,0.0,0.0,0.0,0.0,4.268,4.2622,4.2441,4.1829,4.1162,4.0573,4.0496,4.0496,4.0496,4.0496,4.0054,3.8969,3.8334,3.7507,3.6385,3.5808,3.55,3.55,3.55,3.55,3.55,3.55,3.55,3.55,3.55,3.55,3.55,3.55,3.55,3.55,3.55,3.55,3.55,3.5494,3.5508,3.5521,3.5534,3.5559,3.5606,3.5606,3.5797,3.6168,3.6709,3.7077,3.7309,3.7309,3.7309,3.7212,3.6651,3.7077,3.7715,3.7715,3.8785,3.9771,3.9185,3.903,3.903,3.903,3.9491,3.9948,4.0005,4.0507,4.0957,4.1011,4.1022,4.1059,4.1117,4.1122,4.1146,4.1191,4.1191,4.1191,4.1191,4.1191,4.1191,4.1191,4.1191,4.1191,4.1191,4.1191,4.1191,4.1191,4.1191,4.1191,4.1191,4.1191,4.1191,4.1191,4.1191,4.1191,4.1191,4.1191,4.1191,4.1191,4.1191,4.1172,3.4662,3.5721,3.7005,0.0,0.0,0.0,0.0,0.0,0.0,0.0,0.0,0.0,0.0,0.0,0.0,4.1617,4.2115,4.246,4.1879,4.1046,4.0496,4.0496,4.0496,4.0496,4.0496,4.0496,3.9804,3.8142,3.8007,3.7276,3.5596,3.55,3.55,3.55,3.55,3.55,3.55,3.55,3.55,3.55,3.55,3.55,3.55,3.55,3.55,3.55,3.55,3.55,3.5507,3.5489,3.5547,3.5598,3.5598,3.5596,3.5606,3.5606,3.6165,3.6903,3.6922,3.7497,3.8212,3.8212,3.8212,3.8212,3.8193,3.8818,3.9501,3.9501,4.012,4.0797,4.0797,4.0797,4.0797,4.0797,4.0851,4.0907,4.0893,4.0941,4.1011,4.1083,4.1109,4.1119,4.1191,4.1191,4.1191,4.1191,4.1191,4.1191,4.1191,4.1191,4.1191,4.1191,4.1191,4.1191,4.1191,4.1191,4.1191,4.1191,4.1191,4.1191,4.1191,4.1191,4.1191,4.1191,4.1191,4.1191,4.1191,4.1191,4.1191,4.1191,4.1191,4.1191,3.4217,3.5102,0.0,0.0,0.0,0.0,0.0,0.0,0.0,0.0,0.0,4.303,4.2862,4.233,0.0,4.2268,4.1654,4.1308,4.175,4.1046,4.0496,4.0496,4.0496,4.0496,4.0496,4.0496,4.0054,3.8988,3.8354,3.7526,3.6404,3.5808,3.55,3.55,3.55,3.55,3.55,3.55,3.55,3.55,3.55,3.55,3.55,3.55,3.5501,3.5509,3.5494,3.5534,3.5566,3.5579,3.5584,3.5589,3.5589,3.5626,3.5731,3.6311,3.6679,3.7077,3.8295,3.8901,3.9114,3.9114,3.9114,3.8992,3.8392,3.8818,3.9501,3.9501,4.0164,4.0863,4.0863,4.0917,4.0928,4.0878,4.092,4.0974,4.1022,4.1061,4.1083,4.1168,4.117,4.1171,4.1191,4.1191,4.1191,4.1191,4.1191,4.1191,4.1191,4.1191,4.1191,4.1191,4.1191,4.1191,4.1191,4.1191,4.1191,4.1191,4.1191,4.1191,4.1191,4.1191,4.1191,4.1191,4.1191,4.1191,4.1191,4.1191,4.1191,4.1191,4.1191,4.1171,3.5179,0.0,0.0,0.0,0.0,0.0,0.0,0.0,0.0,0.0,0.0,4.3256,4.3441,4.2618,4.2001,4.2296,4.1596,4.1085,4.1258,4.0843,4.0496,4.0496,4.0496,4.0496,4.0496,4.0496,4.0169,3.9361,3.8488,3.7623,3.675,3.5942,3.55,3.55,3.55,3.55,3.55,3.55,3.55,3.55,3.55,3.55,3.55,3.5501,3.5495,3.5502,3.5495,3.5528,3.5596,3.5596,3.5614,3.5643,3.5643,3.5654,3.58,3.6593,3.7116,3.7618,3.9017,3.9733,4.0023,4.0023,4.0023,3.9926,3.9398,3.9591,4.0016,4.0043,4.0456,4.0917,4.0932,4.0981,4.1014,4.0964,4.0984,4.1057,4.1085,4.1117,4.1147,4.1191,4.1191,4.1191,4.1191,4.1191,4.1191,4.1191,4.1191,4.1191,4.1191,4.1191,4.1191,4.1191,4.1191,4.1191,4.1191,4.1191,4.1191,4.1191,4.1191,4.1191,4.1191,4.1191,4.1191,4.1191,4.1191,4.1191,4.1191,4.1191,4.1191,4.1191,4.1172,4.1132,3.6741,0.0,0.0,0.0,0.0,0.0,0.0,0.0,0.0,4.4229,0.0,4.3448,4.3827,4.3272,4.2527,4.1899,4.1731,4.1393,4.0612,4.0496,4.0496,4.0496,4.0496,4.0496,4.0496,4.0496,4.0208,3.9457,3.8604,3.7738,3.6865,3.6058,3.5577,3.55,3.55,3.55,3.55,3.55,3.55,3.55,3.55,3.55,3.55,3.5502,3.5502,3.5507,3.5502,3.5553,3.5606,3.5606,3.5643,3.5704,3.5704,3.5704,3.58,3.669,3.7516,3.8328,3.9288,4.0139,4.0797,4.0797,4.0797,4.0797,4.0797,4.0803,4.082,4.0883,4.0902,4.0932,4.0984,4.1064,4.1085,4.1022,4.1068,4.1114,4.1114,4.1168,4.1191,4.1191,4.1191,4.1191,4.1191,4.1191,4.1191,4.1191,4.1191,4.1191,4.1191,4.1191,4.1191,4.1191,4.1191,4.1191,4.1191,4.1191,4.1191,4.1191,4.1191,4.1191,4.1191,4.1191,4.1191,4.1191,4.1191,4.1191,4.1191,4.1191,4.1191,4.1191,4.1132,4.1092,0.0,3.6416,0.0,0.0,0.0,0.0,0.0,0.0,0.0,4.3313,4.3988,4.4339,4.3973,4.3417,4.2755,4.1923,4.1239,4.0708,4.0535,4.0496,4.0496,4.0496,4.0496,4.0496,4.0496,4.0496,4.0439,4.0246,3.9477,3.8642,3.7777,3.6904,3.6154,3.5519,3.55,3.55,3.55,3.55,3.55,3.55,3.55,3.55,3.55,3.5488,3.5508,3.5522,3.5602,3.5631,3.5606,3.5668,3.5679,3.5704,3.5704,3.5704,3.5878,3.7367,3.8038,3.8425,3.9978,4.0642,4.0797,4.0797,4.0797,4.0797,4.0797,4.0843,4.0878,4.0903,4.099,4.1066,4.1074,4.112,4.117,4.1168,4.1169,4.1171,4.1171,4.1191,4.1191,4.1191,4.1191,4.1191,4.1191,4.1191,4.1191,4.1191,4.1191,4.1191,4.1191,4.1191,4.1191,4.1191,4.1191,4.1191,4.1191,4.1191,4.1191,4.1191,4.1191,4.1191,4.1191,4.1191,4.1191,4.1191,4.1191,4.1191,4.1191,4.1191,4.1191,4.1191,4.1132,4.1091,0.0,0.0,0.0,0.0,0.0,0.0,0.0,0.0,4.1668,4.2214,4.3119,4.3738,4.3542,4.2977,4.2387,4.1925,4.1112,4.0549,4.0549,4.0549,4.0549,4.0549,4.0549,4.0542,4.0546,4.0539,4.0531,4.0496,3.9746,3.9111,3.8642,3.7796,3.7142,3.6712,3.6288,3.6077,3.6077,3.5692,3.55,3.55,3.55,3.5494,3.5495,3.5495,3.5534,3.5602,3.5631,3.5648,3.5648,3.5679,3.5704,3.5742,3.611,3.6265,3.6477,3.8179,3.8818,3.9011,4.0352,4.0797,4.0739,4.0313,4.049,4.0768,4.0341,4.0553,4.0941,4.0981,4.1054,4.1112,4.1143,4.117,4.1191,4.1191,4.1191,4.1191,4.1191,4.1191,4.1191,4.1191,4.1191,4.1191,4.1191,4.1191,4.1191,4.1191,4.1191,4.1191,4.1191,4.1191,4.1191,4.1191,4.1191,4.1191,4.1191,4.1191,4.1191,4.1191,4.1191,4.1191,4.1191,4.1191,4.1191,4.1191,4.1191,4.1191,4.1191,4.1191,4.1172,4.1152,4.1111,4.1108,0.0,0.0,0.0,0.0,0.0,0.0,0.0,0.0,4.1396,4.1466,4.2135,4.2747,4.2868,4.2356,4.1848,4.1701,4.1075,4.0595,4.0595,4.0595,4.0595,4.0595,4.0472,4.0432,4.0588,4.0465,4.0354,4.0304,3.9688,3.9227,3.9092,3.8257,3.7834,3.8007,3.7026,3.6558,3.6692,3.5904,3.55,3.55,3.5507,3.5521,3.5528,3.5528,3.559,3.5679,3.5637,3.5643,3.5704,3.5704,3.5781,3.5974,3.6632,3.7,3.7328,3.892,3.9501,3.9617,4.0507,4.0797,4.0681,3.9969,4.0275,4.0776,4.0056,4.0392,4.1039,4.1081,4.1112,4.1121,4.1191,4.1191,4.1191,4.1191,4.1191,4.1191,4.1191,4.1191,4.1191,4.1191,4.1191,4.1191,4.1191,4.1191,4.1191,4.1191,4.1191,4.1191,4.1191,4.1191,4.1191,4.1191,4.1191,4.1191,4.1191,4.1191,4.1191,4.1191,4.1191,4.1191,4.1191,4.1191,4.1191,4.1191,4.1191,4.1191,4.1191,4.1191,4.1172,4.1092,4.1245,4.1319,0.0,0.0,0.0,0.0,0.0,0.0,0.0,0.0,4.2345,0.0,4.2268,4.2566,4.214,4.1975,4.1643,4.0909,4.0684,4.0595,4.0595,4.0595,4.0595,4.0595,3.9923,3.976,4.053,3.9923,3.9457,3.9457,3.9361,3.8977,3.82,3.7353,3.7219,3.7988,3.6481,3.5981,3.6692,3.5904,3.55,3.55,3.5502,3.5534,3.5589,3.5589,3.5601,3.5612,3.5673,3.5684,3.5704,3.5704,3.611,3.6748,3.6864,3.7367,3.8154,3.9133,3.9501,3.9617,4.0507,4.0797,4.0796,4.0722,4.0801,4.0882,4.0824,4.0947,4.1083,4.1108,4.1144,4.1191,4.1191,4.1191,4.1191,4.1191,4.1191,4.1191,4.1191,4.1191,4.1191,4.1191,4.1191,4.1191,4.1191,4.1191,4.1191,4.1191,4.1191,4.1191,4.1191,4.1191,4.1191,4.1191,4.1191,4.1191,4.1191,4.1191,4.1191,4.1191,4.1191,4.1191,4.1191,4.1191,4.1191,4.1191,4.1191,4.1191,4.1191,4.1191,4.1172,4.1111,4.1869,4.2236,3.557,0.0,0.0,0.0,0.0,0.0,0.0,0.0,4.2703,4.1973,4.2036,4.2027,4.1305,4.1203,4.1103,4.0712,4.0694,4.0713,4.0713,4.0713,4.0713,4.0713,3.994,3.9547,3.9892,3.9145,3.8616,3.8573,3.8565,3.8623,3.8719,3.7892,3.7834,3.87,3.7065,3.6346,3.6692,3.5904,3.55,3.55,3.5547,3.5572,3.5596,3.5631,3.5668,3.5668,3.5679,3.5704,3.5704,3.5704,3.5916,3.6323,3.727,3.7864,3.8367,3.9733,4.0236,4.0274,4.0681,4.082,4.0789,4.0315,4.0552,4.0933,4.0472,4.072,4.1167,4.1167,4.1171,4.1191,4.1191,4.1191,4.1191,4.1191,4.1191,4.1191,4.1191,4.1191,4.1191,4.1191,4.1191,4.1191,4.1191,4.1191,4.1191,4.1191,4.1191,4.1191,4.1191,4.1191,4.1191,4.1191,4.1191,4.1191,4.1191,4.1191,4.1191,4.1191,4.1191,4.1406,4.1855,4.1875,4.2109,4.2598,4.168,4.1191,4.1191,4.1191,4.1172,4.1111,4.1989,4.2397,0.0,0.0,0.0,0.0,0.0,0.0,0.0,0.0,4.3498,4.264,4.2499,4.2202,4.1157,4.0814,4.07,4.0713,4.0778,4.0797,4.0797,4.0797,4.0797,4.0797,4.0017,3.9451,3.9393,3.8601,3.7989,3.7714,3.7688,3.795,3.8604,3.7834,3.7853,3.8938,3.7296,3.6481,3.6692,3.5904,3.5514,3.5534,3.5573,3.5604,3.5622,3.5687,3.5704,3.5704,3.5704,3.5704,3.5723,3.5916,3.6129,3.6477,3.7967,3.8663,3.903,4.0326,4.0797,4.0803,4.0814,4.0862,4.08,4.0171,4.0488,4.0974,4.0357,4.0641,4.1191,4.1191,4.1191,4.1191,4.1191,4.1191,4.1191,4.1191,4.1191,4.1191,4.1191,4.1191,4.1191,4.1191,4.1191,4.1191,4.1191,4.1191,4.1191,4.1191,4.1191,4.1191,4.1191,4.1191,4.1191,4.1191,4.1191,4.1191,4.1191,4.1387,4.1504,4.1504,4.1719,4.2109,4.2715,4.2734,4.3047,4.3691,4.2461,4.1836,4.1836,4.1836,4.1816,4.1775,4.2654,4.3063,0.0,0.0,0.0,0.0,0.0,0.0,0.0,0.0,4.5238,4.4432,4.4272,4.379,4.2232,4.1254,4.0733,4.0784,4.0797,4.0797,4.0797,4.0797,4.0797,4.0797,3.9973,3.9406,3.94,3.8613,3.7763,3.6921,3.679,3.6788,3.6827,3.6077,3.6385,3.8027,3.6442,3.5923,3.6692,3.5904,3.554,3.5591,3.5598,3.5628,3.5684,3.5704,3.5704,3.5704,3.5704,3.5704,3.5762,3.6516,3.7328,3.8154,3.9075,3.9946,4.0681,4.0777,4.0797,4.0815,4.0863,4.0903,4.092,4.0998,4.1067,4.1095,4.1112,4.1152,4.1191,4.1191,4.1191,4.1191,4.1191,4.1191,4.1191,4.1191,4.1191,4.1191,4.1191,4.1191,4.1191,4.1191,4.1191,4.1191,4.1191,4.1191,4.1191,4.1191,4.1191,4.1191,4.1191,4.1191,4.1191,4.1191,4.1191,4.1191,4.1191,4.1894,4.2344,4.2344,4.3105,4.3594,4.3633,4.3633,4.3652,4.3691,4.3613,4.3574,4.3574,4.3574,4.3574,4.3592,4.4451,4.4858,0.0,0.0,0.0,0.0,4.1808,4.3316,4.4124,4.4979,4.5372,4.4575,4.4395,4.3906,4.229,4.1744,4.1377,4.0887,4.0797,4.0797,4.0797,4.0797,4.0797,4.0797,4.0011,3.9451,3.9406,3.8112,3.7135,3.6819,3.6258,3.6154,3.6673,3.5942,3.6,3.7142,3.6077,3.5635,3.5923,3.5643,3.5522,3.5547,3.559,3.562,3.5637,3.5679,3.5704,3.5704,3.5704,3.5704,3.5762,3.6574,3.7077,3.7502,3.894,3.9694,4.0023,4.0584,4.0825,4.0877,4.0893,4.0964,4.1047,4.1081,4.1121,4.1169,4.1191,4.1191,4.1191,4.1191,4.1191,4.1191,4.1191,4.1191,4.1191,4.1191,4.1191,4.1191,4.1191,4.1191,4.1191,4.1191,4.1191,4.1191,4.1191,4.1191,4.1191,4.1191,4.1191,4.1191,4.1191,4.1191,4.1191,4.1191,4.166,4.1973,4.1973,4.2754,4.3223,4.3223,4.3535,4.3945,4.4512,4.4531,4.4805,4.5351,4.5371,4.4824,4.3691,4.3691,4.3691,4.3711,4.4589,4.4999,3.5244,0.0,0.0,0.0,0.0,4.2585,4.397,4.4739,4.5103,4.4884,4.4839,4.4434,4.3081,4.2621,4.2086,4.099,4.0797,4.0797,4.0797,4.0797,4.0797,4.0797,4.0294,3.9798,3.9464,3.8119,3.7141,3.682,3.599,3.5725,3.6269,3.5788,3.5731,3.6269,3.5788,3.5507,3.5501,3.5496,3.5502,3.5521,3.5583,3.5606,3.5637,3.5679,3.5704,3.5704,3.5704,3.5704,3.5762,3.6574,3.7077,3.7483,3.894,3.9675,4.001,4.0612,4.0867,4.0917,4.0961,4.1039,4.1091,4.1139,4.1169,4.1191,4.1191,4.1191,4.1191,4.1191,4.1191,4.1191,4.1191,4.1191,4.1191,4.1191,4.1191,4.1191,4.1191,4.1191,4.1191,4.1191,4.1191,4.1191,4.1191,4.1191,4.1191,4.1191,4.1191,4.1191,4.1191,4.1191,4.1308,4.1562,4.207,4.2519,4.2812,4.3633,4.4141,4.4141,4.4414,4.4824,4.541,4.5449,4.5703,4.6289,4.6308,4.5723,4.457,4.457,4.457,4.459,4.5176,4.5449,0.0,0.0,0.0,0.0,0.0,0.0,4.3624,4.422,4.4526,4.5481,4.5657,4.5426,4.4645,4.3858,4.2802,4.1145,4.0835,4.0797,4.0797,4.0797,4.0797,4.0797,4.0797,4.0468,3.9617,3.8755,3.7868,3.6948,3.6048,3.5547,3.5545,3.55,3.55,3.55,3.55,3.5501,3.5509,3.549,3.554,3.5606,3.5606,3.5637,3.5704,3.5704,3.5704,3.5704,3.5704,3.5704,3.5762,3.6574,3.74,3.829,3.9152,4.0023,4.0815,4.0868,4.0893,4.0924,4.1042,4.1109,4.1115,4.1171,4.1191,4.1191,4.1191,4.1191,4.1191,4.1191,4.1191,4.1191,4.1191,4.1191,4.1191,4.1191,4.1191,4.1191,4.1191,4.1191,4.1191,4.1191,4.1191,4.1191,4.1191,4.1191,4.1191,4.1191,4.1191,4.1211,4.123,4.123,4.1543,4.2344,4.2461,4.2812,4.3672,4.4531,4.5039,4.5039,4.582,4.6308,4.6308,4.6308,4.6308,4.6308,4.6308,4.6308,4.6308,4.6308,4.6308,4.6308,4.6308,4.6308,3.4475,0.0,0.0,0.0,0.0,0.0,4.1401,4.2527,4.3679,4.4575,4.4765,4.4712,4.4522,4.4312,4.3831,4.2776,4.1583,4.0797,4.0797,4.0797,4.0797,4.0797,4.0797,4.0719,4.0468,3.9599,3.8955,3.8698,3.725,3.6393,3.6433,3.5848,3.55,3.55,3.55,3.5501,3.5509,3.5554,3.5584,3.5606,3.5643,3.5679,3.5704,3.5704,3.5704,3.5704,3.5704,3.5704,3.5762,3.6574,3.74,3.829,3.9152,4.0056,4.0868,4.0898,4.0953,4.1059,4.1083,4.1122,4.117,4.1191,4.1191,4.1191,4.1191,4.1191,4.1191,4.1191,4.1191,4.1191,4.1191,4.1191,4.1191,4.1191,4.1191,4.1191,4.1191,4.1191,4.1191,4.1191,4.1191,4.1191,4.1191,4.1191,4.1191,4.1191,4.1191,4.1406,4.1992,4.207,4.2383,4.3242,4.3906,4.4375,4.4629,4.5449,4.5937,4.5937,4.6172,4.6308,4.6308,4.6308,4.6308,4.6308,4.6308,4.6308,4.6308,4.6308,4.6308,4.6308,4.6308,4.6308,0.0,0.0,0.0,0.0,0.0,0.0,4.0712,4.1546,4.2362,4.3599,4.3855,4.3975,4.4388,4.4179,4.3912,4.3812,4.2684,4.1686,4.1351,4.1293,4.1184,4.0835,4.0784,4.0752,4.0752,3.9927,3.9392,3.936,3.7737,3.6605,3.6272,3.5783,3.55,3.55,3.5501,3.5509,3.5547,3.5584,3.5614,3.5643,3.5679,3.5704,3.5704,3.5704,3.5704,3.5704,3.5704,3.5704,3.5742,3.6207,3.6903,3.7729,3.8624,3.9536,4.0412,4.0796,4.1003,4.1091,4.1122,4.1169,4.1191,4.1191,4.1191,4.1191,4.1191,4.1191,4.1191,4.1191,4.1191,4.1191,4.1191,4.1191,4.1191,4.1191,4.1191,4.1191,4.1191,4.1191,4.1191,4.1191,4.1191,4.1191,4.1191,4.1191,4.1308,4.1641,4.1699,4.1992,4.2832,4.2949,4.3281,4.4141,4.4707,4.5156,4.5508,4.6016,4.6308,4.6308,4.6308,4.6308,4.6308,4.6308,4.6308,4.6308,4.6308,4.6308,4.6308,4.6308,4.6308,4.6308,4.6308,4.6308,3.3998,3.4281,0.0,0.0,3.6738,0.0,4.0471,4.0769,4.0823,4.247,4.2887,4.3227,4.4094,4.3671,4.3431,4.424,4.3786,4.306,4.2241,4.2131,4.1861,4.1152,4.1003,4.0945,4.0848,4.0132,3.9576,3.9324,3.7756,3.6426,3.5545,3.5507,3.5507,3.5507,3.5509,3.5547,3.5598,3.5608,3.5637,3.5704,3.5704,3.5704,3.5704,3.5704,3.5704,3.5704,3.5704,3.5704,3.5704,3.5704,3.6168,3.7,3.7862,3.8776,3.9719,4.0669,4.1059,4.1117,4.1171,4.1191,4.1191,4.1191,4.1191,4.1191,4.1191,4.1191,4.1191,4.1191,4.1191,4.1191,4.1191,4.1191,4.1191,4.1191,4.1191,4.1191,4.1191,4.1191,4.1191,4.1191,4.1191,4.1191,4.1191,4.1269,4.1582,4.2285,4.248,4.2851,4.373,4.3848,4.418,4.5058,4.5137,4.5469,4.623,4.6308,4.6308,4.6308,4.6308,4.6308,4.6308,4.6308,4.6308,4.6308,4.6308,4.6308,4.6308,4.6308,4.6308,4.6308,4.6308,4.6308,3.3985,3.4208,3.4558,3.5042,0.0,0.0,3.7294,3.8538,3.9804,4.0804,4.1574,4.2321,4.3181,4.3235,4.32,4.3412,4.3894,4.394,4.3095,4.2978,4.2917,4.2744,4.2717,4.244,4.1726,4.1504,4.0841,3.9481,3.7777,3.6408,3.5554,3.5496,3.5496,3.5496,3.5547,3.5591,3.5598,3.5608,3.5637,3.5704,3.5704,3.5704,3.5704,3.5704,3.5704,3.5704,3.5704,3.5704,3.5704,3.5704,3.6168,3.6991,3.7924,3.8848,3.9799,4.0732,4.1119,4.1171,4.1191,4.1191,4.1191,4.1191,4.1191,4.1191,4.1191,4.1191,4.1191,4.1191,4.1191,4.1191,4.1191,4.1191,4.1191,4.1191,4.1191,4.1191,4.1191,4.1191,4.1191,4.1191,4.1191,4.1191,4.1191,4.1738,4.2226,4.2383,4.3008,4.3769,4.4629,4.4746,4.5078,4.5957,4.6055,4.6113,4.6289,4.6308,4.6308,4.6308,4.6308,4.6308,4.6308,4.6308,4.6308,4.6308,4.6308,4.6308,4.6308,4.6308,4.6308,4.6308,4.6308,4.6308,3.3934,3.4105,3.4291,3.4506,0.0,0.0,0.0,3.7221,3.8238,3.9084,3.9604,4.0169,4.1039,4.1201,4.1497,4.241,4.3243,4.3647,4.3204,4.3512,4.3647,4.3242,4.3169,4.2988,4.2537,4.2102,4.1162,3.9478,3.8147,3.7016,3.615,3.5726,3.5509,3.5509,3.556,3.5604,3.5602,3.5631,3.5673,3.5704,3.5704,3.5704,3.5704,3.5704,3.5704,3.5704,3.5704,3.5704,3.5704,3.5704,3.6186,3.7036,3.7946,3.8624,3.9267,4.0615,4.1144,4.1191,4.1191,4.1191,4.1191,4.1191,4.1191,4.1191,4.1191,4.1191,4.1191,4.1191,4.1191,4.1191,4.1191,4.1191,4.1191,4.1191,4.1191,4.1191,4.1191,4.1191,4.1191,4.1191,4.1191,4.1191,4.1191,4.2226,4.3047,4.3047,4.3789,4.4668,4.5547,4.5644,4.582,4.625,4.6308,4.6308,4.6308,4.6308,4.6308,4.6308,4.6308,4.6308,4.6308,4.6308,4.6308,4.6308,4.6308,4.6308,4.6308,4.6308,4.6308,4.6308,4.6308,4.6308,0.0,3.4244,3.4396,0.0,0.0,3.5078,0.0,0.0,0.0,3.7596,3.7873,3.8219,3.8911,3.9053,3.9561,4.1131,4.2071,4.2659,4.2826,4.3609,4.3971,4.347,4.3505,4.3527,4.3354,4.2255,4.1066,3.9873,3.8527,3.7526,3.6976,3.604,3.5521,3.5515,3.5578,3.5602,3.5601,3.5673,3.5704,3.5704,3.5704,3.5704,3.5704,3.5704,3.5704,3.5704,3.5704,3.5704,3.5709,3.5711,3.6212,3.7113,3.7973,3.85,3.8944,4.0529,4.1147,4.1191,4.1191,4.1191,4.1191,4.1191,4.1191,4.1191,4.1191,4.1191,4.1191,4.1191,4.1191,4.1191,4.1191,4.1191,4.1191,4.1191,4.1191,4.1191,4.1191,4.1191,4.1191,4.1191,4.1465,4.1621,4.1465,4.2695,4.3769,4.3926,4.4687,4.5508,4.6211,4.6308,4.6308,4.6308,4.6308,4.6308,4.6308,4.6308,4.6308,4.6308,4.6308,4.6308,4.6308,4.6308,4.6308,4.6308,4.6308,4.6308,4.6308,4.6308,4.6308,4.6308,4.6308,4.6308,0.0,0.0,0.0,0.0,3.4953,3.4708,0.0,0.0,3.6506,3.6786,0.0,3.8027,3.8123,0.0,0.0,3.9438,4.0265,4.1073,4.1835,4.2689,4.3487,4.4102,4.4853,4.4998,4.4248,4.2035,4.0893,4.147,3.8615,3.713,3.7819,3.6415,3.5585,3.5591,3.5651,3.5668,3.5606,3.5673,3.5704,3.5704,3.5704,3.5704,3.5704,3.5704,3.5704,3.5704,3.5704,3.5704,3.5695,3.5708,3.6246,3.7172,3.8052,3.8909,3.9786,4.0818,4.1191,4.1191,4.1191,4.1191,4.1191,4.1191,4.1191,4.1191,4.1191,4.1191,4.1191,4.1191,4.1191,4.1191,4.1191,4.1191,4.1191,4.1191,4.1191,4.1191,4.1191,4.1191,4.1191,4.1191,4.2402,4.3164,4.2402,4.3066,4.3965,4.4746,4.5586,4.6191,4.6289,4.6308,4.6308,4.6308,4.6308,4.6308,4.6308,4.6308,4.6308,4.6308,4.6308,4.6308,4.6308,4.6308,4.6308,4.6308,4.6308,4.6308,4.6308,4.6308,4.6308,4.6308,4.6308,4.6308,0.0,0.0,0.0,0.0,0.0,0.0,3.486,3.533,3.5755,3.5953,0.0,0.0,0.0,0.0,0.0,0.0,3.8911,3.9938,4.0296,4.1931,4.3239,4.3566,4.3932,4.4008,4.3643,4.2643,4.195,4.1808,4.0008,3.8638,3.8038,3.7365,3.6563,3.5622,3.6109,3.6377,3.6344,3.6375,3.64,3.6381,3.5916,3.5704,3.5704,3.5704,3.5704,3.5704,3.5704,3.5702,3.5703,3.57,3.6576,3.7944,3.8317,3.9022,3.9977,4.0879,4.1191,4.1191,4.1191,4.1191,4.1191,4.1191,4.1191,4.1191,4.1191,4.1191,4.1191,4.1191,4.1191,4.1191,4.1191,4.1191,4.1191,4.1191,4.1191,4.1328,4.1797,4.1894,4.2051,4.2558,4.3223,4.373,4.3887,4.4629,4.5156,4.5019,4.5742,4.6308,4.6308,4.6308,4.6308,4.6308,4.6308,4.6308,4.6308,4.6308,4.6308,4.6308,4.6308,4.6308,4.6308,4.6308,4.6308,4.6308,4.6308,4.6308,4.6308,4.6308,4.6308,4.6308,4.6308,4.6308,3.4137,0.0,0.0,3.4391,3.4562,3.4798,3.4878,3.5019,3.5259,3.5734,3.5827,0.0,0.0,0.0,0.0,0.0,0.0,3.9034,3.9265,4.0893,4.222,4.2701,4.3143,4.3431,4.3431,4.3239,4.2835,4.22,4.0912,3.9857,3.9117,3.8418,3.7604,3.6663,3.7042,3.7266,3.727,3.7019,3.6903,3.6884,3.6071,3.5704,3.5704,3.5704,3.5704,3.5709,3.5697,3.5694,3.5721,3.6001,3.7052,3.8534,3.8775,3.9449,4.0332,4.0976,4.1191,4.1191,4.1191,4.1191,4.1191,4.1191,4.1191,4.1191,4.1191,4.1191,4.1191,4.1191,4.1191,4.1191,4.1191,4.1191,4.1269,4.1484,4.1523,4.1758,4.2578,4.2754,4.2949,4.3574,4.3887,4.4258,4.4883,4.5527,4.5801,4.543,4.5898,4.6308,4.6308,4.6308,4.6308,4.6308,4.6308,4.6308,4.6308,4.6308,4.6308,4.6308,4.6308,4.6308,4.6308,4.6308,4.6308,4.6308,4.6308,4.6308,4.6308,4.6308,4.6308,4.6308,4.6308,4.6308,3.4981,3.5708,3.63,3.5457,3.5358,3.5366,3.4981,3.4898,3.5237,3.6423,3.6654,3.6923,0.0,0.0,0.0,0.0,0.0,0.0,0.0,3.9381,4.0027,4.1654,4.3278,4.4259,4.4259,4.3566,4.3085,4.3066,4.0739,4.005,4.1686,3.9429,3.8466,3.9251,3.8542,3.8154,3.8154,3.7328,3.6903,3.6884,3.6071,3.5704,3.5704,3.5704,3.5704,3.5695,3.5693,3.5693,3.5788,3.6759,3.7671,3.8594,3.949,4.0391,4.1152,4.1191,4.1191,4.1191,4.1191,4.1191,4.1191,4.1191,4.1191,4.1191,4.1191,4.1191,4.1191,4.1191,4.1191,4.1191,4.1191,4.1191,4.1406,4.2187,4.2363,4.2598,4.3476,4.3652,4.3672,4.3691,4.4375,4.4961,4.5,4.5019,4.5312,4.6133,4.6289,4.6308,4.6308,4.6308,4.6308,4.6308,4.6308,4.6308,4.6308,4.6308,4.6308,4.6308,4.6308,4.6308,4.6308,4.6308,4.6308,4.6308,4.6308,4.6308,4.6308,4.6308,4.6308,4.6308,4.6308,4.6308,3.4224,3.4494,3.4882,3.5155,3.4905,3.4723,3.5229,3.5088,3.5145,3.6203,3.6589,3.6978,3.7846,0.0,0.0,0.0,0.0,0.0,0.0,0.0,3.9277,0.0,0.0,0.0,0.0,4.2912,4.2854,4.2277,4.1974,4.159,4.1068,4.1316,4.0855,3.9502,3.9759,3.963,3.9075,3.8766,3.8334,3.7748,3.6903,3.6226,3.5709,3.5699,3.5688,3.5697,3.5744,3.6114,3.6718,3.7058,3.8074,3.9451,3.9785,4.043,4.1191,4.1191,4.1191,4.1191,4.1191,4.1191,4.1191,4.1191,4.1191,4.1191,4.1191,4.1191,4.1191,4.1191,4.1191,4.1191,4.1191,4.1601,4.2051,4.2344,4.2832,4.3496,4.4375,4.4551,4.4726,4.5312,4.5664,4.5859,4.5859,4.5859,4.5957,4.6269,4.6308,4.6308,4.6308,4.6308,4.6308,4.6308,4.6308,4.6308,4.6308,4.6308,4.6308,4.6308,4.6308,4.6308,4.6308,4.6308,4.6308,4.6308,4.6308,4.6308,4.6308,4.6308,4.6308,4.6308,4.6308,4.6308,3.3842,3.4102,3.445,3.4668,3.4696,3.4828,3.557,3.5533,3.5638,3.6655,3.7239,3.7633,3.7901,0.0,0.0,0.0,0.0,0.0,0.0,3.8277,0.0,0.0,0.0,0.0,0.0,4.2506,4.2553,4.2277,4.2545,4.25,4.2003,4.2801,4.2531,4.0939,4.1158,4.0888,4.0034,3.9723,3.9296,3.8709,3.7841,3.7011,3.6215,3.6526,3.6487,3.6218,3.6598,3.7106,3.7693,3.8015,3.8844,3.9922,4.0234,4.0703,4.1191,4.1191,4.1191,4.1191,4.1191,4.1191,4.1191,4.1191,4.1191,4.1191,4.1191,4.1191,4.1191,4.1191,4.1406,4.1621,4.1621,4.2246,4.2949,4.3242,4.375,4.4394,4.5273,4.5469,4.5625,4.6191,4.6308,4.6308,4.6308,4.6308,4.6308,4.6308,4.6308,4.6308,4.6308,4.6308,4.6308,4.6308,4.6308,4.6308,4.6308,4.6308,4.6308,4.6308,4.6308,4.6308,4.6308,4.6308,4.6308,4.6308,4.6308,4.6308,4.6308,4.6308,4.6307,4.6307,4.6307,4.6307]}]]